<?xml version="1.0" encoding="UTF-8" standalone="no" ?>
<gpx xmlns="http://www.topografix.com/GPX/1/1" xmlns:xsi="http://www.w3.org/2001/XMLSchema-instance" xsi:schemaLocation="http://www.topografix.com/GPX/1/1 http://www.topografix.com/GPX/1/1/gpx.xsd" version="1.1" creator="VisuGPX - https://www.visugpx.com">
  <metadata>
    <name>échappée jurassienne étape 12 Foncine/Chapelle des Bois</name>
    <desc><![CDATA[Pour quitter Foncines le Bas, j'emprunte le GRP jusque Foncine le Haut, la montée du chemin de croix, et ensuite la forêt du Mt Noir, passé 1000m d'altitude, la pluis est plutôt froide, et c'est détrempé que j'arrive à la chapelle des bois, ou pour la première fois depuis le début, je rencontre des randonneurs. Heureusement il y a un séchoir bien chauffé. Merci le Montagnon   ]]></desc>
  </metadata>
  <trk>
    <name><![CDATA[Jura L Foncine le Bas/ Chapelle des Bois 12-JUIN-16 05:28:33 PM]]></name>
    <trkseg>
      <trkpt lat="46.637" lon="6.03057">
        <ele>828.31</ele>
        <time>2016-06-12T06:20:49Z</time>
      </trkpt>
      <trkpt lat="46.637" lon="6.03045">
        <ele>825.91</ele>
        <time>2016-06-12T06:21:06Z</time>
      </trkpt>
      <trkpt lat="46.63702" lon="6.03044">
        <ele>823.99</ele>
        <time>2016-06-12T06:21:26Z</time>
      </trkpt>
      <trkpt lat="46.63711" lon="6.03043">
        <ele>820.62</ele>
        <time>2016-06-12T06:21:44Z</time>
      </trkpt>
      <trkpt lat="46.63714" lon="6.03043">
        <ele>819.18</ele>
        <time>2016-06-12T06:21:46Z</time>
      </trkpt>
      <trkpt lat="46.63718" lon="6.03044">
        <ele>816.78</ele>
        <time>2016-06-12T06:21:51Z</time>
      </trkpt>
      <trkpt lat="46.63737" lon="6.03038">
        <ele>817.26</ele>
        <time>2016-06-12T06:22:06Z</time>
      </trkpt>
      <trkpt lat="46.63745" lon="6.03038">
        <ele>817.74</ele>
        <time>2016-06-12T06:22:14Z</time>
      </trkpt>
      <trkpt lat="46.63747" lon="6.03038">
        <ele>817.74</ele>
        <time>2016-06-12T06:22:17Z</time>
      </trkpt>
      <trkpt lat="46.6376" lon="6.03038">
        <ele>817.74</ele>
        <time>2016-06-12T06:22:29Z</time>
      </trkpt>
      <trkpt lat="46.63763" lon="6.03036">
        <ele>817.26</ele>
        <time>2016-06-12T06:22:33Z</time>
      </trkpt>
      <trkpt lat="46.63782" lon="6.03033">
        <ele>815.82</ele>
        <time>2016-06-12T06:22:50Z</time>
      </trkpt>
      <trkpt lat="46.63786" lon="6.03032">
        <ele>815.82</ele>
        <time>2016-06-12T06:22:54Z</time>
      </trkpt>
      <trkpt lat="46.63803" lon="6.03033">
        <ele>812.45</ele>
        <time>2016-06-12T06:23:10Z</time>
      </trkpt>
      <trkpt lat="46.63817" lon="6.03031">
        <ele>810.05</ele>
        <time>2016-06-12T06:23:22Z</time>
      </trkpt>
      <trkpt lat="46.63831" lon="6.03029">
        <ele>810.53</ele>
        <time>2016-06-12T06:23:36Z</time>
      </trkpt>
      <trkpt lat="46.63842" lon="6.03025">
        <ele>811.97</ele>
        <time>2016-06-12T06:23:48Z</time>
      </trkpt>
      <trkpt lat="46.63856" lon="6.03025">
        <ele>809.09</ele>
        <time>2016-06-12T06:24:02Z</time>
      </trkpt>
      <trkpt lat="46.63868" lon="6.03023">
        <ele>805.24</ele>
        <time>2016-06-12T06:24:14Z</time>
      </trkpt>
      <trkpt lat="46.63882" lon="6.0302">
        <ele>805.24</ele>
        <time>2016-06-12T06:24:21Z</time>
      </trkpt>
      <trkpt lat="46.63903" lon="6.03017">
        <ele>805.24</ele>
        <time>2016-06-12T06:24:35Z</time>
      </trkpt>
      <trkpt lat="46.6391" lon="6.03016">
        <ele>804.76</ele>
        <time>2016-06-12T06:24:40Z</time>
      </trkpt>
      <trkpt lat="46.63926" lon="6.03013">
        <ele>805.72</ele>
        <time>2016-06-12T06:24:51Z</time>
      </trkpt>
      <trkpt lat="46.6393" lon="6.03014">
        <ele>805.72</ele>
        <time>2016-06-12T06:24:54Z</time>
      </trkpt>
      <trkpt lat="46.63933" lon="6.03013">
        <ele>805.24</ele>
        <time>2016-06-12T06:24:57Z</time>
      </trkpt>
      <trkpt lat="46.63944" lon="6.03009">
        <ele>799.95</ele>
        <time>2016-06-12T06:25:04Z</time>
      </trkpt>
      <trkpt lat="46.63965" lon="6.03006">
        <ele>797.55</ele>
        <time>2016-06-12T06:25:22Z</time>
      </trkpt>
      <trkpt lat="46.63978" lon="6.03005">
        <ele>799.95</ele>
        <time>2016-06-12T06:25:34Z</time>
      </trkpt>
      <trkpt lat="46.63994" lon="6.03001">
        <ele>800.92</ele>
        <time>2016-06-12T06:25:48Z</time>
      </trkpt>
      <trkpt lat="46.64008" lon="6.02997">
        <ele>801.4</ele>
        <time>2016-06-12T06:26:03Z</time>
      </trkpt>
      <trkpt lat="46.64016" lon="6.02995">
        <ele>800.44</ele>
        <time>2016-06-12T06:26:10Z</time>
      </trkpt>
      <trkpt lat="46.64021" lon="6.02995">
        <ele>800.44</ele>
        <time>2016-06-12T06:26:17Z</time>
      </trkpt>
      <trkpt lat="46.64032" lon="6.02994">
        <ele>800.44</ele>
        <time>2016-06-12T06:26:29Z</time>
      </trkpt>
      <trkpt lat="46.64049" lon="6.02995">
        <ele>798.99</ele>
        <time>2016-06-12T06:26:43Z</time>
      </trkpt>
      <trkpt lat="46.64061" lon="6.03">
        <ele>798.03</ele>
        <time>2016-06-12T06:26:54Z</time>
      </trkpt>
      <trkpt lat="46.6407" lon="6.03005">
        <ele>797.07</ele>
        <time>2016-06-12T06:27:03Z</time>
      </trkpt>
      <trkpt lat="46.64072" lon="6.03005">
        <ele>796.59</ele>
        <time>2016-06-12T06:27:05Z</time>
      </trkpt>
      <trkpt lat="46.64088" lon="6.03019">
        <ele>795.63</ele>
        <time>2016-06-12T06:27:19Z</time>
      </trkpt>
      <trkpt lat="46.6409" lon="6.03021">
        <ele>795.63</ele>
        <time>2016-06-12T06:27:21Z</time>
      </trkpt>
      <trkpt lat="46.64103" lon="6.03035">
        <ele>795.15</ele>
        <time>2016-06-12T06:27:35Z</time>
      </trkpt>
      <trkpt lat="46.64106" lon="6.03038">
        <ele>795.63</ele>
        <time>2016-06-12T06:27:38Z</time>
      </trkpt>
      <trkpt lat="46.64114" lon="6.03047">
        <ele>796.11</ele>
        <time>2016-06-12T06:27:46Z</time>
      </trkpt>
      <trkpt lat="46.6412" lon="6.03055">
        <ele>796.59</ele>
        <time>2016-06-12T06:27:53Z</time>
      </trkpt>
      <trkpt lat="46.64127" lon="6.03063">
        <ele>798.03</ele>
        <time>2016-06-12T06:28:00Z</time>
      </trkpt>
      <trkpt lat="46.64132" lon="6.0307">
        <ele>798.03</ele>
        <time>2016-06-12T06:28:06Z</time>
      </trkpt>
      <trkpt lat="46.64136" lon="6.03075">
        <ele>798.03</ele>
        <time>2016-06-12T06:28:11Z</time>
      </trkpt>
      <trkpt lat="46.64146" lon="6.03095">
        <ele>798.03</ele>
        <time>2016-06-12T06:28:25Z</time>
      </trkpt>
      <trkpt lat="46.64147" lon="6.03096">
        <ele>797.55</ele>
        <time>2016-06-12T06:28:26Z</time>
      </trkpt>
      <trkpt lat="46.64153" lon="6.03117">
        <ele>798.99</ele>
        <time>2016-06-12T06:28:39Z</time>
      </trkpt>
      <trkpt lat="46.64154" lon="6.0312">
        <ele>799.47</ele>
        <time>2016-06-12T06:28:41Z</time>
      </trkpt>
      <trkpt lat="46.64154" lon="6.03139">
        <ele>800.44</ele>
        <time>2016-06-12T06:28:53Z</time>
      </trkpt>
      <trkpt lat="46.64156" lon="6.03145">
        <ele>799.95</ele>
        <time>2016-06-12T06:28:58Z</time>
      </trkpt>
      <trkpt lat="46.64158" lon="6.03153">
        <ele>798.51</ele>
        <time>2016-06-12T06:29:03Z</time>
      </trkpt>
      <trkpt lat="46.64156" lon="6.03174">
        <ele>795.63</ele>
        <time>2016-06-12T06:29:16Z</time>
      </trkpt>
      <trkpt lat="46.6415" lon="6.03185">
        <ele>796.11</ele>
        <time>2016-06-12T06:29:27Z</time>
      </trkpt>
      <trkpt lat="46.64143" lon="6.03193">
        <ele>793.22</ele>
        <time>2016-06-12T06:29:35Z</time>
      </trkpt>
      <trkpt lat="46.64141" lon="6.03196">
        <ele>791.78</ele>
        <time>2016-06-12T06:29:37Z</time>
      </trkpt>
      <trkpt lat="46.64128" lon="6.03204">
        <ele>790.34</ele>
        <time>2016-06-12T06:29:49Z</time>
      </trkpt>
      <trkpt lat="46.6412" lon="6.03208">
        <ele>789.86</ele>
        <time>2016-06-12T06:30:02Z</time>
      </trkpt>
      <trkpt lat="46.64125" lon="6.03205">
        <ele>790.82</ele>
        <time>2016-06-12T06:30:08Z</time>
      </trkpt>
      <trkpt lat="46.64136" lon="6.03202">
        <ele>795.15</ele>
        <time>2016-06-12T06:30:17Z</time>
      </trkpt>
      <trkpt lat="46.64141" lon="6.032">
        <ele>798.51</ele>
        <time>2016-06-12T06:30:22Z</time>
      </trkpt>
      <trkpt lat="46.64156" lon="6.03188">
        <ele>798.51</ele>
        <time>2016-06-12T06:30:38Z</time>
      </trkpt>
      <trkpt lat="46.64158" lon="6.03188">
        <ele>798.51</ele>
        <time>2016-06-12T06:30:41Z</time>
      </trkpt>
      <trkpt lat="46.64159" lon="6.0319">
        <ele>798.51</ele>
        <time>2016-06-12T06:30:44Z</time>
      </trkpt>
      <trkpt lat="46.6416" lon="6.03195">
        <ele>798.99</ele>
        <time>2016-06-12T06:30:47Z</time>
      </trkpt>
      <trkpt lat="46.64161" lon="6.03197">
        <ele>799.95</ele>
        <time>2016-06-12T06:30:49Z</time>
      </trkpt>
      <trkpt lat="46.64173" lon="6.03193">
        <ele>802.36</ele>
        <time>2016-06-12T06:31:01Z</time>
      </trkpt>
      <trkpt lat="46.64189" lon="6.03193">
        <ele>798.03</ele>
        <time>2016-06-12T06:31:13Z</time>
      </trkpt>
      <trkpt lat="46.64198" lon="6.03193">
        <ele>796.11</ele>
        <time>2016-06-12T06:31:25Z</time>
      </trkpt>
      <trkpt lat="46.64203" lon="6.0319">
        <ele>794.67</ele>
        <time>2016-06-12T06:31:33Z</time>
      </trkpt>
      <trkpt lat="46.64207" lon="6.03187">
        <ele>796.11</ele>
        <time>2016-06-12T06:31:46Z</time>
      </trkpt>
      <trkpt lat="46.64211" lon="6.03187">
        <ele>796.11</ele>
        <time>2016-06-12T06:31:53Z</time>
      </trkpt>
      <trkpt lat="46.64218" lon="6.03185">
        <ele>797.07</ele>
        <time>2016-06-12T06:32:02Z</time>
      </trkpt>
      <trkpt lat="46.64229" lon="6.03183">
        <ele>795.15</ele>
        <time>2016-06-12T06:32:15Z</time>
      </trkpt>
      <trkpt lat="46.64238" lon="6.03182">
        <ele>796.11</ele>
        <time>2016-06-12T06:32:28Z</time>
      </trkpt>
      <trkpt lat="46.6425" lon="6.0318">
        <ele>800.44</ele>
        <time>2016-06-12T06:32:45Z</time>
      </trkpt>
      <trkpt lat="46.6426" lon="6.03169">
        <ele>804.76</ele>
        <time>2016-06-12T06:32:58Z</time>
      </trkpt>
      <trkpt lat="46.6427" lon="6.03157">
        <ele>808.61</ele>
        <time>2016-06-12T06:33:12Z</time>
      </trkpt>
      <trkpt lat="46.64279" lon="6.03142">
        <ele>811.97</ele>
        <time>2016-06-12T06:33:29Z</time>
      </trkpt>
      <trkpt lat="46.64287" lon="6.0313">
        <ele>815.34</ele>
        <time>2016-06-12T06:33:43Z</time>
      </trkpt>
      <trkpt lat="46.64298" lon="6.03122">
        <ele>818.7</ele>
        <time>2016-06-12T06:33:57Z</time>
      </trkpt>
      <trkpt lat="46.64307" lon="6.03117">
        <ele>817.74</ele>
        <time>2016-06-12T06:34:10Z</time>
      </trkpt>
      <trkpt lat="46.64308" lon="6.03117">
        <ele>817.74</ele>
        <time>2016-06-12T06:34:11Z</time>
      </trkpt>
      <trkpt lat="46.64319" lon="6.03118">
        <ele>818.22</ele>
        <time>2016-06-12T06:34:25Z</time>
      </trkpt>
      <trkpt lat="46.64329" lon="6.03113">
        <ele>818.7</ele>
        <time>2016-06-12T06:34:37Z</time>
      </trkpt>
      <trkpt lat="46.64331" lon="6.03113">
        <ele>819.18</ele>
        <time>2016-06-12T06:34:39Z</time>
      </trkpt>
      <trkpt lat="46.64341" lon="6.03111">
        <ele>822.06</ele>
        <time>2016-06-12T06:34:50Z</time>
      </trkpt>
      <trkpt lat="46.64351" lon="6.03112">
        <ele>824.47</ele>
        <time>2016-06-12T06:35:04Z</time>
      </trkpt>
      <trkpt lat="46.64356" lon="6.0312">
        <ele>824.47</ele>
        <time>2016-06-12T06:35:13Z</time>
      </trkpt>
      <trkpt lat="46.64355" lon="6.03133">
        <ele>823.03</ele>
        <time>2016-06-12T06:35:26Z</time>
      </trkpt>
      <trkpt lat="46.64352" lon="6.0314">
        <ele>823.03</ele>
        <time>2016-06-12T06:35:35Z</time>
      </trkpt>
      <trkpt lat="46.64347" lon="6.03155">
        <ele>823.03</ele>
        <time>2016-06-12T06:35:47Z</time>
      </trkpt>
      <trkpt lat="46.64346" lon="6.03157">
        <ele>823.51</ele>
        <time>2016-06-12T06:35:53Z</time>
      </trkpt>
      <trkpt lat="46.64343" lon="6.03175">
        <ele>823.03</ele>
        <time>2016-06-12T06:36:07Z</time>
      </trkpt>
      <trkpt lat="46.64346" lon="6.03188">
        <ele>822.55</ele>
        <time>2016-06-12T06:36:20Z</time>
      </trkpt>
      <trkpt lat="46.64351" lon="6.03194">
        <ele>823.99</ele>
        <time>2016-06-12T06:36:28Z</time>
      </trkpt>
      <trkpt lat="46.64361" lon="6.03202">
        <ele>828.31</ele>
        <time>2016-06-12T06:36:38Z</time>
      </trkpt>
      <trkpt lat="46.6437" lon="6.03208">
        <ele>831.2</ele>
        <time>2016-06-12T06:36:46Z</time>
      </trkpt>
      <trkpt lat="46.64377" lon="6.03215">
        <ele>832.16</ele>
        <time>2016-06-12T06:36:56Z</time>
      </trkpt>
      <trkpt lat="46.64383" lon="6.03219">
        <ele>832.16</ele>
        <time>2016-06-12T06:37:06Z</time>
      </trkpt>
      <trkpt lat="46.64386" lon="6.0322">
        <ele>833.12</ele>
        <time>2016-06-12T06:37:09Z</time>
      </trkpt>
      <trkpt lat="46.64392" lon="6.03228">
        <ele>835.04</ele>
        <time>2016-06-12T06:37:22Z</time>
      </trkpt>
      <trkpt lat="46.64393" lon="6.03228">
        <ele>837.45</ele>
        <time>2016-06-12T06:37:38Z</time>
      </trkpt>
      <trkpt lat="46.64394" lon="6.03229">
        <ele>838.41</ele>
        <time>2016-06-12T06:37:51Z</time>
      </trkpt>
      <trkpt lat="46.64395" lon="6.03229">
        <ele>838.89</ele>
        <time>2016-06-12T06:38:11Z</time>
      </trkpt>
      <trkpt lat="46.64397" lon="6.03229">
        <ele>839.85</ele>
        <time>2016-06-12T06:38:28Z</time>
      </trkpt>
      <trkpt lat="46.64398" lon="6.03229">
        <ele>840.33</ele>
        <time>2016-06-12T06:38:49Z</time>
      </trkpt>
      <trkpt lat="46.64398" lon="6.03229">
        <ele>840.81</ele>
        <time>2016-06-12T06:39:09Z</time>
      </trkpt>
      <trkpt lat="46.64398" lon="6.03229">
        <ele>840.81</ele>
        <time>2016-06-12T06:39:25Z</time>
      </trkpt>
      <trkpt lat="46.64399" lon="6.03228">
        <ele>840.81</ele>
        <time>2016-06-12T06:39:41Z</time>
      </trkpt>
      <trkpt lat="46.64399" lon="6.03228">
        <ele>840.81</ele>
        <time>2016-06-12T06:40:00Z</time>
      </trkpt>
      <trkpt lat="46.64398" lon="6.03228">
        <ele>841.29</ele>
        <time>2016-06-12T06:40:18Z</time>
      </trkpt>
      <trkpt lat="46.64398" lon="6.03227">
        <ele>841.77</ele>
        <time>2016-06-12T06:40:33Z</time>
      </trkpt>
      <trkpt lat="46.64398" lon="6.03227">
        <ele>841.29</ele>
        <time>2016-06-12T06:40:50Z</time>
      </trkpt>
      <trkpt lat="46.64398" lon="6.03227">
        <ele>841.77</ele>
        <time>2016-06-12T06:41:03Z</time>
      </trkpt>
      <trkpt lat="46.64398" lon="6.03227">
        <ele>841.77</ele>
        <time>2016-06-12T06:41:19Z</time>
      </trkpt>
      <trkpt lat="46.64399" lon="6.03228">
        <ele>841.77</ele>
        <time>2016-06-12T06:41:33Z</time>
      </trkpt>
      <trkpt lat="46.64399" lon="6.03227">
        <ele>842.73</ele>
        <time>2016-06-12T06:41:51Z</time>
      </trkpt>
      <trkpt lat="46.64399" lon="6.03227">
        <ele>842.73</ele>
        <time>2016-06-12T06:42:06Z</time>
      </trkpt>
      <trkpt lat="46.64399" lon="6.03227">
        <ele>842.73</ele>
        <time>2016-06-12T06:42:24Z</time>
      </trkpt>
      <trkpt lat="46.64399" lon="6.03227">
        <ele>843.21</ele>
        <time>2016-06-12T06:42:38Z</time>
      </trkpt>
      <trkpt lat="46.64399" lon="6.03227">
        <ele>842.73</ele>
        <time>2016-06-12T06:42:51Z</time>
      </trkpt>
      <trkpt lat="46.644" lon="6.03227">
        <ele>843.21</ele>
        <time>2016-06-12T06:43:09Z</time>
      </trkpt>
      <trkpt lat="46.64399" lon="6.03227">
        <ele>843.21</ele>
        <time>2016-06-12T06:43:27Z</time>
      </trkpt>
      <trkpt lat="46.64399" lon="6.03227">
        <ele>843.21</ele>
        <time>2016-06-12T06:43:41Z</time>
      </trkpt>
      <trkpt lat="46.64399" lon="6.03228">
        <ele>843.21</ele>
        <time>2016-06-12T06:43:55Z</time>
      </trkpt>
      <trkpt lat="46.64398" lon="6.03228">
        <ele>843.21</ele>
        <time>2016-06-12T06:44:10Z</time>
      </trkpt>
      <trkpt lat="46.64398" lon="6.03228">
        <ele>844.18</ele>
        <time>2016-06-12T06:44:28Z</time>
      </trkpt>
      <trkpt lat="46.64398" lon="6.03228">
        <ele>844.18</ele>
        <time>2016-06-12T06:44:44Z</time>
      </trkpt>
      <trkpt lat="46.64398" lon="6.03228">
        <ele>843.69</ele>
        <time>2016-06-12T06:44:58Z</time>
      </trkpt>
      <trkpt lat="46.64397" lon="6.03227">
        <ele>844.18</ele>
        <time>2016-06-12T06:45:18Z</time>
      </trkpt>
      <trkpt lat="46.64397" lon="6.03228">
        <ele>843.69</ele>
        <time>2016-06-12T06:45:30Z</time>
      </trkpt>
      <trkpt lat="46.64398" lon="6.03229">
        <ele>843.69</ele>
        <time>2016-06-12T06:45:44Z</time>
      </trkpt>
      <trkpt lat="46.64398" lon="6.03229">
        <ele>843.21</ele>
        <time>2016-06-12T06:46:01Z</time>
      </trkpt>
      <trkpt lat="46.64398" lon="6.03229">
        <ele>843.69</ele>
        <time>2016-06-12T06:46:13Z</time>
      </trkpt>
      <trkpt lat="46.64399" lon="6.03229">
        <ele>843.69</ele>
        <time>2016-06-12T06:46:28Z</time>
      </trkpt>
      <trkpt lat="46.64399" lon="6.03229">
        <ele>844.18</ele>
        <time>2016-06-12T06:46:41Z</time>
      </trkpt>
      <trkpt lat="46.644" lon="6.03229">
        <ele>844.18</ele>
        <time>2016-06-12T06:46:57Z</time>
      </trkpt>
      <trkpt lat="46.644" lon="6.0323">
        <ele>844.66</ele>
        <time>2016-06-12T06:47:12Z</time>
      </trkpt>
      <trkpt lat="46.644" lon="6.03229">
        <ele>844.66</ele>
        <time>2016-06-12T06:47:28Z</time>
      </trkpt>
      <trkpt lat="46.644" lon="6.03228">
        <ele>844.18</ele>
        <time>2016-06-12T06:47:44Z</time>
      </trkpt>
      <trkpt lat="46.64399" lon="6.03227">
        <ele>844.66</ele>
        <time>2016-06-12T06:47:57Z</time>
      </trkpt>
      <trkpt lat="46.64399" lon="6.03225">
        <ele>844.18</ele>
        <time>2016-06-12T06:48:08Z</time>
      </trkpt>
      <trkpt lat="46.64399" lon="6.03226">
        <ele>843.69</ele>
        <time>2016-06-12T06:48:26Z</time>
      </trkpt>
      <trkpt lat="46.64399" lon="6.03226">
        <ele>843.21</ele>
        <time>2016-06-12T06:48:45Z</time>
      </trkpt>
      <trkpt lat="46.64399" lon="6.03228">
        <ele>843.69</ele>
        <time>2016-06-12T06:49:00Z</time>
      </trkpt>
      <trkpt lat="46.64399" lon="6.03228">
        <ele>844.18</ele>
        <time>2016-06-12T06:49:23Z</time>
      </trkpt>
      <trkpt lat="46.64401" lon="6.03229">
        <ele>844.66</ele>
        <time>2016-06-12T06:49:37Z</time>
      </trkpt>
      <trkpt lat="46.64402" lon="6.03229">
        <ele>844.66</ele>
        <time>2016-06-12T06:49:38Z</time>
      </trkpt>
      <trkpt lat="46.64405" lon="6.03231">
        <ele>844.66</ele>
        <time>2016-06-12T06:49:42Z</time>
      </trkpt>
      <trkpt lat="46.64412" lon="6.03237">
        <ele>846.1</ele>
        <time>2016-06-12T06:49:55Z</time>
      </trkpt>
      <trkpt lat="46.64416" lon="6.03242">
        <ele>847.06</ele>
        <time>2016-06-12T06:50:11Z</time>
      </trkpt>
      <trkpt lat="46.64425" lon="6.03255">
        <ele>850.9</ele>
        <time>2016-06-12T06:50:25Z</time>
      </trkpt>
      <trkpt lat="46.64437" lon="6.03261">
        <ele>852.83</ele>
        <time>2016-06-12T06:50:38Z</time>
      </trkpt>
      <trkpt lat="46.6445" lon="6.03268">
        <ele>853.79</ele>
        <time>2016-06-12T06:50:52Z</time>
      </trkpt>
      <trkpt lat="46.6446" lon="6.03275">
        <ele>855.71</ele>
        <time>2016-06-12T06:51:03Z</time>
      </trkpt>
      <trkpt lat="46.64472" lon="6.03282">
        <ele>857.63</ele>
        <time>2016-06-12T06:51:16Z</time>
      </trkpt>
      <trkpt lat="46.64488" lon="6.03298">
        <ele>858.11</ele>
        <time>2016-06-12T06:51:32Z</time>
      </trkpt>
      <trkpt lat="46.64489" lon="6.03301">
        <ele>857.63</ele>
        <time>2016-06-12T06:51:34Z</time>
      </trkpt>
      <trkpt lat="46.64492" lon="6.03305">
        <ele>857.63</ele>
        <time>2016-06-12T06:51:38Z</time>
      </trkpt>
      <trkpt lat="46.64494" lon="6.03307">
        <ele>858.11</ele>
        <time>2016-06-12T06:51:40Z</time>
      </trkpt>
      <trkpt lat="46.64498" lon="6.03314">
        <ele>858.11</ele>
        <time>2016-06-12T06:51:46Z</time>
      </trkpt>
      <trkpt lat="46.64507" lon="6.03334">
        <ele>858.59</ele>
        <time>2016-06-12T06:52:01Z</time>
      </trkpt>
      <trkpt lat="46.64519" lon="6.03349">
        <ele>859.56</ele>
        <time>2016-06-12T06:52:16Z</time>
      </trkpt>
      <trkpt lat="46.6453" lon="6.0336">
        <ele>859.56</ele>
        <time>2016-06-12T06:52:29Z</time>
      </trkpt>
      <trkpt lat="46.64538" lon="6.03371">
        <ele>860.04</ele>
        <time>2016-06-12T06:52:42Z</time>
      </trkpt>
      <trkpt lat="46.64545" lon="6.03386">
        <ele>861.48</ele>
        <time>2016-06-12T06:52:55Z</time>
      </trkpt>
      <trkpt lat="46.64553" lon="6.03402">
        <ele>865.32</ele>
        <time>2016-06-12T06:53:08Z</time>
      </trkpt>
      <trkpt lat="46.64561" lon="6.03422">
        <ele>864.84</ele>
        <time>2016-06-12T06:53:22Z</time>
      </trkpt>
      <trkpt lat="46.6457" lon="6.03437">
        <ele>865.32</ele>
        <time>2016-06-12T06:53:35Z</time>
      </trkpt>
      <trkpt lat="46.64571" lon="6.03445">
        <ele>864.84</ele>
        <time>2016-06-12T06:53:46Z</time>
      </trkpt>
      <trkpt lat="46.64573" lon="6.03451">
        <ele>863.88</ele>
        <time>2016-06-12T06:53:51Z</time>
      </trkpt>
      <trkpt lat="46.64585" lon="6.03464">
        <ele>864.36</ele>
        <time>2016-06-12T06:54:02Z</time>
      </trkpt>
      <trkpt lat="46.64586" lon="6.03472">
        <ele>864.84</ele>
        <time>2016-06-12T06:54:07Z</time>
      </trkpt>
      <trkpt lat="46.64587" lon="6.03475">
        <ele>865.32</ele>
        <time>2016-06-12T06:54:09Z</time>
      </trkpt>
      <trkpt lat="46.64587" lon="6.03483">
        <ele>866.77</ele>
        <time>2016-06-12T06:54:15Z</time>
      </trkpt>
      <trkpt lat="46.64595" lon="6.03495">
        <ele>869.17</ele>
        <time>2016-06-12T06:54:28Z</time>
      </trkpt>
      <trkpt lat="46.64604" lon="6.03509">
        <ele>871.57</ele>
        <time>2016-06-12T06:54:42Z</time>
      </trkpt>
      <trkpt lat="46.64607" lon="6.03522">
        <ele>871.57</ele>
        <time>2016-06-12T06:54:54Z</time>
      </trkpt>
      <trkpt lat="46.64606" lon="6.03522">
        <ele>871.57</ele>
        <time>2016-06-12T06:55:14Z</time>
      </trkpt>
      <trkpt lat="46.64607" lon="6.03526">
        <ele>871.57</ele>
        <time>2016-06-12T06:55:29Z</time>
      </trkpt>
      <trkpt lat="46.64608" lon="6.03528">
        <ele>871.57</ele>
        <time>2016-06-12T06:55:31Z</time>
      </trkpt>
      <trkpt lat="46.64608" lon="6.03534">
        <ele>871.57</ele>
        <time>2016-06-12T06:55:35Z</time>
      </trkpt>
      <trkpt lat="46.64609" lon="6.03544">
        <ele>872.05</ele>
        <time>2016-06-12T06:55:41Z</time>
      </trkpt>
      <trkpt lat="46.64612" lon="6.03567">
        <ele>871.09</ele>
        <time>2016-06-12T06:55:55Z</time>
      </trkpt>
      <trkpt lat="46.64615" lon="6.03586">
        <ele>872.53</ele>
        <time>2016-06-12T06:56:07Z</time>
      </trkpt>
      <trkpt lat="46.6462" lon="6.036">
        <ele>872.53</ele>
        <time>2016-06-12T06:56:15Z</time>
      </trkpt>
      <trkpt lat="46.64626" lon="6.03613">
        <ele>872.53</ele>
        <time>2016-06-12T06:56:26Z</time>
      </trkpt>
      <trkpt lat="46.64633" lon="6.0362">
        <ele>871.57</ele>
        <time>2016-06-12T06:56:38Z</time>
      </trkpt>
      <trkpt lat="46.64642" lon="6.03632">
        <ele>872.05</ele>
        <time>2016-06-12T06:56:53Z</time>
      </trkpt>
      <trkpt lat="46.6465" lon="6.03642">
        <ele>872.53</ele>
        <time>2016-06-12T06:57:04Z</time>
      </trkpt>
      <trkpt lat="46.64659" lon="6.03651">
        <ele>872.53</ele>
        <time>2016-06-12T06:57:16Z</time>
      </trkpt>
      <trkpt lat="46.6466" lon="6.03652">
        <ele>872.53</ele>
        <time>2016-06-12T06:57:17Z</time>
      </trkpt>
      <trkpt lat="46.64669" lon="6.03663">
        <ele>873.98</ele>
        <time>2016-06-12T06:57:29Z</time>
      </trkpt>
      <trkpt lat="46.64671" lon="6.03664">
        <ele>873.98</ele>
        <time>2016-06-12T06:57:31Z</time>
      </trkpt>
      <trkpt lat="46.64679" lon="6.0367">
        <ele>874.94</ele>
        <time>2016-06-12T06:57:43Z</time>
      </trkpt>
      <trkpt lat="46.64687" lon="6.03679">
        <ele>875.9</ele>
        <time>2016-06-12T06:57:53Z</time>
      </trkpt>
      <trkpt lat="46.64705" lon="6.03694">
        <ele>876.86</ele>
        <time>2016-06-12T06:58:09Z</time>
      </trkpt>
      <trkpt lat="46.64708" lon="6.03697">
        <ele>876.86</ele>
        <time>2016-06-12T06:58:20Z</time>
      </trkpt>
      <trkpt lat="46.64715" lon="6.03707">
        <ele>875.9</ele>
        <time>2016-06-12T06:58:31Z</time>
      </trkpt>
      <trkpt lat="46.64724" lon="6.03721">
        <ele>879.26</ele>
        <time>2016-06-12T06:58:44Z</time>
      </trkpt>
      <trkpt lat="46.64735" lon="6.03733">
        <ele>882.15</ele>
        <time>2016-06-12T06:58:57Z</time>
      </trkpt>
      <trkpt lat="46.64739" lon="6.03737">
        <ele>882.63</ele>
        <time>2016-06-12T06:59:03Z</time>
      </trkpt>
      <trkpt lat="46.64749" lon="6.03744">
        <ele>882.63</ele>
        <time>2016-06-12T06:59:17Z</time>
      </trkpt>
      <trkpt lat="46.64758" lon="6.03752">
        <ele>885.51</ele>
        <time>2016-06-12T06:59:29Z</time>
      </trkpt>
      <trkpt lat="46.64766" lon="6.0376">
        <ele>885.99</ele>
        <time>2016-06-12T06:59:40Z</time>
      </trkpt>
      <trkpt lat="46.64777" lon="6.03767">
        <ele>888.88</ele>
        <time>2016-06-12T06:59:55Z</time>
      </trkpt>
      <trkpt lat="46.64781" lon="6.03767">
        <ele>889.84</ele>
        <time>2016-06-12T07:00:00Z</time>
      </trkpt>
      <trkpt lat="46.64792" lon="6.03758">
        <ele>892.72</ele>
        <time>2016-06-12T07:00:17Z</time>
      </trkpt>
      <trkpt lat="46.64794" lon="6.03756">
        <ele>892.72</ele>
        <time>2016-06-12T07:00:20Z</time>
      </trkpt>
      <trkpt lat="46.64797" lon="6.03739">
        <ele>894.16</ele>
        <time>2016-06-12T07:00:33Z</time>
      </trkpt>
      <trkpt lat="46.64802" lon="6.03727">
        <ele>896.09</ele>
        <time>2016-06-12T07:00:46Z</time>
      </trkpt>
      <trkpt lat="46.64809" lon="6.03718">
        <ele>897.05</ele>
        <time>2016-06-12T07:00:59Z</time>
      </trkpt>
      <trkpt lat="46.64812" lon="6.03716">
        <ele>896.57</ele>
        <time>2016-06-12T07:01:03Z</time>
      </trkpt>
      <trkpt lat="46.64824" lon="6.03715">
        <ele>897.53</ele>
        <time>2016-06-12T07:01:16Z</time>
      </trkpt>
      <trkpt lat="46.64836" lon="6.03713">
        <ele>899.93</ele>
        <time>2016-06-12T07:01:28Z</time>
      </trkpt>
      <trkpt lat="46.64844" lon="6.03714">
        <ele>900.89</ele>
        <time>2016-06-12T07:01:39Z</time>
      </trkpt>
      <trkpt lat="46.64855" lon="6.03717">
        <ele>903.3</ele>
        <time>2016-06-12T07:01:53Z</time>
      </trkpt>
      <trkpt lat="46.64868" lon="6.0372">
        <ele>906.66</ele>
        <time>2016-06-12T07:02:07Z</time>
      </trkpt>
      <trkpt lat="46.64869" lon="6.03721">
        <ele>907.14</ele>
        <time>2016-06-12T07:02:09Z</time>
      </trkpt>
      <trkpt lat="46.64881" lon="6.03722">
        <ele>908.58</ele>
        <time>2016-06-12T07:02:23Z</time>
      </trkpt>
      <trkpt lat="46.64885" lon="6.03722">
        <ele>908.1</ele>
        <time>2016-06-12T07:02:35Z</time>
      </trkpt>
      <trkpt lat="46.64887" lon="6.03719">
        <ele>907.62</ele>
        <time>2016-06-12T07:02:46Z</time>
      </trkpt>
      <trkpt lat="46.64892" lon="6.03712">
        <ele>907.62</ele>
        <time>2016-06-12T07:03:01Z</time>
      </trkpt>
      <trkpt lat="46.64892" lon="6.03712">
        <ele>908.58</ele>
        <time>2016-06-12T07:03:26Z</time>
      </trkpt>
      <trkpt lat="46.64892" lon="6.03713">
        <ele>908.1</ele>
        <time>2016-06-12T07:03:48Z</time>
      </trkpt>
      <trkpt lat="46.64895" lon="6.0371">
        <ele>907.62</ele>
        <time>2016-06-12T07:04:00Z</time>
      </trkpt>
      <trkpt lat="46.64899" lon="6.03702">
        <ele>908.1</ele>
        <time>2016-06-12T07:04:08Z</time>
      </trkpt>
      <trkpt lat="46.64901" lon="6.03696">
        <ele>908.1</ele>
        <time>2016-06-12T07:04:12Z</time>
      </trkpt>
      <trkpt lat="46.6491" lon="6.03683">
        <ele>910.03</ele>
        <time>2016-06-12T07:04:26Z</time>
      </trkpt>
      <trkpt lat="46.64915" lon="6.03681">
        <ele>909.54</ele>
        <time>2016-06-12T07:04:32Z</time>
      </trkpt>
      <trkpt lat="46.64928" lon="6.0368">
        <ele>910.99</ele>
        <time>2016-06-12T07:04:47Z</time>
      </trkpt>
      <trkpt lat="46.64939" lon="6.03676">
        <ele>910.99</ele>
        <time>2016-06-12T07:05:01Z</time>
      </trkpt>
      <trkpt lat="46.64947" lon="6.03677">
        <ele>913.39</ele>
        <time>2016-06-12T07:05:12Z</time>
      </trkpt>
      <trkpt lat="46.64956" lon="6.03683">
        <ele>912.91</ele>
        <time>2016-06-12T07:05:24Z</time>
      </trkpt>
      <trkpt lat="46.64965" lon="6.03692">
        <ele>913.39</ele>
        <time>2016-06-12T07:05:35Z</time>
      </trkpt>
      <trkpt lat="46.64974" lon="6.03703">
        <ele>915.79</ele>
        <time>2016-06-12T07:05:48Z</time>
      </trkpt>
      <trkpt lat="46.64977" lon="6.03705">
        <ele>917.24</ele>
        <time>2016-06-12T07:05:53Z</time>
      </trkpt>
      <trkpt lat="46.64986" lon="6.03715">
        <ele>919.16</ele>
        <time>2016-06-12T07:06:05Z</time>
      </trkpt>
      <trkpt lat="46.64988" lon="6.03716">
        <ele>919.64</ele>
        <time>2016-06-12T07:06:07Z</time>
      </trkpt>
      <trkpt lat="46.64998" lon="6.03725">
        <ele>920.6</ele>
        <time>2016-06-12T07:06:20Z</time>
      </trkpt>
      <trkpt lat="46.65007" lon="6.03732">
        <ele>920.12</ele>
        <time>2016-06-12T07:06:31Z</time>
      </trkpt>
      <trkpt lat="46.65018" lon="6.03739">
        <ele>921.08</ele>
        <time>2016-06-12T07:06:44Z</time>
      </trkpt>
      <trkpt lat="46.65027" lon="6.03744">
        <ele>924.45</ele>
        <time>2016-06-12T07:06:56Z</time>
      </trkpt>
      <trkpt lat="46.65039" lon="6.03753">
        <ele>924.93</ele>
        <time>2016-06-12T07:07:10Z</time>
      </trkpt>
      <trkpt lat="46.65042" lon="6.03755">
        <ele>924.93</ele>
        <time>2016-06-12T07:07:14Z</time>
      </trkpt>
      <trkpt lat="46.65046" lon="6.03756">
        <ele>924.93</ele>
        <time>2016-06-12T07:07:18Z</time>
      </trkpt>
      <trkpt lat="46.65056" lon="6.03758">
        <ele>924.45</ele>
        <time>2016-06-12T07:07:28Z</time>
      </trkpt>
      <trkpt lat="46.65066" lon="6.03755">
        <ele>927.81</ele>
        <time>2016-06-12T07:07:41Z</time>
      </trkpt>
      <trkpt lat="46.65073" lon="6.0375">
        <ele>928.77</ele>
        <time>2016-06-12T07:07:51Z</time>
      </trkpt>
      <trkpt lat="46.65081" lon="6.03746">
        <ele>928.77</ele>
        <time>2016-06-12T07:08:01Z</time>
      </trkpt>
      <trkpt lat="46.65082" lon="6.03746">
        <ele>928.77</ele>
        <time>2016-06-12T07:08:02Z</time>
      </trkpt>
      <trkpt lat="46.65092" lon="6.03738">
        <ele>927.81</ele>
        <time>2016-06-12T07:08:15Z</time>
      </trkpt>
      <trkpt lat="46.65093" lon="6.03738">
        <ele>927.81</ele>
        <time>2016-06-12T07:08:16Z</time>
      </trkpt>
      <trkpt lat="46.65101" lon="6.0373">
        <ele>929.73</ele>
        <time>2016-06-12T07:08:30Z</time>
      </trkpt>
      <trkpt lat="46.65104" lon="6.0373">
        <ele>930.69</ele>
        <time>2016-06-12T07:08:43Z</time>
      </trkpt>
      <trkpt lat="46.65107" lon="6.03727">
        <ele>931.65</ele>
        <time>2016-06-12T07:08:53Z</time>
      </trkpt>
      <trkpt lat="46.65114" lon="6.03726">
        <ele>932.62</ele>
        <time>2016-06-12T07:09:04Z</time>
      </trkpt>
      <trkpt lat="46.6512" lon="6.03725">
        <ele>933.1</ele>
        <time>2016-06-12T07:09:14Z</time>
      </trkpt>
      <trkpt lat="46.6513" lon="6.03725">
        <ele>933.1</ele>
        <time>2016-06-12T07:09:23Z</time>
      </trkpt>
      <trkpt lat="46.65141" lon="6.03735">
        <ele>934.06</ele>
        <time>2016-06-12T07:09:35Z</time>
      </trkpt>
      <trkpt lat="46.65142" lon="6.03737">
        <ele>935.02</ele>
        <time>2016-06-12T07:09:50Z</time>
      </trkpt>
      <trkpt lat="46.65146" lon="6.0374">
        <ele>935.5</ele>
        <time>2016-06-12T07:10:04Z</time>
      </trkpt>
      <trkpt lat="46.65155" lon="6.03756">
        <ele>936.46</ele>
        <time>2016-06-12T07:10:18Z</time>
      </trkpt>
      <trkpt lat="46.6516" lon="6.03776">
        <ele>938.38</ele>
        <time>2016-06-12T07:10:30Z</time>
      </trkpt>
      <trkpt lat="46.6516" lon="6.03778">
        <ele>938.86</ele>
        <time>2016-06-12T07:10:31Z</time>
      </trkpt>
      <trkpt lat="46.65165" lon="6.03799">
        <ele>939.35</ele>
        <time>2016-06-12T07:10:44Z</time>
      </trkpt>
      <trkpt lat="46.65172" lon="6.03817">
        <ele>940.79</ele>
        <time>2016-06-12T07:10:58Z</time>
      </trkpt>
      <trkpt lat="46.65176" lon="6.03829">
        <ele>941.75</ele>
        <time>2016-06-12T07:11:07Z</time>
      </trkpt>
      <trkpt lat="46.65185" lon="6.03852">
        <ele>942.23</ele>
        <time>2016-06-12T07:11:23Z</time>
      </trkpt>
      <trkpt lat="46.65192" lon="6.03866">
        <ele>939.83</ele>
        <time>2016-06-12T07:11:36Z</time>
      </trkpt>
      <trkpt lat="46.652" lon="6.03883">
        <ele>938.38</ele>
        <time>2016-06-12T07:11:49Z</time>
      </trkpt>
      <trkpt lat="46.65208" lon="6.03899">
        <ele>937.9</ele>
        <time>2016-06-12T07:12:01Z</time>
      </trkpt>
      <trkpt lat="46.6521" lon="6.03911">
        <ele>939.35</ele>
        <time>2016-06-12T07:12:12Z</time>
      </trkpt>
      <trkpt lat="46.65213" lon="6.03909">
        <ele>940.31</ele>
        <time>2016-06-12T07:12:23Z</time>
      </trkpt>
      <trkpt lat="46.65211" lon="6.03906">
        <ele>940.31</ele>
        <time>2016-06-12T07:12:38Z</time>
      </trkpt>
      <trkpt lat="46.65209" lon="6.03896">
        <ele>940.79</ele>
        <time>2016-06-12T07:12:47Z</time>
      </trkpt>
      <trkpt lat="46.6521" lon="6.03894">
        <ele>940.79</ele>
        <time>2016-06-12T07:12:49Z</time>
      </trkpt>
      <trkpt lat="46.65209" lon="6.03883">
        <ele>940.31</ele>
        <time>2016-06-12T07:12:56Z</time>
      </trkpt>
      <trkpt lat="46.65213" lon="6.03869">
        <ele>941.27</ele>
        <time>2016-06-12T07:13:07Z</time>
      </trkpt>
      <trkpt lat="46.65215" lon="6.03865">
        <ele>941.27</ele>
        <time>2016-06-12T07:13:10Z</time>
      </trkpt>
      <trkpt lat="46.65223" lon="6.03843">
        <ele>945.59</ele>
        <time>2016-06-12T07:13:24Z</time>
      </trkpt>
      <trkpt lat="46.65224" lon="6.03837">
        <ele>946.56</ele>
        <time>2016-06-12T07:13:28Z</time>
      </trkpt>
      <trkpt lat="46.65226" lon="6.03834">
        <ele>946.56</ele>
        <time>2016-06-12T07:13:31Z</time>
      </trkpt>
      <trkpt lat="46.6523" lon="6.03819">
        <ele>948.48</ele>
        <time>2016-06-12T07:13:42Z</time>
      </trkpt>
      <trkpt lat="46.65239" lon="6.03807">
        <ele>949.92</ele>
        <time>2016-06-12T07:13:55Z</time>
      </trkpt>
      <trkpt lat="46.65249" lon="6.03798">
        <ele>952.32</ele>
        <time>2016-06-12T07:14:09Z</time>
      </trkpt>
      <trkpt lat="46.65261" lon="6.03788">
        <ele>952.8</ele>
        <time>2016-06-12T07:14:23Z</time>
      </trkpt>
      <trkpt lat="46.65272" lon="6.0378">
        <ele>953.77</ele>
        <time>2016-06-12T07:14:34Z</time>
      </trkpt>
      <trkpt lat="46.65275" lon="6.03776">
        <ele>954.73</ele>
        <time>2016-06-12T07:14:39Z</time>
      </trkpt>
      <trkpt lat="46.65277" lon="6.03774">
        <ele>954.25</ele>
        <time>2016-06-12T07:14:41Z</time>
      </trkpt>
      <trkpt lat="46.65287" lon="6.03766">
        <ele>955.21</ele>
        <time>2016-06-12T07:14:54Z</time>
      </trkpt>
      <trkpt lat="46.65292" lon="6.0376">
        <ele>955.69</ele>
        <time>2016-06-12T07:15:00Z</time>
      </trkpt>
      <trkpt lat="46.653" lon="6.03753">
        <ele>956.65</ele>
        <time>2016-06-12T07:15:11Z</time>
      </trkpt>
      <trkpt lat="46.65312" lon="6.03746">
        <ele>957.61</ele>
        <time>2016-06-12T07:15:25Z</time>
      </trkpt>
      <trkpt lat="46.65323" lon="6.03738">
        <ele>960.49</ele>
        <time>2016-06-12T07:15:40Z</time>
      </trkpt>
      <trkpt lat="46.65332" lon="6.0373">
        <ele>961.46</ele>
        <time>2016-06-12T07:15:53Z</time>
      </trkpt>
      <trkpt lat="46.65342" lon="6.03721">
        <ele>962.42</ele>
        <time>2016-06-12T07:16:07Z</time>
      </trkpt>
      <trkpt lat="46.65352" lon="6.0371">
        <ele>962.9</ele>
        <time>2016-06-12T07:16:19Z</time>
      </trkpt>
      <trkpt lat="46.65361" lon="6.03698">
        <ele>964.34</ele>
        <time>2016-06-12T07:16:32Z</time>
      </trkpt>
      <trkpt lat="46.65368" lon="6.03687">
        <ele>963.86</ele>
        <time>2016-06-12T07:16:43Z</time>
      </trkpt>
      <trkpt lat="46.65377" lon="6.03676">
        <ele>964.34</ele>
        <time>2016-06-12T07:16:55Z</time>
      </trkpt>
      <trkpt lat="46.65386" lon="6.03664">
        <ele>964.82</ele>
        <time>2016-06-12T07:17:07Z</time>
      </trkpt>
      <trkpt lat="46.6539" lon="6.03659">
        <ele>964.82</ele>
        <time>2016-06-12T07:17:13Z</time>
      </trkpt>
      <trkpt lat="46.65395" lon="6.03654">
        <ele>964.82</ele>
        <time>2016-06-12T07:17:19Z</time>
      </trkpt>
      <trkpt lat="46.65402" lon="6.03648">
        <ele>965.3</ele>
        <time>2016-06-12T07:17:28Z</time>
      </trkpt>
      <trkpt lat="46.65412" lon="6.0364">
        <ele>963.38</ele>
        <time>2016-06-12T07:17:42Z</time>
      </trkpt>
      <trkpt lat="46.65421" lon="6.03631">
        <ele>963.86</ele>
        <time>2016-06-12T07:17:54Z</time>
      </trkpt>
      <trkpt lat="46.65429" lon="6.03624">
        <ele>966.26</ele>
        <time>2016-06-12T07:18:05Z</time>
      </trkpt>
      <trkpt lat="46.6544" lon="6.03622">
        <ele>968.67</ele>
        <time>2016-06-12T07:18:19Z</time>
      </trkpt>
      <trkpt lat="46.65452" lon="6.03623">
        <ele>971.07</ele>
        <time>2016-06-12T07:18:32Z</time>
      </trkpt>
      <trkpt lat="46.65464" lon="6.03621">
        <ele>972.51</ele>
        <time>2016-06-12T07:18:45Z</time>
      </trkpt>
      <trkpt lat="46.65476" lon="6.03617">
        <ele>974.43</ele>
        <time>2016-06-12T07:18:58Z</time>
      </trkpt>
      <trkpt lat="46.65487" lon="6.03609">
        <ele>977.32</ele>
        <time>2016-06-12T07:19:10Z</time>
      </trkpt>
      <trkpt lat="46.65498" lon="6.03602">
        <ele>979.24</ele>
        <time>2016-06-12T07:19:23Z</time>
      </trkpt>
      <trkpt lat="46.65504" lon="6.03596">
        <ele>980.68</ele>
        <time>2016-06-12T07:19:35Z</time>
      </trkpt>
      <trkpt lat="46.65514" lon="6.03584">
        <ele>981.16</ele>
        <time>2016-06-12T07:19:48Z</time>
      </trkpt>
      <trkpt lat="46.65522" lon="6.03572">
        <ele>980.2</ele>
        <time>2016-06-12T07:20:04Z</time>
      </trkpt>
      <trkpt lat="46.65526" lon="6.03559">
        <ele>980.68</ele>
        <time>2016-06-12T07:20:17Z</time>
      </trkpt>
      <trkpt lat="46.65533" lon="6.03541">
        <ele>979.72</ele>
        <time>2016-06-12T07:20:31Z</time>
      </trkpt>
      <trkpt lat="46.65531" lon="6.03523">
        <ele>981.64</ele>
        <time>2016-06-12T07:20:43Z</time>
      </trkpt>
      <trkpt lat="46.65529" lon="6.03508">
        <ele>984.53</ele>
        <time>2016-06-12T07:20:53Z</time>
      </trkpt>
      <trkpt lat="46.65528" lon="6.03492">
        <ele>982.6</ele>
        <time>2016-06-12T07:21:05Z</time>
      </trkpt>
      <trkpt lat="46.65524" lon="6.03474">
        <ele>981.16</ele>
        <time>2016-06-12T07:21:20Z</time>
      </trkpt>
      <trkpt lat="46.65523" lon="6.03473">
        <ele>981.64</ele>
        <time>2016-06-12T07:21:21Z</time>
      </trkpt>
      <trkpt lat="46.65518" lon="6.03456">
        <ele>982.12</ele>
        <time>2016-06-12T07:21:35Z</time>
      </trkpt>
      <trkpt lat="46.65512" lon="6.0344">
        <ele>982.6</ele>
        <time>2016-06-12T07:21:48Z</time>
      </trkpt>
      <trkpt lat="46.65508" lon="6.03421">
        <ele>986.45</ele>
        <time>2016-06-12T07:22:03Z</time>
      </trkpt>
      <trkpt lat="46.65504" lon="6.03406">
        <ele>989.33</ele>
        <time>2016-06-12T07:22:16Z</time>
      </trkpt>
      <trkpt lat="46.65502" lon="6.03387">
        <ele>991.74</ele>
        <time>2016-06-12T07:22:30Z</time>
      </trkpt>
      <trkpt lat="46.65498" lon="6.0337">
        <ele>992.7</ele>
        <time>2016-06-12T07:22:42Z</time>
      </trkpt>
      <trkpt lat="46.65493" lon="6.03353">
        <ele>994.14</ele>
        <time>2016-06-12T07:22:55Z</time>
      </trkpt>
      <trkpt lat="46.65488" lon="6.03337">
        <ele>996.06</ele>
        <time>2016-06-12T07:23:07Z</time>
      </trkpt>
      <trkpt lat="46.65484" lon="6.03324">
        <ele>998.47</ele>
        <time>2016-06-12T07:23:20Z</time>
      </trkpt>
      <trkpt lat="46.65479" lon="6.03308">
        <ele>1001.83</ele>
        <time>2016-06-12T07:23:33Z</time>
      </trkpt>
      <trkpt lat="46.65478" lon="6.03292">
        <ele>1002.79</ele>
        <time>2016-06-12T07:23:44Z</time>
      </trkpt>
      <trkpt lat="46.65479" lon="6.03283">
        <ele>1002.31</ele>
        <time>2016-06-12T07:23:52Z</time>
      </trkpt>
      <trkpt lat="46.6548" lon="6.03265">
        <ele>1002.79</ele>
        <time>2016-06-12T07:24:06Z</time>
      </trkpt>
      <trkpt lat="46.65478" lon="6.03248">
        <ele>1005.2</ele>
        <time>2016-06-12T07:24:18Z</time>
      </trkpt>
      <trkpt lat="46.65477" lon="6.03244">
        <ele>1005.68</ele>
        <time>2016-06-12T07:24:21Z</time>
      </trkpt>
      <trkpt lat="46.65477" lon="6.03235">
        <ele>1007.6</ele>
        <time>2016-06-12T07:24:28Z</time>
      </trkpt>
      <trkpt lat="46.65478" lon="6.03217">
        <ele>1011.93</ele>
        <time>2016-06-12T07:24:41Z</time>
      </trkpt>
      <trkpt lat="46.65479" lon="6.03212">
        <ele>1013.37</ele>
        <time>2016-06-12T07:24:44Z</time>
      </trkpt>
      <trkpt lat="46.65482" lon="6.03195">
        <ele>1014.81</ele>
        <time>2016-06-12T07:24:58Z</time>
      </trkpt>
      <trkpt lat="46.65484" lon="6.03188">
        <ele>1015.29</ele>
        <time>2016-06-12T07:25:09Z</time>
      </trkpt>
      <trkpt lat="46.65486" lon="6.03184">
        <ele>1015.77</ele>
        <time>2016-06-12T07:25:21Z</time>
      </trkpt>
      <trkpt lat="46.65489" lon="6.03183">
        <ele>1015.77</ele>
        <time>2016-06-12T07:25:24Z</time>
      </trkpt>
      <trkpt lat="46.65498" lon="6.03176">
        <ele>1014.81</ele>
        <time>2016-06-12T07:25:35Z</time>
      </trkpt>
      <trkpt lat="46.65502" lon="6.03174">
        <ele>1015.29</ele>
        <time>2016-06-12T07:25:48Z</time>
      </trkpt>
      <trkpt lat="46.65505" lon="6.03178">
        <ele>1015.29</ele>
        <time>2016-06-12T07:26:01Z</time>
      </trkpt>
      <trkpt lat="46.65507" lon="6.03181">
        <ele>1014.33</ele>
        <time>2016-06-12T07:26:14Z</time>
      </trkpt>
      <trkpt lat="46.6551" lon="6.03184">
        <ele>1014.81</ele>
        <time>2016-06-12T07:26:26Z</time>
      </trkpt>
      <trkpt lat="46.65512" lon="6.03188">
        <ele>1014.81</ele>
        <time>2016-06-12T07:26:37Z</time>
      </trkpt>
      <trkpt lat="46.65519" lon="6.03195">
        <ele>1014.33</ele>
        <time>2016-06-12T07:26:50Z</time>
      </trkpt>
      <trkpt lat="46.65526" lon="6.03203">
        <ele>1014.33</ele>
        <time>2016-06-12T07:27:04Z</time>
      </trkpt>
      <trkpt lat="46.65528" lon="6.03205">
        <ele>1015.77</ele>
        <time>2016-06-12T07:27:18Z</time>
      </trkpt>
      <trkpt lat="46.65536" lon="6.03208">
        <ele>1019.13</ele>
        <time>2016-06-12T07:27:29Z</time>
      </trkpt>
      <trkpt lat="46.65542" lon="6.03217">
        <ele>1019.62</ele>
        <time>2016-06-12T07:27:44Z</time>
      </trkpt>
      <trkpt lat="46.65542" lon="6.03219">
        <ele>1019.62</ele>
        <time>2016-06-12T07:27:59Z</time>
      </trkpt>
      <trkpt lat="46.65542" lon="6.03219">
        <ele>1020.1</ele>
        <time>2016-06-12T07:28:21Z</time>
      </trkpt>
      <trkpt lat="46.65541" lon="6.03221">
        <ele>1021.06</ele>
        <time>2016-06-12T07:28:45Z</time>
      </trkpt>
      <trkpt lat="46.6554" lon="6.03222">
        <ele>1022.02</ele>
        <time>2016-06-12T07:29:06Z</time>
      </trkpt>
      <trkpt lat="46.6554" lon="6.03223">
        <ele>1022.5</ele>
        <time>2016-06-12T07:29:29Z</time>
      </trkpt>
      <trkpt lat="46.65539" lon="6.03223">
        <ele>1022.98</ele>
        <time>2016-06-12T07:29:53Z</time>
      </trkpt>
      <trkpt lat="46.65539" lon="6.03224">
        <ele>1022.98</ele>
        <time>2016-06-12T07:30:27Z</time>
      </trkpt>
      <trkpt lat="46.6554" lon="6.03225">
        <ele>1022.5</ele>
        <time>2016-06-12T07:31:02Z</time>
      </trkpt>
      <trkpt lat="46.6554" lon="6.03226">
        <ele>1023.46</ele>
        <time>2016-06-12T07:31:25Z</time>
      </trkpt>
      <trkpt lat="46.65552" lon="6.03234">
        <ele>1024.9</ele>
        <time>2016-06-12T07:31:47Z</time>
      </trkpt>
      <trkpt lat="46.6554" lon="6.03228">
        <ele>1025.38</ele>
        <time>2016-06-12T07:32:08Z</time>
      </trkpt>
      <trkpt lat="46.65539" lon="6.03227">
        <ele>1026.34</ele>
        <time>2016-06-12T07:32:31Z</time>
      </trkpt>
      <trkpt lat="46.6554" lon="6.03226">
        <ele>1026.34</ele>
        <time>2016-06-12T07:32:53Z</time>
      </trkpt>
      <trkpt lat="46.65549" lon="6.03231">
        <ele>1025.86</ele>
        <time>2016-06-12T07:33:14Z</time>
      </trkpt>
      <trkpt lat="46.65553" lon="6.03235">
        <ele>1026.83</ele>
        <time>2016-06-12T07:33:33Z</time>
      </trkpt>
      <trkpt lat="46.65547" lon="6.03231">
        <ele>1029.23</ele>
        <time>2016-06-12T07:33:53Z</time>
      </trkpt>
      <trkpt lat="46.65541" lon="6.03226">
        <ele>1029.23</ele>
        <time>2016-06-12T07:34:16Z</time>
      </trkpt>
      <trkpt lat="46.6554" lon="6.03223">
        <ele>1030.19</ele>
        <time>2016-06-12T07:34:40Z</time>
      </trkpt>
      <trkpt lat="46.65539" lon="6.03223">
        <ele>1030.19</ele>
        <time>2016-06-12T07:35:01Z</time>
      </trkpt>
      <trkpt lat="46.65538" lon="6.03222">
        <ele>1029.71</ele>
        <time>2016-06-12T07:35:21Z</time>
      </trkpt>
      <trkpt lat="46.65538" lon="6.03221">
        <ele>1029.71</ele>
        <time>2016-06-12T07:35:47Z</time>
      </trkpt>
      <trkpt lat="46.65538" lon="6.0322">
        <ele>1030.67</ele>
        <time>2016-06-12T07:36:14Z</time>
      </trkpt>
      <trkpt lat="46.65537" lon="6.03221">
        <ele>1030.67</ele>
        <time>2016-06-12T07:36:42Z</time>
      </trkpt>
      <trkpt lat="46.65537" lon="6.03221">
        <ele>1030.67</ele>
        <time>2016-06-12T07:37:05Z</time>
      </trkpt>
      <trkpt lat="46.65538" lon="6.03221">
        <ele>1030.19</ele>
        <time>2016-06-12T07:37:28Z</time>
      </trkpt>
      <trkpt lat="46.65539" lon="6.03222">
        <ele>1030.19</ele>
        <time>2016-06-12T07:37:50Z</time>
      </trkpt>
      <trkpt lat="46.65546" lon="6.03228">
        <ele>1028.75</ele>
        <time>2016-06-12T07:38:03Z</time>
      </trkpt>
      <trkpt lat="46.65554" lon="6.03229">
        <ele>1028.27</ele>
        <time>2016-06-12T07:38:20Z</time>
      </trkpt>
      <trkpt lat="46.65559" lon="6.03222">
        <ele>1028.75</ele>
        <time>2016-06-12T07:38:35Z</time>
      </trkpt>
      <trkpt lat="46.65566" lon="6.03213">
        <ele>1028.27</ele>
        <time>2016-06-12T07:38:46Z</time>
      </trkpt>
      <trkpt lat="46.65571" lon="6.03203">
        <ele>1024.9</ele>
        <time>2016-06-12T07:38:56Z</time>
      </trkpt>
      <trkpt lat="46.65579" lon="6.03208">
        <ele>1022.5</ele>
        <time>2016-06-12T07:39:08Z</time>
      </trkpt>
      <trkpt lat="46.65587" lon="6.0322">
        <ele>1022.02</ele>
        <time>2016-06-12T07:39:22Z</time>
      </trkpt>
      <trkpt lat="46.65588" lon="6.0322">
        <ele>1022.5</ele>
        <time>2016-06-12T07:39:23Z</time>
      </trkpt>
      <trkpt lat="46.65596" lon="6.03226">
        <ele>1023.94</ele>
        <time>2016-06-12T07:39:33Z</time>
      </trkpt>
      <trkpt lat="46.656" lon="6.03236">
        <ele>1025.38</ele>
        <time>2016-06-12T07:39:45Z</time>
      </trkpt>
      <trkpt lat="46.65603" lon="6.0324">
        <ele>1026.34</ele>
        <time>2016-06-12T07:39:55Z</time>
      </trkpt>
      <trkpt lat="46.65607" lon="6.0325">
        <ele>1029.71</ele>
        <time>2016-06-12T07:40:08Z</time>
      </trkpt>
      <trkpt lat="46.65616" lon="6.03264">
        <ele>1035</ele>
        <time>2016-06-12T07:40:22Z</time>
      </trkpt>
      <trkpt lat="46.65622" lon="6.03271">
        <ele>1039.8</ele>
        <time>2016-06-12T07:40:36Z</time>
      </trkpt>
      <trkpt lat="46.6563" lon="6.0328">
        <ele>1041.73</ele>
        <time>2016-06-12T07:40:49Z</time>
      </trkpt>
      <trkpt lat="46.65635" lon="6.03292">
        <ele>1039.8</ele>
        <time>2016-06-12T07:41:02Z</time>
      </trkpt>
      <trkpt lat="46.65637" lon="6.03304">
        <ele>1040.28</ele>
        <time>2016-06-12T07:41:13Z</time>
      </trkpt>
      <trkpt lat="46.65644" lon="6.03315">
        <ele>1039.32</ele>
        <time>2016-06-12T07:41:24Z</time>
      </trkpt>
      <trkpt lat="46.65647" lon="6.03324">
        <ele>1036.92</ele>
        <time>2016-06-12T07:41:33Z</time>
      </trkpt>
      <trkpt lat="46.65655" lon="6.03337">
        <ele>1035.96</ele>
        <time>2016-06-12T07:41:44Z</time>
      </trkpt>
      <trkpt lat="46.65659" lon="6.03348">
        <ele>1031.63</ele>
        <time>2016-06-12T07:41:58Z</time>
      </trkpt>
      <trkpt lat="46.65664" lon="6.03359">
        <ele>1030.67</ele>
        <time>2016-06-12T07:42:09Z</time>
      </trkpt>
      <trkpt lat="46.65673" lon="6.03379">
        <ele>1031.63</ele>
        <time>2016-06-12T07:42:23Z</time>
      </trkpt>
      <trkpt lat="46.65675" lon="6.03386">
        <ele>1033.07</ele>
        <time>2016-06-12T07:42:32Z</time>
      </trkpt>
      <trkpt lat="46.65685" lon="6.03407">
        <ele>1035.48</ele>
        <time>2016-06-12T07:42:45Z</time>
      </trkpt>
      <trkpt lat="46.65693" lon="6.03418">
        <ele>1038.84</ele>
        <time>2016-06-12T07:42:57Z</time>
      </trkpt>
      <trkpt lat="46.65703" lon="6.03432">
        <ele>1039.8</ele>
        <time>2016-06-12T07:43:09Z</time>
      </trkpt>
      <trkpt lat="46.65713" lon="6.03447">
        <ele>1041.25</ele>
        <time>2016-06-12T07:43:22Z</time>
      </trkpt>
      <trkpt lat="46.65717" lon="6.03452">
        <ele>1038.84</ele>
        <time>2016-06-12T07:43:35Z</time>
      </trkpt>
      <trkpt lat="46.65729" lon="6.03464">
        <ele>1037.4</ele>
        <time>2016-06-12T07:43:48Z</time>
      </trkpt>
      <trkpt lat="46.65737" lon="6.03475">
        <ele>1035</ele>
        <time>2016-06-12T07:44:00Z</time>
      </trkpt>
      <trkpt lat="46.65741" lon="6.03485">
        <ele>1035.48</ele>
        <time>2016-06-12T07:44:14Z</time>
      </trkpt>
      <trkpt lat="46.65747" lon="6.03489">
        <ele>1034.52</ele>
        <time>2016-06-12T07:44:29Z</time>
      </trkpt>
      <trkpt lat="46.65752" lon="6.0349">
        <ele>1034.04</ele>
        <time>2016-06-12T07:44:41Z</time>
      </trkpt>
      <trkpt lat="46.65759" lon="6.03496">
        <ele>1035</ele>
        <time>2016-06-12T07:44:57Z</time>
      </trkpt>
      <trkpt lat="46.65763" lon="6.035">
        <ele>1035.48</ele>
        <time>2016-06-12T07:45:11Z</time>
      </trkpt>
      <trkpt lat="46.65765" lon="6.03503">
        <ele>1035.96</ele>
        <time>2016-06-12T07:45:25Z</time>
      </trkpt>
      <trkpt lat="46.65773" lon="6.03511">
        <ele>1038.84</ele>
        <time>2016-06-12T07:45:39Z</time>
      </trkpt>
      <trkpt lat="46.65783" lon="6.03524">
        <ele>1041.73</ele>
        <time>2016-06-12T07:45:52Z</time>
      </trkpt>
      <trkpt lat="46.65789" lon="6.03537">
        <ele>1042.69</ele>
        <time>2016-06-12T07:46:05Z</time>
      </trkpt>
      <trkpt lat="46.65794" lon="6.03547">
        <ele>1044.13</ele>
        <time>2016-06-12T07:46:18Z</time>
      </trkpt>
      <trkpt lat="46.65796" lon="6.03555">
        <ele>1044.61</ele>
        <time>2016-06-12T07:46:34Z</time>
      </trkpt>
      <trkpt lat="46.65803" lon="6.03569">
        <ele>1046.05</ele>
        <time>2016-06-12T07:46:49Z</time>
      </trkpt>
      <trkpt lat="46.65809" lon="6.03584">
        <ele>1051.82</ele>
        <time>2016-06-12T07:47:04Z</time>
      </trkpt>
      <trkpt lat="46.65809" lon="6.03584">
        <ele>1052.3</ele>
        <time>2016-06-12T07:47:05Z</time>
      </trkpt>
      <trkpt lat="46.6581" lon="6.03598">
        <ele>1049.42</ele>
        <time>2016-06-12T07:47:18Z</time>
      </trkpt>
      <trkpt lat="46.65806" lon="6.03608">
        <ele>1048.94</ele>
        <time>2016-06-12T07:47:31Z</time>
      </trkpt>
      <trkpt lat="46.658" lon="6.03616">
        <ele>1050.38</ele>
        <time>2016-06-12T07:47:47Z</time>
      </trkpt>
      <trkpt lat="46.65793" lon="6.03623">
        <ele>1049.9</ele>
        <time>2016-06-12T07:47:58Z</time>
      </trkpt>
      <trkpt lat="46.65794" lon="6.03633">
        <ele>1046.05</ele>
        <time>2016-06-12T07:48:10Z</time>
      </trkpt>
      <trkpt lat="46.658" lon="6.03643">
        <ele>1040.28</ele>
        <time>2016-06-12T07:48:24Z</time>
      </trkpt>
      <trkpt lat="46.65804" lon="6.03649">
        <ele>1038.36</ele>
        <time>2016-06-12T07:48:39Z</time>
      </trkpt>
      <trkpt lat="46.65808" lon="6.03654">
        <ele>1038.84</ele>
        <time>2016-06-12T07:48:53Z</time>
      </trkpt>
      <trkpt lat="46.65813" lon="6.03663">
        <ele>1038.84</ele>
        <time>2016-06-12T07:49:08Z</time>
      </trkpt>
      <trkpt lat="46.65816" lon="6.03674">
        <ele>1039.32</ele>
        <time>2016-06-12T07:49:23Z</time>
      </trkpt>
      <trkpt lat="46.65818" lon="6.03694">
        <ele>1041.25</ele>
        <time>2016-06-12T07:49:35Z</time>
      </trkpt>
      <trkpt lat="46.65818" lon="6.03698">
        <ele>1041.25</ele>
        <time>2016-06-12T07:49:38Z</time>
      </trkpt>
      <trkpt lat="46.65824" lon="6.03703">
        <ele>1041.25</ele>
        <time>2016-06-12T07:49:46Z</time>
      </trkpt>
      <trkpt lat="46.65832" lon="6.03722">
        <ele>1043.65</ele>
        <time>2016-06-12T07:50:00Z</time>
      </trkpt>
      <trkpt lat="46.65838" lon="6.03732">
        <ele>1043.65</ele>
        <time>2016-06-12T07:50:11Z</time>
      </trkpt>
      <trkpt lat="46.65847" lon="6.03755">
        <ele>1047.49</ele>
        <time>2016-06-12T07:50:26Z</time>
      </trkpt>
      <trkpt lat="46.6585" lon="6.03767">
        <ele>1049.9</ele>
        <time>2016-06-12T07:50:38Z</time>
      </trkpt>
      <trkpt lat="46.65853" lon="6.03776">
        <ele>1051.34</ele>
        <time>2016-06-12T07:50:51Z</time>
      </trkpt>
      <trkpt lat="46.65856" lon="6.03783">
        <ele>1050.86</ele>
        <time>2016-06-12T07:51:05Z</time>
      </trkpt>
      <trkpt lat="46.65861" lon="6.03792">
        <ele>1052.78</ele>
        <time>2016-06-12T07:51:18Z</time>
      </trkpt>
      <trkpt lat="46.65865" lon="6.03801">
        <ele>1055.18</ele>
        <time>2016-06-12T07:51:31Z</time>
      </trkpt>
      <trkpt lat="46.6587" lon="6.03814">
        <ele>1058.55</ele>
        <time>2016-06-12T07:51:47Z</time>
      </trkpt>
      <trkpt lat="46.6587" lon="6.03819">
        <ele>1057.59</ele>
        <time>2016-06-12T07:51:59Z</time>
      </trkpt>
      <trkpt lat="46.65872" lon="6.03821">
        <ele>1057.11</ele>
        <time>2016-06-12T07:52:14Z</time>
      </trkpt>
      <trkpt lat="46.65876" lon="6.03828">
        <ele>1058.55</ele>
        <time>2016-06-12T07:52:34Z</time>
      </trkpt>
      <trkpt lat="46.65877" lon="6.03834">
        <ele>1058.07</ele>
        <time>2016-06-12T07:52:52Z</time>
      </trkpt>
      <trkpt lat="46.65882" lon="6.03836">
        <ele>1059.51</ele>
        <time>2016-06-12T07:53:07Z</time>
      </trkpt>
      <trkpt lat="46.65889" lon="6.03836">
        <ele>1060.47</ele>
        <time>2016-06-12T07:53:24Z</time>
      </trkpt>
      <trkpt lat="46.65898" lon="6.03837">
        <ele>1064.8</ele>
        <time>2016-06-12T07:53:36Z</time>
      </trkpt>
      <trkpt lat="46.65907" lon="6.03845">
        <ele>1065.76</ele>
        <time>2016-06-12T07:53:53Z</time>
      </trkpt>
      <trkpt lat="46.65914" lon="6.0385">
        <ele>1067.68</ele>
        <time>2016-06-12T07:54:04Z</time>
      </trkpt>
      <trkpt lat="46.65924" lon="6.03859">
        <ele>1067.68</ele>
        <time>2016-06-12T07:54:20Z</time>
      </trkpt>
      <trkpt lat="46.65932" lon="6.03868">
        <ele>1070.08</ele>
        <time>2016-06-12T07:54:33Z</time>
      </trkpt>
      <trkpt lat="46.65942" lon="6.03883">
        <ele>1072.49</ele>
        <time>2016-06-12T07:54:48Z</time>
      </trkpt>
      <trkpt lat="46.65947" lon="6.03894">
        <ele>1070.57</ele>
        <time>2016-06-12T07:54:59Z</time>
      </trkpt>
      <trkpt lat="46.65956" lon="6.03909">
        <ele>1065.76</ele>
        <time>2016-06-12T07:55:15Z</time>
      </trkpt>
      <trkpt lat="46.65963" lon="6.03926">
        <ele>1069.12</ele>
        <time>2016-06-12T07:55:27Z</time>
      </trkpt>
      <trkpt lat="46.65967" lon="6.03935">
        <ele>1070.08</ele>
        <time>2016-06-12T07:55:36Z</time>
      </trkpt>
      <trkpt lat="46.65971" lon="6.0395">
        <ele>1065.76</ele>
        <time>2016-06-12T07:55:50Z</time>
      </trkpt>
      <trkpt lat="46.65975" lon="6.03966">
        <ele>1064.32</ele>
        <time>2016-06-12T07:56:01Z</time>
      </trkpt>
      <trkpt lat="46.65979" lon="6.03981">
        <ele>1063.84</ele>
        <time>2016-06-12T07:56:12Z</time>
      </trkpt>
      <trkpt lat="46.65985" lon="6.04">
        <ele>1067.68</ele>
        <time>2016-06-12T07:56:27Z</time>
      </trkpt>
      <trkpt lat="46.65989" lon="6.04008">
        <ele>1070.08</ele>
        <time>2016-06-12T07:56:38Z</time>
      </trkpt>
      <trkpt lat="46.65996" lon="6.04023">
        <ele>1074.89</ele>
        <time>2016-06-12T07:56:52Z</time>
      </trkpt>
      <trkpt lat="46.65997" lon="6.04041">
        <ele>1078.26</ele>
        <time>2016-06-12T07:57:06Z</time>
      </trkpt>
      <trkpt lat="46.65998" lon="6.04044">
        <ele>1078.26</ele>
        <time>2016-06-12T07:57:10Z</time>
      </trkpt>
      <trkpt lat="46.66008" lon="6.0406">
        <ele>1081.14</ele>
        <time>2016-06-12T07:57:24Z</time>
      </trkpt>
      <trkpt lat="46.66014" lon="6.04076">
        <ele>1079.7</ele>
        <time>2016-06-12T07:57:38Z</time>
      </trkpt>
      <trkpt lat="46.66015" lon="6.0409">
        <ele>1076.33</ele>
        <time>2016-06-12T07:57:49Z</time>
      </trkpt>
      <trkpt lat="46.66018" lon="6.04104">
        <ele>1072.49</ele>
        <time>2016-06-12T07:57:59Z</time>
      </trkpt>
      <trkpt lat="46.66022" lon="6.04118">
        <ele>1069.12</ele>
        <time>2016-06-12T07:58:11Z</time>
      </trkpt>
      <trkpt lat="46.66027" lon="6.04131">
        <ele>1068.16</ele>
        <time>2016-06-12T07:58:20Z</time>
      </trkpt>
      <trkpt lat="46.66035" lon="6.04144">
        <ele>1068.16</ele>
        <time>2016-06-12T07:58:32Z</time>
      </trkpt>
      <trkpt lat="46.66035" lon="6.04146">
        <ele>1068.64</ele>
        <time>2016-06-12T07:58:33Z</time>
      </trkpt>
      <trkpt lat="46.66043" lon="6.04163">
        <ele>1070.08</ele>
        <time>2016-06-12T07:58:47Z</time>
      </trkpt>
      <trkpt lat="46.66047" lon="6.0418">
        <ele>1068.16</ele>
        <time>2016-06-12T07:58:59Z</time>
      </trkpt>
      <trkpt lat="46.66052" lon="6.04198">
        <ele>1067.2</ele>
        <time>2016-06-12T07:59:10Z</time>
      </trkpt>
      <trkpt lat="46.66057" lon="6.04212">
        <ele>1064.32</ele>
        <time>2016-06-12T07:59:22Z</time>
      </trkpt>
      <trkpt lat="46.6606" lon="6.04217">
        <ele>1065.76</ele>
        <time>2016-06-12T07:59:26Z</time>
      </trkpt>
      <trkpt lat="46.66065" lon="6.04225">
        <ele>1069.12</ele>
        <time>2016-06-12T07:59:32Z</time>
      </trkpt>
      <trkpt lat="46.66067" lon="6.04229">
        <ele>1069.6</ele>
        <time>2016-06-12T07:59:45Z</time>
      </trkpt>
      <trkpt lat="46.66067" lon="6.0423">
        <ele>1070.08</ele>
        <time>2016-06-12T08:00:03Z</time>
      </trkpt>
      <trkpt lat="46.66066" lon="6.04231">
        <ele>1070.57</ele>
        <time>2016-06-12T08:00:16Z</time>
      </trkpt>
      <trkpt lat="46.66066" lon="6.04231">
        <ele>1071.05</ele>
        <time>2016-06-12T08:00:32Z</time>
      </trkpt>
      <trkpt lat="46.66069" lon="6.04238">
        <ele>1074.41</ele>
        <time>2016-06-12T08:00:48Z</time>
      </trkpt>
      <trkpt lat="46.66075" lon="6.04252">
        <ele>1076.81</ele>
        <time>2016-06-12T08:01:00Z</time>
      </trkpt>
      <trkpt lat="46.6608" lon="6.04266">
        <ele>1077.78</ele>
        <time>2016-06-12T08:01:11Z</time>
      </trkpt>
      <trkpt lat="46.66083" lon="6.04284">
        <ele>1075.85</ele>
        <time>2016-06-12T08:01:24Z</time>
      </trkpt>
      <trkpt lat="46.66083" lon="6.04286">
        <ele>1075.37</ele>
        <time>2016-06-12T08:01:26Z</time>
      </trkpt>
      <trkpt lat="46.66085" lon="6.04302">
        <ele>1072.97</ele>
        <time>2016-06-12T08:01:39Z</time>
      </trkpt>
      <trkpt lat="46.66092" lon="6.04313">
        <ele>1069.6</ele>
        <time>2016-06-12T08:01:50Z</time>
      </trkpt>
      <trkpt lat="46.66097" lon="6.04323">
        <ele>1063.36</ele>
        <time>2016-06-12T08:02:01Z</time>
      </trkpt>
      <trkpt lat="46.66101" lon="6.04338">
        <ele>1058.55</ele>
        <time>2016-06-12T08:02:12Z</time>
      </trkpt>
      <trkpt lat="46.66108" lon="6.04357">
        <ele>1054.7</ele>
        <time>2016-06-12T08:02:24Z</time>
      </trkpt>
      <trkpt lat="46.66114" lon="6.04376">
        <ele>1052.78</ele>
        <time>2016-06-12T08:02:38Z</time>
      </trkpt>
      <trkpt lat="46.66123" lon="6.04397">
        <ele>1049.42</ele>
        <time>2016-06-12T08:02:54Z</time>
      </trkpt>
      <trkpt lat="46.66126" lon="6.04403">
        <ele>1049.42</ele>
        <time>2016-06-12T08:03:00Z</time>
      </trkpt>
      <trkpt lat="46.66134" lon="6.04425">
        <ele>1053.74</ele>
        <time>2016-06-12T08:03:12Z</time>
      </trkpt>
      <trkpt lat="46.66134" lon="6.04427">
        <ele>1054.7</ele>
        <time>2016-06-12T08:03:13Z</time>
      </trkpt>
      <trkpt lat="46.66141" lon="6.04455">
        <ele>1058.07</ele>
        <time>2016-06-12T08:03:29Z</time>
      </trkpt>
      <trkpt lat="46.66148" lon="6.04478">
        <ele>1064.8</ele>
        <time>2016-06-12T08:03:44Z</time>
      </trkpt>
      <trkpt lat="46.66152" lon="6.04492">
        <ele>1064.32</ele>
        <time>2016-06-12T08:03:58Z</time>
      </trkpt>
      <trkpt lat="46.66154" lon="6.04498">
        <ele>1063.84</ele>
        <time>2016-06-12T08:04:12Z</time>
      </trkpt>
      <trkpt lat="46.6616" lon="6.04496">
        <ele>1066.24</ele>
        <time>2016-06-12T08:04:24Z</time>
      </trkpt>
      <trkpt lat="46.66166" lon="6.04498">
        <ele>1068.16</ele>
        <time>2016-06-12T08:04:34Z</time>
      </trkpt>
      <trkpt lat="46.66169" lon="6.04496">
        <ele>1069.12</ele>
        <time>2016-06-12T08:04:43Z</time>
      </trkpt>
      <trkpt lat="46.66176" lon="6.04487">
        <ele>1071.05</ele>
        <time>2016-06-12T08:04:56Z</time>
      </trkpt>
      <trkpt lat="46.66184" lon="6.04477">
        <ele>1071.05</ele>
        <time>2016-06-12T08:05:10Z</time>
      </trkpt>
      <trkpt lat="46.6619" lon="6.04467">
        <ele>1068.64</ele>
        <time>2016-06-12T08:05:22Z</time>
      </trkpt>
      <trkpt lat="46.66194" lon="6.0446">
        <ele>1067.2</ele>
        <time>2016-06-12T08:05:33Z</time>
      </trkpt>
      <trkpt lat="46.662" lon="6.04459">
        <ele>1064.32</ele>
        <time>2016-06-12T08:05:46Z</time>
      </trkpt>
      <trkpt lat="46.66206" lon="6.04458">
        <ele>1063.36</ele>
        <time>2016-06-12T08:05:58Z</time>
      </trkpt>
      <trkpt lat="46.66213" lon="6.04454">
        <ele>1062.87</ele>
        <time>2016-06-12T08:06:14Z</time>
      </trkpt>
      <trkpt lat="46.66217" lon="6.0445">
        <ele>1064.32</ele>
        <time>2016-06-12T08:06:24Z</time>
      </trkpt>
      <trkpt lat="46.66225" lon="6.04448">
        <ele>1067.2</ele>
        <time>2016-06-12T08:06:44Z</time>
      </trkpt>
      <trkpt lat="46.66232" lon="6.04458">
        <ele>1068.16</ele>
        <time>2016-06-12T08:06:59Z</time>
      </trkpt>
      <trkpt lat="46.66241" lon="6.04464">
        <ele>1066.24</ele>
        <time>2016-06-12T08:07:10Z</time>
      </trkpt>
      <trkpt lat="46.66244" lon="6.0447">
        <ele>1063.84</ele>
        <time>2016-06-12T08:07:22Z</time>
      </trkpt>
      <trkpt lat="46.66248" lon="6.04488">
        <ele>1060.95</ele>
        <time>2016-06-12T08:07:35Z</time>
      </trkpt>
      <trkpt lat="46.66248" lon="6.04494">
        <ele>1059.99</ele>
        <time>2016-06-12T08:07:48Z</time>
      </trkpt>
      <trkpt lat="46.66251" lon="6.04512">
        <ele>1059.99</ele>
        <time>2016-06-12T08:08:02Z</time>
      </trkpt>
      <trkpt lat="46.66259" lon="6.04529">
        <ele>1058.55</ele>
        <time>2016-06-12T08:08:16Z</time>
      </trkpt>
      <trkpt lat="46.66269" lon="6.04548">
        <ele>1058.07</ele>
        <time>2016-06-12T08:08:29Z</time>
      </trkpt>
      <trkpt lat="46.66275" lon="6.04571">
        <ele>1056.15</ele>
        <time>2016-06-12T08:08:42Z</time>
      </trkpt>
      <trkpt lat="46.66282" lon="6.04586">
        <ele>1057.11</ele>
        <time>2016-06-12T08:08:54Z</time>
      </trkpt>
      <trkpt lat="46.66289" lon="6.04603">
        <ele>1059.51</ele>
        <time>2016-06-12T08:09:08Z</time>
      </trkpt>
      <trkpt lat="46.66292" lon="6.04619">
        <ele>1059.03</ele>
        <time>2016-06-12T08:09:20Z</time>
      </trkpt>
      <trkpt lat="46.66297" lon="6.04634">
        <ele>1056.63</ele>
        <time>2016-06-12T08:09:32Z</time>
      </trkpt>
      <trkpt lat="46.66303" lon="6.04657">
        <ele>1052.3</ele>
        <time>2016-06-12T08:09:45Z</time>
      </trkpt>
      <trkpt lat="46.66311" lon="6.04674">
        <ele>1051.82</ele>
        <time>2016-06-12T08:09:54Z</time>
      </trkpt>
      <trkpt lat="46.66323" lon="6.04693">
        <ele>1056.15</ele>
        <time>2016-06-12T08:10:10Z</time>
      </trkpt>
      <trkpt lat="46.66331" lon="6.04712">
        <ele>1058.07</ele>
        <time>2016-06-12T08:10:22Z</time>
      </trkpt>
      <trkpt lat="46.66337" lon="6.0473">
        <ele>1059.51</ele>
        <time>2016-06-12T08:10:34Z</time>
      </trkpt>
      <trkpt lat="46.66342" lon="6.04749">
        <ele>1061.91</ele>
        <time>2016-06-12T08:10:44Z</time>
      </trkpt>
      <trkpt lat="46.66346" lon="6.04769">
        <ele>1057.59</ele>
        <time>2016-06-12T08:10:58Z</time>
      </trkpt>
      <trkpt lat="46.66348" lon="6.04786">
        <ele>1053.26</ele>
        <time>2016-06-12T08:11:09Z</time>
      </trkpt>
      <trkpt lat="46.66355" lon="6.048">
        <ele>1052.3</ele>
        <time>2016-06-12T08:11:18Z</time>
      </trkpt>
      <trkpt lat="46.66364" lon="6.04819">
        <ele>1050.38</ele>
        <time>2016-06-12T08:11:32Z</time>
      </trkpt>
      <trkpt lat="46.66374" lon="6.04837">
        <ele>1051.82</ele>
        <time>2016-06-12T08:11:46Z</time>
      </trkpt>
      <trkpt lat="46.66374" lon="6.04856">
        <ele>1049.42</ele>
        <time>2016-06-12T08:11:58Z</time>
      </trkpt>
      <trkpt lat="46.66379" lon="6.04878">
        <ele>1049.9</ele>
        <time>2016-06-12T08:12:12Z</time>
      </trkpt>
      <trkpt lat="46.66376" lon="6.04899">
        <ele>1050.86</ele>
        <time>2016-06-12T08:12:25Z</time>
      </trkpt>
      <trkpt lat="46.66372" lon="6.04922">
        <ele>1051.82</ele>
        <time>2016-06-12T08:12:39Z</time>
      </trkpt>
      <trkpt lat="46.66375" lon="6.04939">
        <ele>1050.38</ele>
        <time>2016-06-12T08:12:52Z</time>
      </trkpt>
      <trkpt lat="46.66382" lon="6.04956">
        <ele>1048.94</ele>
        <time>2016-06-12T08:13:05Z</time>
      </trkpt>
      <trkpt lat="46.66388" lon="6.04971">
        <ele>1047.49</ele>
        <time>2016-06-12T08:13:16Z</time>
      </trkpt>
      <trkpt lat="46.6639" lon="6.04976">
        <ele>1047.97</ele>
        <time>2016-06-12T08:13:19Z</time>
      </trkpt>
      <trkpt lat="46.66396" lon="6.04995">
        <ele>1051.34</ele>
        <time>2016-06-12T08:13:31Z</time>
      </trkpt>
      <trkpt lat="46.66402" lon="6.05014">
        <ele>1053.26</ele>
        <time>2016-06-12T08:13:42Z</time>
      </trkpt>
      <trkpt lat="46.66403" lon="6.05017">
        <ele>1053.26</ele>
        <time>2016-06-12T08:13:44Z</time>
      </trkpt>
      <trkpt lat="46.66404" lon="6.05029">
        <ele>1052.78</ele>
        <time>2016-06-12T08:13:51Z</time>
      </trkpt>
      <trkpt lat="46.66409" lon="6.05043">
        <ele>1056.63</ele>
        <time>2016-06-12T08:14:04Z</time>
      </trkpt>
      <trkpt lat="46.66416" lon="6.05059">
        <ele>1058.55</ele>
        <time>2016-06-12T08:14:15Z</time>
      </trkpt>
      <trkpt lat="46.66417" lon="6.05063">
        <ele>1059.51</ele>
        <time>2016-06-12T08:14:17Z</time>
      </trkpt>
      <trkpt lat="46.66426" lon="6.05085">
        <ele>1064.32</ele>
        <time>2016-06-12T08:14:32Z</time>
      </trkpt>
      <trkpt lat="46.66428" lon="6.05099">
        <ele>1061.91</ele>
        <time>2016-06-12T08:14:46Z</time>
      </trkpt>
      <trkpt lat="46.66427" lon="6.05111">
        <ele>1059.51</ele>
        <time>2016-06-12T08:15:01Z</time>
      </trkpt>
      <trkpt lat="46.66427" lon="6.05117">
        <ele>1057.11</ele>
        <time>2016-06-12T08:15:20Z</time>
      </trkpt>
      <trkpt lat="46.66424" lon="6.05122">
        <ele>1058.55</ele>
        <time>2016-06-12T08:15:36Z</time>
      </trkpt>
      <trkpt lat="46.66423" lon="6.05122">
        <ele>1058.55</ele>
        <time>2016-06-12T08:15:37Z</time>
      </trkpt>
      <trkpt lat="46.66415" lon="6.05128">
        <ele>1059.51</ele>
        <time>2016-06-12T08:15:43Z</time>
      </trkpt>
      <trkpt lat="46.66413" lon="6.0513">
        <ele>1059.99</ele>
        <time>2016-06-12T08:15:45Z</time>
      </trkpt>
      <trkpt lat="46.66399" lon="6.05139">
        <ele>1060.47</ele>
        <time>2016-06-12T08:15:57Z</time>
      </trkpt>
      <trkpt lat="46.66396" lon="6.0514">
        <ele>1059.99</ele>
        <time>2016-06-12T08:16:00Z</time>
      </trkpt>
      <trkpt lat="46.66387" lon="6.05143">
        <ele>1059.03</ele>
        <time>2016-06-12T08:16:07Z</time>
      </trkpt>
      <trkpt lat="46.66377" lon="6.0515">
        <ele>1056.15</ele>
        <time>2016-06-12T08:16:18Z</time>
      </trkpt>
      <trkpt lat="46.66363" lon="6.05152">
        <ele>1053.74</ele>
        <time>2016-06-12T08:16:33Z</time>
      </trkpt>
      <trkpt lat="46.66355" lon="6.05157">
        <ele>1050.86</ele>
        <time>2016-06-12T08:16:46Z</time>
      </trkpt>
      <trkpt lat="46.66355" lon="6.05161">
        <ele>1049.9</ele>
        <time>2016-06-12T08:16:58Z</time>
      </trkpt>
      <trkpt lat="46.66363" lon="6.05172">
        <ele>1047.97</ele>
        <time>2016-06-12T08:17:10Z</time>
      </trkpt>
      <trkpt lat="46.66367" lon="6.05181">
        <ele>1048.45</ele>
        <time>2016-06-12T08:17:23Z</time>
      </trkpt>
      <trkpt lat="46.66368" lon="6.05203">
        <ele>1048.45</ele>
        <time>2016-06-12T08:17:37Z</time>
      </trkpt>
      <trkpt lat="46.66368" lon="6.05219">
        <ele>1048.45</ele>
        <time>2016-06-12T08:17:48Z</time>
      </trkpt>
      <trkpt lat="46.66373" lon="6.0524">
        <ele>1048.94</ele>
        <time>2016-06-12T08:18:00Z</time>
      </trkpt>
      <trkpt lat="46.66371" lon="6.05256">
        <ele>1049.42</ele>
        <time>2016-06-12T08:18:11Z</time>
      </trkpt>
      <trkpt lat="46.66363" lon="6.05277">
        <ele>1047.97</ele>
        <time>2016-06-12T08:18:23Z</time>
      </trkpt>
      <trkpt lat="46.66362" lon="6.05281">
        <ele>1047.01</ele>
        <time>2016-06-12T08:18:26Z</time>
      </trkpt>
      <trkpt lat="46.6636" lon="6.05297">
        <ele>1040.76</ele>
        <time>2016-06-12T08:18:37Z</time>
      </trkpt>
      <trkpt lat="46.66361" lon="6.05296">
        <ele>1044.13</ele>
        <time>2016-06-12T08:18:53Z</time>
      </trkpt>
      <trkpt lat="46.66361" lon="6.05297">
        <ele>1044.13</ele>
        <time>2016-06-12T08:18:57Z</time>
      </trkpt>
      <trkpt lat="46.66364" lon="6.05302">
        <ele>1046.05</ele>
        <time>2016-06-12T08:19:12Z</time>
      </trkpt>
      <trkpt lat="46.66368" lon="6.05313">
        <ele>1043.65</ele>
        <time>2016-06-12T08:19:25Z</time>
      </trkpt>
      <trkpt lat="46.66371" lon="6.0532">
        <ele>1042.21</ele>
        <time>2016-06-12T08:19:37Z</time>
      </trkpt>
      <trkpt lat="46.66374" lon="6.05329">
        <ele>1041.73</ele>
        <time>2016-06-12T08:19:45Z</time>
      </trkpt>
      <trkpt lat="46.66379" lon="6.05348">
        <ele>1041.25</ele>
        <time>2016-06-12T08:19:58Z</time>
      </trkpt>
      <trkpt lat="46.6638" lon="6.05369">
        <ele>1043.17</ele>
        <time>2016-06-12T08:20:10Z</time>
      </trkpt>
      <trkpt lat="46.66378" lon="6.05381">
        <ele>1042.69</ele>
        <time>2016-06-12T08:20:19Z</time>
      </trkpt>
      <trkpt lat="46.66374" lon="6.05389">
        <ele>1042.21</ele>
        <time>2016-06-12T08:20:24Z</time>
      </trkpt>
      <trkpt lat="46.66372" lon="6.05402">
        <ele>1042.69</ele>
        <time>2016-06-12T08:20:31Z</time>
      </trkpt>
      <trkpt lat="46.66371" lon="6.0542">
        <ele>1044.13</ele>
        <time>2016-06-12T08:20:41Z</time>
      </trkpt>
      <trkpt lat="46.66379" lon="6.05436">
        <ele>1038.84</ele>
        <time>2016-06-12T08:20:55Z</time>
      </trkpt>
      <trkpt lat="46.66388" lon="6.05451">
        <ele>1034.04</ele>
        <time>2016-06-12T08:21:08Z</time>
      </trkpt>
      <trkpt lat="46.66393" lon="6.05467">
        <ele>1029.71</ele>
        <time>2016-06-12T08:21:20Z</time>
      </trkpt>
      <trkpt lat="46.66395" lon="6.05469">
        <ele>1028.75</ele>
        <time>2016-06-12T08:21:22Z</time>
      </trkpt>
      <trkpt lat="46.664" lon="6.05485">
        <ele>1026.83</ele>
        <time>2016-06-12T08:21:33Z</time>
      </trkpt>
      <trkpt lat="46.664" lon="6.055">
        <ele>1026.34</ele>
        <time>2016-06-12T08:21:43Z</time>
      </trkpt>
      <trkpt lat="46.66399" lon="6.05504">
        <ele>1026.83</ele>
        <time>2016-06-12T08:21:45Z</time>
      </trkpt>
      <trkpt lat="46.66395" lon="6.05519">
        <ele>1027.31</ele>
        <time>2016-06-12T08:21:56Z</time>
      </trkpt>
      <trkpt lat="46.66392" lon="6.05537">
        <ele>1032.11</ele>
        <time>2016-06-12T08:22:06Z</time>
      </trkpt>
      <trkpt lat="46.6639" lon="6.05559">
        <ele>1035.48</ele>
        <time>2016-06-12T08:22:19Z</time>
      </trkpt>
      <trkpt lat="46.66391" lon="6.05564">
        <ele>1035.96</ele>
        <time>2016-06-12T08:22:22Z</time>
      </trkpt>
      <trkpt lat="46.66394" lon="6.05581">
        <ele>1038.36</ele>
        <time>2016-06-12T08:22:32Z</time>
      </trkpt>
      <trkpt lat="46.66398" lon="6.05599">
        <ele>1041.25</ele>
        <time>2016-06-12T08:22:43Z</time>
      </trkpt>
      <trkpt lat="46.66399" lon="6.05605">
        <ele>1041.73</ele>
        <time>2016-06-12T08:22:47Z</time>
      </trkpt>
      <trkpt lat="46.66401" lon="6.0561">
        <ele>1042.69</ele>
        <time>2016-06-12T08:22:50Z</time>
      </trkpt>
      <trkpt lat="46.66401" lon="6.05614">
        <ele>1043.17</ele>
        <time>2016-06-12T08:22:52Z</time>
      </trkpt>
      <trkpt lat="46.66403" lon="6.0562">
        <ele>1043.65</ele>
        <time>2016-06-12T08:22:56Z</time>
      </trkpt>
      <trkpt lat="46.6641" lon="6.05633">
        <ele>1041.25</ele>
        <time>2016-06-12T08:23:09Z</time>
      </trkpt>
      <trkpt lat="46.66416" lon="6.05652">
        <ele>1040.28</ele>
        <time>2016-06-12T08:23:23Z</time>
      </trkpt>
      <trkpt lat="46.66418" lon="6.05658">
        <ele>1039.32</ele>
        <time>2016-06-12T08:23:28Z</time>
      </trkpt>
      <trkpt lat="46.66424" lon="6.05676">
        <ele>1038.84</ele>
        <time>2016-06-12T08:23:41Z</time>
      </trkpt>
      <trkpt lat="46.66429" lon="6.0569">
        <ele>1038.84</ele>
        <time>2016-06-12T08:23:53Z</time>
      </trkpt>
      <trkpt lat="46.66436" lon="6.05707">
        <ele>1042.69</ele>
        <time>2016-06-12T08:24:04Z</time>
      </trkpt>
      <trkpt lat="46.66437" lon="6.05713">
        <ele>1043.65</ele>
        <time>2016-06-12T08:24:07Z</time>
      </trkpt>
      <trkpt lat="46.6644" lon="6.0572">
        <ele>1045.09</ele>
        <time>2016-06-12T08:24:12Z</time>
      </trkpt>
      <trkpt lat="46.66443" lon="6.05727">
        <ele>1045.57</ele>
        <time>2016-06-12T08:24:24Z</time>
      </trkpt>
      <trkpt lat="46.66448" lon="6.05742">
        <ele>1045.57</ele>
        <time>2016-06-12T08:24:35Z</time>
      </trkpt>
      <trkpt lat="46.66453" lon="6.0576">
        <ele>1042.69</ele>
        <time>2016-06-12T08:24:49Z</time>
      </trkpt>
      <trkpt lat="46.6646" lon="6.0578">
        <ele>1042.21</ele>
        <time>2016-06-12T08:25:01Z</time>
      </trkpt>
      <trkpt lat="46.66458" lon="6.05797">
        <ele>1042.69</ele>
        <time>2016-06-12T08:25:09Z</time>
      </trkpt>
      <trkpt lat="46.66453" lon="6.05809">
        <ele>1041.73</ele>
        <time>2016-06-12T08:25:22Z</time>
      </trkpt>
      <trkpt lat="46.66453" lon="6.05808">
        <ele>1040.76</ele>
        <time>2016-06-12T08:25:42Z</time>
      </trkpt>
      <trkpt lat="46.66454" lon="6.05808">
        <ele>1039.32</ele>
        <time>2016-06-12T08:26:02Z</time>
      </trkpt>
      <trkpt lat="46.66453" lon="6.05808">
        <ele>1039.32</ele>
        <time>2016-06-12T08:26:27Z</time>
      </trkpt>
      <trkpt lat="46.66453" lon="6.0581">
        <ele>1037.4</ele>
        <time>2016-06-12T08:26:45Z</time>
      </trkpt>
      <trkpt lat="46.66453" lon="6.05813">
        <ele>1035.96</ele>
        <time>2016-06-12T08:27:02Z</time>
      </trkpt>
      <trkpt lat="46.66454" lon="6.05819">
        <ele>1033.55</ele>
        <time>2016-06-12T08:27:12Z</time>
      </trkpt>
      <trkpt lat="46.66455" lon="6.05837">
        <ele>1029.23</ele>
        <time>2016-06-12T08:27:23Z</time>
      </trkpt>
      <trkpt lat="46.66454" lon="6.05853">
        <ele>1028.75</ele>
        <time>2016-06-12T08:27:36Z</time>
      </trkpt>
      <trkpt lat="46.66454" lon="6.05872">
        <ele>1028.75</ele>
        <time>2016-06-12T08:27:49Z</time>
      </trkpt>
      <trkpt lat="46.66456" lon="6.05889">
        <ele>1028.75</ele>
        <time>2016-06-12T08:28:02Z</time>
      </trkpt>
      <trkpt lat="46.66454" lon="6.05901">
        <ele>1027.79</ele>
        <time>2016-06-12T08:28:11Z</time>
      </trkpt>
      <trkpt lat="46.66452" lon="6.05917">
        <ele>1025.86</ele>
        <time>2016-06-12T08:28:25Z</time>
      </trkpt>
      <trkpt lat="46.66454" lon="6.05929">
        <ele>1022.98</ele>
        <time>2016-06-12T08:28:38Z</time>
      </trkpt>
      <trkpt lat="46.66456" lon="6.05941">
        <ele>1019.13</ele>
        <time>2016-06-12T08:28:50Z</time>
      </trkpt>
      <trkpt lat="46.66458" lon="6.05959">
        <ele>1014.81</ele>
        <time>2016-06-12T08:29:03Z</time>
      </trkpt>
      <trkpt lat="46.6646" lon="6.05969">
        <ele>1010.96</ele>
        <time>2016-06-12T08:29:15Z</time>
      </trkpt>
      <trkpt lat="46.66464" lon="6.05984">
        <ele>1006.16</ele>
        <time>2016-06-12T08:29:27Z</time>
      </trkpt>
      <trkpt lat="46.66465" lon="6.06002">
        <ele>1002.79</ele>
        <time>2016-06-12T08:29:39Z</time>
      </trkpt>
      <trkpt lat="46.66469" lon="6.06018">
        <ele>999.91</ele>
        <time>2016-06-12T08:29:51Z</time>
      </trkpt>
      <trkpt lat="46.66473" lon="6.06029">
        <ele>998.47</ele>
        <time>2016-06-12T08:30:00Z</time>
      </trkpt>
      <trkpt lat="46.66479" lon="6.06046">
        <ele>996.06</ele>
        <time>2016-06-12T08:30:13Z</time>
      </trkpt>
      <trkpt lat="46.66481" lon="6.06056">
        <ele>993.66</ele>
        <time>2016-06-12T08:30:21Z</time>
      </trkpt>
      <trkpt lat="46.66482" lon="6.06058">
        <ele>993.66</ele>
        <time>2016-06-12T08:30:23Z</time>
      </trkpt>
      <trkpt lat="46.6649" lon="6.0608">
        <ele>991.74</ele>
        <time>2016-06-12T08:30:38Z</time>
      </trkpt>
      <trkpt lat="46.66493" lon="6.0609">
        <ele>989.81</ele>
        <time>2016-06-12T08:30:46Z</time>
      </trkpt>
      <trkpt lat="46.66486" lon="6.06104">
        <ele>987.89</ele>
        <time>2016-06-12T08:30:58Z</time>
      </trkpt>
      <trkpt lat="46.66481" lon="6.06111">
        <ele>986.45</ele>
        <time>2016-06-12T08:31:06Z</time>
      </trkpt>
      <trkpt lat="46.66481" lon="6.06116">
        <ele>985.49</ele>
        <time>2016-06-12T08:31:10Z</time>
      </trkpt>
      <trkpt lat="46.66488" lon="6.06138">
        <ele>983.09</ele>
        <time>2016-06-12T08:31:26Z</time>
      </trkpt>
      <trkpt lat="46.66494" lon="6.06155">
        <ele>982.12</ele>
        <time>2016-06-12T08:31:39Z</time>
      </trkpt>
      <trkpt lat="46.66501" lon="6.06172">
        <ele>983.09</ele>
        <time>2016-06-12T08:31:52Z</time>
      </trkpt>
      <trkpt lat="46.66505" lon="6.06187">
        <ele>980.2</ele>
        <time>2016-06-12T08:32:07Z</time>
      </trkpt>
      <trkpt lat="46.6651" lon="6.06202">
        <ele>977.8</ele>
        <time>2016-06-12T08:32:21Z</time>
      </trkpt>
      <trkpt lat="46.66514" lon="6.06216">
        <ele>975.39</ele>
        <time>2016-06-12T08:32:33Z</time>
      </trkpt>
      <trkpt lat="46.66519" lon="6.06234">
        <ele>969.63</ele>
        <time>2016-06-12T08:32:49Z</time>
      </trkpt>
      <trkpt lat="46.66523" lon="6.0625">
        <ele>965.3</ele>
        <time>2016-06-12T08:33:03Z</time>
      </trkpt>
      <trkpt lat="46.66522" lon="6.0626">
        <ele>964.34</ele>
        <time>2016-06-12T08:33:11Z</time>
      </trkpt>
      <trkpt lat="46.66523" lon="6.06271">
        <ele>963.38</ele>
        <time>2016-06-12T08:33:24Z</time>
      </trkpt>
      <trkpt lat="46.66522" lon="6.06273">
        <ele>964.82</ele>
        <time>2016-06-12T08:33:36Z</time>
      </trkpt>
      <trkpt lat="46.66522" lon="6.06277">
        <ele>962.42</ele>
        <time>2016-06-12T08:33:49Z</time>
      </trkpt>
      <trkpt lat="46.66519" lon="6.06279">
        <ele>961.94</ele>
        <time>2016-06-12T08:34:05Z</time>
      </trkpt>
      <trkpt lat="46.6652" lon="6.06273">
        <ele>962.42</ele>
        <time>2016-06-12T08:34:17Z</time>
      </trkpt>
      <trkpt lat="46.6652" lon="6.06273">
        <ele>963.86</ele>
        <time>2016-06-12T08:34:29Z</time>
      </trkpt>
      <trkpt lat="46.66522" lon="6.06275">
        <ele>963.86</ele>
        <time>2016-06-12T08:34:49Z</time>
      </trkpt>
      <trkpt lat="46.66521" lon="6.06278">
        <ele>963.38</ele>
        <time>2016-06-12T08:34:52Z</time>
      </trkpt>
      <trkpt lat="46.6651" lon="6.06279">
        <ele>962.42</ele>
        <time>2016-06-12T08:35:03Z</time>
      </trkpt>
      <trkpt lat="46.66496" lon="6.06279">
        <ele>960.98</ele>
        <time>2016-06-12T08:35:17Z</time>
      </trkpt>
      <trkpt lat="46.66486" lon="6.06281">
        <ele>957.13</ele>
        <time>2016-06-12T08:35:30Z</time>
      </trkpt>
      <trkpt lat="46.66482" lon="6.06285">
        <ele>955.21</ele>
        <time>2016-06-12T08:35:35Z</time>
      </trkpt>
      <trkpt lat="46.66479" lon="6.06294">
        <ele>952.32</ele>
        <time>2016-06-12T08:35:45Z</time>
      </trkpt>
      <trkpt lat="46.66475" lon="6.06298">
        <ele>949.44</ele>
        <time>2016-06-12T08:35:57Z</time>
      </trkpt>
      <trkpt lat="46.66475" lon="6.06298">
        <ele>951.36</ele>
        <time>2016-06-12T08:36:10Z</time>
      </trkpt>
      <trkpt lat="46.66473" lon="6.06299">
        <ele>952.32</ele>
        <time>2016-06-12T08:36:16Z</time>
      </trkpt>
      <trkpt lat="46.66468" lon="6.06306">
        <ele>951.84</ele>
        <time>2016-06-12T08:36:28Z</time>
      </trkpt>
      <trkpt lat="46.66468" lon="6.0631">
        <ele>951.36</ele>
        <time>2016-06-12T08:36:42Z</time>
      </trkpt>
      <trkpt lat="46.66468" lon="6.06307">
        <ele>952.8</ele>
        <time>2016-06-12T08:36:48Z</time>
      </trkpt>
      <trkpt lat="46.66468" lon="6.06301">
        <ele>953.77</ele>
        <time>2016-06-12T08:36:53Z</time>
      </trkpt>
      <trkpt lat="46.6647" lon="6.063">
        <ele>955.21</ele>
        <time>2016-06-12T08:37:07Z</time>
      </trkpt>
      <trkpt lat="46.6647" lon="6.06301">
        <ele>954.73</ele>
        <time>2016-06-12T08:37:08Z</time>
      </trkpt>
      <trkpt lat="46.66474" lon="6.06321">
        <ele>953.28</ele>
        <time>2016-06-12T08:37:22Z</time>
      </trkpt>
      <trkpt lat="46.66479" lon="6.06333">
        <ele>950.88</ele>
        <time>2016-06-12T08:37:33Z</time>
      </trkpt>
      <trkpt lat="46.66481" lon="6.06343">
        <ele>948.96</ele>
        <time>2016-06-12T08:37:44Z</time>
      </trkpt>
      <trkpt lat="46.66481" lon="6.06343">
        <ele>948</ele>
        <time>2016-06-12T08:37:56Z</time>
      </trkpt>
      <trkpt lat="46.66482" lon="6.06349">
        <ele>947.52</ele>
        <time>2016-06-12T08:38:10Z</time>
      </trkpt>
      <trkpt lat="46.66483" lon="6.06358">
        <ele>948.48</ele>
        <time>2016-06-12T08:38:22Z</time>
      </trkpt>
      <trkpt lat="46.66488" lon="6.06375">
        <ele>948.96</ele>
        <time>2016-06-12T08:38:34Z</time>
      </trkpt>
      <trkpt lat="46.66489" lon="6.06383">
        <ele>948.96</ele>
        <time>2016-06-12T08:38:46Z</time>
      </trkpt>
      <trkpt lat="46.66488" lon="6.06385">
        <ele>948</ele>
        <time>2016-06-12T08:38:52Z</time>
      </trkpt>
      <trkpt lat="46.6649" lon="6.06386">
        <ele>948.48</ele>
        <time>2016-06-12T08:38:57Z</time>
      </trkpt>
      <trkpt lat="46.66493" lon="6.06391">
        <ele>949.92</ele>
        <time>2016-06-12T08:39:06Z</time>
      </trkpt>
      <trkpt lat="46.66498" lon="6.06404">
        <ele>950.4</ele>
        <time>2016-06-12T08:39:18Z</time>
      </trkpt>
      <trkpt lat="46.66499" lon="6.06406">
        <ele>950.88</ele>
        <time>2016-06-12T08:39:21Z</time>
      </trkpt>
      <trkpt lat="46.66499" lon="6.06416">
        <ele>950.88</ele>
        <time>2016-06-12T08:39:28Z</time>
      </trkpt>
      <trkpt lat="46.66503" lon="6.06431">
        <ele>951.36</ele>
        <time>2016-06-12T08:39:39Z</time>
      </trkpt>
      <trkpt lat="46.66507" lon="6.06446">
        <ele>951.84</ele>
        <time>2016-06-12T08:39:52Z</time>
      </trkpt>
      <trkpt lat="46.6651" lon="6.06456">
        <ele>953.77</ele>
        <time>2016-06-12T08:39:59Z</time>
      </trkpt>
      <trkpt lat="46.66512" lon="6.06463">
        <ele>954.73</ele>
        <time>2016-06-12T08:40:04Z</time>
      </trkpt>
      <trkpt lat="46.66512" lon="6.06466">
        <ele>954.73</ele>
        <time>2016-06-12T08:40:06Z</time>
      </trkpt>
      <trkpt lat="46.66515" lon="6.06477">
        <ele>954.25</ele>
        <time>2016-06-12T08:40:13Z</time>
      </trkpt>
      <trkpt lat="46.66518" lon="6.06489">
        <ele>953.28</ele>
        <time>2016-06-12T08:40:22Z</time>
      </trkpt>
      <trkpt lat="46.66519" lon="6.06491">
        <ele>952.8</ele>
        <time>2016-06-12T08:40:24Z</time>
      </trkpt>
      <trkpt lat="46.66521" lon="6.06503">
        <ele>951.84</ele>
        <time>2016-06-12T08:40:32Z</time>
      </trkpt>
      <trkpt lat="46.66525" lon="6.06524">
        <ele>950.88</ele>
        <time>2016-06-12T08:40:45Z</time>
      </trkpt>
      <trkpt lat="46.66525" lon="6.06528">
        <ele>949.44</ele>
        <time>2016-06-12T08:40:48Z</time>
      </trkpt>
      <trkpt lat="46.66527" lon="6.06534">
        <ele>947.52</ele>
        <time>2016-06-12T08:40:53Z</time>
      </trkpt>
      <trkpt lat="46.66528" lon="6.06544">
        <ele>944.15</ele>
        <time>2016-06-12T08:41:00Z</time>
      </trkpt>
      <trkpt lat="46.66529" lon="6.06552">
        <ele>941.75</ele>
        <time>2016-06-12T08:41:05Z</time>
      </trkpt>
      <trkpt lat="46.66528" lon="6.06561">
        <ele>938.86</ele>
        <time>2016-06-12T08:41:11Z</time>
      </trkpt>
      <trkpt lat="46.66529" lon="6.06568">
        <ele>936.46</ele>
        <time>2016-06-12T08:41:16Z</time>
      </trkpt>
      <trkpt lat="46.66532" lon="6.06592">
        <ele>935.5</ele>
        <time>2016-06-12T08:41:29Z</time>
      </trkpt>
      <trkpt lat="46.66537" lon="6.06609">
        <ele>932.62</ele>
        <time>2016-06-12T08:41:41Z</time>
      </trkpt>
      <trkpt lat="46.6654" lon="6.06631">
        <ele>938.38</ele>
        <time>2016-06-12T08:41:55Z</time>
      </trkpt>
      <trkpt lat="46.66539" lon="6.06637">
        <ele>940.31</ele>
        <time>2016-06-12T08:41:58Z</time>
      </trkpt>
      <trkpt lat="46.6654" lon="6.06646">
        <ele>942.23</ele>
        <time>2016-06-12T08:42:04Z</time>
      </trkpt>
      <trkpt lat="46.66546" lon="6.06663">
        <ele>947.04</ele>
        <time>2016-06-12T08:42:17Z</time>
      </trkpt>
      <trkpt lat="46.66547" lon="6.06666">
        <ele>948</ele>
        <time>2016-06-12T08:42:30Z</time>
      </trkpt>
      <trkpt lat="46.66547" lon="6.06667">
        <ele>948</ele>
        <time>2016-06-12T08:42:34Z</time>
      </trkpt>
      <trkpt lat="46.66547" lon="6.06677">
        <ele>948</ele>
        <time>2016-06-12T08:42:40Z</time>
      </trkpt>
      <trkpt lat="46.66548" lon="6.06687">
        <ele>948.48</ele>
        <time>2016-06-12T08:42:47Z</time>
      </trkpt>
      <trkpt lat="46.6655" lon="6.06693">
        <ele>948.96</ele>
        <time>2016-06-12T08:42:51Z</time>
      </trkpt>
      <trkpt lat="46.66551" lon="6.06694">
        <ele>949.44</ele>
        <time>2016-06-12T08:42:53Z</time>
      </trkpt>
      <trkpt lat="46.66551" lon="6.067">
        <ele>949.44</ele>
        <time>2016-06-12T08:42:57Z</time>
      </trkpt>
      <trkpt lat="46.66553" lon="6.06715">
        <ele>951.36</ele>
        <time>2016-06-12T08:43:09Z</time>
      </trkpt>
      <trkpt lat="46.66555" lon="6.06724">
        <ele>950.4</ele>
        <time>2016-06-12T08:43:15Z</time>
      </trkpt>
      <trkpt lat="46.66559" lon="6.06733">
        <ele>949.92</ele>
        <time>2016-06-12T08:43:21Z</time>
      </trkpt>
      <trkpt lat="46.6656" lon="6.06745">
        <ele>949.92</ele>
        <time>2016-06-12T08:43:28Z</time>
      </trkpt>
      <trkpt lat="46.66561" lon="6.06749">
        <ele>950.88</ele>
        <time>2016-06-12T08:43:31Z</time>
      </trkpt>
      <trkpt lat="46.66567" lon="6.06772">
        <ele>950.88</ele>
        <time>2016-06-12T08:43:45Z</time>
      </trkpt>
      <trkpt lat="46.66569" lon="6.06777">
        <ele>950.4</ele>
        <time>2016-06-12T08:43:49Z</time>
      </trkpt>
      <trkpt lat="46.66572" lon="6.06783">
        <ele>950.4</ele>
        <time>2016-06-12T08:43:54Z</time>
      </trkpt>
      <trkpt lat="46.66576" lon="6.06796">
        <ele>948.96</ele>
        <time>2016-06-12T08:44:09Z</time>
      </trkpt>
      <trkpt lat="46.66577" lon="6.06797">
        <ele>948.96</ele>
        <time>2016-06-12T08:44:13Z</time>
      </trkpt>
      <trkpt lat="46.66579" lon="6.06802">
        <ele>949.92</ele>
        <time>2016-06-12T08:44:17Z</time>
      </trkpt>
      <trkpt lat="46.66582" lon="6.06813">
        <ele>949.92</ele>
        <time>2016-06-12T08:44:24Z</time>
      </trkpt>
      <trkpt lat="46.66583" lon="6.06816">
        <ele>949.92</ele>
        <time>2016-06-12T08:44:26Z</time>
      </trkpt>
      <trkpt lat="46.66585" lon="6.0683">
        <ele>950.88</ele>
        <time>2016-06-12T08:44:34Z</time>
      </trkpt>
      <trkpt lat="46.66591" lon="6.06845">
        <ele>950.88</ele>
        <time>2016-06-12T08:44:44Z</time>
      </trkpt>
      <trkpt lat="46.66593" lon="6.06864">
        <ele>949.44</ele>
        <time>2016-06-12T08:44:57Z</time>
      </trkpt>
      <trkpt lat="46.66596" lon="6.06874">
        <ele>948</ele>
        <time>2016-06-12T08:45:05Z</time>
      </trkpt>
      <trkpt lat="46.666" lon="6.06886">
        <ele>947.04</ele>
        <time>2016-06-12T08:45:13Z</time>
      </trkpt>
      <trkpt lat="46.66602" lon="6.06894">
        <ele>947.52</ele>
        <time>2016-06-12T08:45:19Z</time>
      </trkpt>
      <trkpt lat="46.66605" lon="6.069">
        <ele>948.96</ele>
        <time>2016-06-12T08:45:24Z</time>
      </trkpt>
      <trkpt lat="46.66608" lon="6.06907">
        <ele>949.44</ele>
        <time>2016-06-12T08:45:29Z</time>
      </trkpt>
      <trkpt lat="46.6661" lon="6.06912">
        <ele>949.44</ele>
        <time>2016-06-12T08:45:33Z</time>
      </trkpt>
      <trkpt lat="46.66614" lon="6.06919">
        <ele>949.44</ele>
        <time>2016-06-12T08:45:39Z</time>
      </trkpt>
      <trkpt lat="46.66616" lon="6.06925">
        <ele>949.44</ele>
        <time>2016-06-12T08:45:43Z</time>
      </trkpt>
      <trkpt lat="46.66618" lon="6.0693">
        <ele>948.96</ele>
        <time>2016-06-12T08:45:47Z</time>
      </trkpt>
      <trkpt lat="46.66619" lon="6.06937">
        <ele>949.44</ele>
        <time>2016-06-12T08:45:51Z</time>
      </trkpt>
      <trkpt lat="46.6662" lon="6.0694">
        <ele>949.44</ele>
        <time>2016-06-12T08:45:53Z</time>
      </trkpt>
      <trkpt lat="46.66629" lon="6.06962">
        <ele>950.4</ele>
        <time>2016-06-12T08:46:09Z</time>
      </trkpt>
      <trkpt lat="46.66635" lon="6.06976">
        <ele>951.36</ele>
        <time>2016-06-12T08:46:22Z</time>
      </trkpt>
      <trkpt lat="46.66639" lon="6.06982">
        <ele>950.88</ele>
        <time>2016-06-12T08:46:32Z</time>
      </trkpt>
      <trkpt lat="46.6665" lon="6.06996">
        <ele>949.44</ele>
        <time>2016-06-12T08:46:46Z</time>
      </trkpt>
      <trkpt lat="46.66651" lon="6.06997">
        <ele>949.44</ele>
        <time>2016-06-12T08:46:47Z</time>
      </trkpt>
      <trkpt lat="46.66653" lon="6.07001">
        <ele>949.92</ele>
        <time>2016-06-12T08:46:59Z</time>
      </trkpt>
      <trkpt lat="46.66653" lon="6.07003">
        <ele>949.92</ele>
        <time>2016-06-12T08:47:00Z</time>
      </trkpt>
      <trkpt lat="46.66656" lon="6.07011">
        <ele>950.4</ele>
        <time>2016-06-12T08:47:06Z</time>
      </trkpt>
      <trkpt lat="46.66657" lon="6.07014">
        <ele>950.4</ele>
        <time>2016-06-12T08:47:08Z</time>
      </trkpt>
      <trkpt lat="46.66659" lon="6.07016">
        <ele>950.4</ele>
        <time>2016-06-12T08:47:10Z</time>
      </trkpt>
      <trkpt lat="46.6666" lon="6.07021">
        <ele>950.4</ele>
        <time>2016-06-12T08:47:13Z</time>
      </trkpt>
      <trkpt lat="46.66662" lon="6.07027">
        <ele>950.4</ele>
        <time>2016-06-12T08:47:17Z</time>
      </trkpt>
      <trkpt lat="46.66666" lon="6.0704">
        <ele>949.92</ele>
        <time>2016-06-12T08:47:25Z</time>
      </trkpt>
      <trkpt lat="46.66669" lon="6.07044">
        <ele>950.4</ele>
        <time>2016-06-12T08:47:28Z</time>
      </trkpt>
      <trkpt lat="46.66673" lon="6.07059">
        <ele>950.88</ele>
        <time>2016-06-12T08:47:37Z</time>
      </trkpt>
      <trkpt lat="46.66676" lon="6.07069">
        <ele>951.36</ele>
        <time>2016-06-12T08:47:43Z</time>
      </trkpt>
      <trkpt lat="46.66677" lon="6.07078">
        <ele>949.92</ele>
        <time>2016-06-12T08:47:56Z</time>
      </trkpt>
      <trkpt lat="46.66681" lon="6.07091">
        <ele>950.4</ele>
        <time>2016-06-12T08:48:04Z</time>
      </trkpt>
      <trkpt lat="46.66682" lon="6.07096">
        <ele>950.4</ele>
        <time>2016-06-12T08:48:07Z</time>
      </trkpt>
      <trkpt lat="46.66687" lon="6.07116">
        <ele>952.32</ele>
        <time>2016-06-12T08:48:20Z</time>
      </trkpt>
      <trkpt lat="46.66688" lon="6.0712">
        <ele>952.32</ele>
        <time>2016-06-12T08:48:23Z</time>
      </trkpt>
      <trkpt lat="46.66696" lon="6.0714">
        <ele>950.88</ele>
        <time>2016-06-12T08:48:36Z</time>
      </trkpt>
      <trkpt lat="46.667" lon="6.07158">
        <ele>950.4</ele>
        <time>2016-06-12T08:48:47Z</time>
      </trkpt>
      <trkpt lat="46.6671" lon="6.07175">
        <ele>949.92</ele>
        <time>2016-06-12T08:49:00Z</time>
      </trkpt>
      <trkpt lat="46.66714" lon="6.07187">
        <ele>950.4</ele>
        <time>2016-06-12T08:49:08Z</time>
      </trkpt>
      <trkpt lat="46.66716" lon="6.0719">
        <ele>949.92</ele>
        <time>2016-06-12T08:49:10Z</time>
      </trkpt>
      <trkpt lat="46.66718" lon="6.07195">
        <ele>949.44</ele>
        <time>2016-06-12T08:49:14Z</time>
      </trkpt>
      <trkpt lat="46.6672" lon="6.07203">
        <ele>949.44</ele>
        <time>2016-06-12T08:49:19Z</time>
      </trkpt>
      <trkpt lat="46.6672" lon="6.07206">
        <ele>949.44</ele>
        <time>2016-06-12T08:49:21Z</time>
      </trkpt>
      <trkpt lat="46.66721" lon="6.07208">
        <ele>949.44</ele>
        <time>2016-06-12T08:49:23Z</time>
      </trkpt>
      <trkpt lat="46.66724" lon="6.07218">
        <ele>948.96</ele>
        <time>2016-06-12T08:49:30Z</time>
      </trkpt>
      <trkpt lat="46.66729" lon="6.07227">
        <ele>948.48</ele>
        <time>2016-06-12T08:49:37Z</time>
      </trkpt>
      <trkpt lat="46.66732" lon="6.07238">
        <ele>948</ele>
        <time>2016-06-12T08:49:44Z</time>
      </trkpt>
      <trkpt lat="46.66736" lon="6.07244">
        <ele>948</ele>
        <time>2016-06-12T08:49:49Z</time>
      </trkpt>
      <trkpt lat="46.6674" lon="6.07249">
        <ele>948</ele>
        <time>2016-06-12T08:49:54Z</time>
      </trkpt>
      <trkpt lat="46.66744" lon="6.07264">
        <ele>947.04</ele>
        <time>2016-06-12T08:50:03Z</time>
      </trkpt>
      <trkpt lat="46.66746" lon="6.07266">
        <ele>946.56</ele>
        <time>2016-06-12T08:50:05Z</time>
      </trkpt>
      <trkpt lat="46.66753" lon="6.07287">
        <ele>947.52</ele>
        <time>2016-06-12T08:50:19Z</time>
      </trkpt>
      <trkpt lat="46.66754" lon="6.07292">
        <ele>947.04</ele>
        <time>2016-06-12T08:50:22Z</time>
      </trkpt>
      <trkpt lat="46.66759" lon="6.07302">
        <ele>945.59</ele>
        <time>2016-06-12T08:50:30Z</time>
      </trkpt>
      <trkpt lat="46.66762" lon="6.07308">
        <ele>944.15</ele>
        <time>2016-06-12T08:50:34Z</time>
      </trkpt>
      <trkpt lat="46.66763" lon="6.07312">
        <ele>943.67</ele>
        <time>2016-06-12T08:50:36Z</time>
      </trkpt>
      <trkpt lat="46.6677" lon="6.07333">
        <ele>941.75</ele>
        <time>2016-06-12T08:50:51Z</time>
      </trkpt>
      <trkpt lat="46.66771" lon="6.07334">
        <ele>941.27</ele>
        <time>2016-06-12T08:50:52Z</time>
      </trkpt>
      <trkpt lat="46.66776" lon="6.07355">
        <ele>939.83</ele>
        <time>2016-06-12T08:51:06Z</time>
      </trkpt>
      <trkpt lat="46.66777" lon="6.07365">
        <ele>940.79</ele>
        <time>2016-06-12T08:51:19Z</time>
      </trkpt>
      <trkpt lat="46.66779" lon="6.07369">
        <ele>941.27</ele>
        <time>2016-06-12T08:51:27Z</time>
      </trkpt>
      <trkpt lat="46.66786" lon="6.07381">
        <ele>939.35</ele>
        <time>2016-06-12T08:51:42Z</time>
      </trkpt>
      <trkpt lat="46.66791" lon="6.0739">
        <ele>935.98</ele>
        <time>2016-06-12T08:51:55Z</time>
      </trkpt>
      <trkpt lat="46.66796" lon="6.07397">
        <ele>934.06</ele>
        <time>2016-06-12T08:52:07Z</time>
      </trkpt>
      <trkpt lat="46.668" lon="6.07401">
        <ele>929.25</ele>
        <time>2016-06-12T08:52:18Z</time>
      </trkpt>
      <trkpt lat="46.66802" lon="6.07406">
        <ele>928.29</ele>
        <time>2016-06-12T08:52:25Z</time>
      </trkpt>
      <trkpt lat="46.66804" lon="6.07415">
        <ele>926.37</ele>
        <time>2016-06-12T08:52:37Z</time>
      </trkpt>
      <trkpt lat="46.66804" lon="6.07422">
        <ele>925.89</ele>
        <time>2016-06-12T08:52:53Z</time>
      </trkpt>
      <trkpt lat="46.66805" lon="6.07429">
        <ele>923.96</ele>
        <time>2016-06-12T08:53:06Z</time>
      </trkpt>
      <trkpt lat="46.66805" lon="6.0744">
        <ele>923</ele>
        <time>2016-06-12T08:53:17Z</time>
      </trkpt>
      <trkpt lat="46.66804" lon="6.07446">
        <ele>923.96</ele>
        <time>2016-06-12T08:53:29Z</time>
      </trkpt>
      <trkpt lat="46.66801" lon="6.07456">
        <ele>924.45</ele>
        <time>2016-06-12T08:53:41Z</time>
      </trkpt>
      <trkpt lat="46.66803" lon="6.07468">
        <ele>921.08</ele>
        <time>2016-06-12T08:53:56Z</time>
      </trkpt>
      <trkpt lat="46.66808" lon="6.07477">
        <ele>916.27</ele>
        <time>2016-06-12T08:54:07Z</time>
      </trkpt>
      <trkpt lat="46.66816" lon="6.0749">
        <ele>910.03</ele>
        <time>2016-06-12T08:54:18Z</time>
      </trkpt>
      <trkpt lat="46.66821" lon="6.07502">
        <ele>906.18</ele>
        <time>2016-06-12T08:54:29Z</time>
      </trkpt>
      <trkpt lat="46.66823" lon="6.07508">
        <ele>905.22</ele>
        <time>2016-06-12T08:54:34Z</time>
      </trkpt>
      <trkpt lat="46.66827" lon="6.07523">
        <ele>904.74</ele>
        <time>2016-06-12T08:54:46Z</time>
      </trkpt>
      <trkpt lat="46.66827" lon="6.07535">
        <ele>905.22</ele>
        <time>2016-06-12T08:54:58Z</time>
      </trkpt>
      <trkpt lat="46.66826" lon="6.07545">
        <ele>905.22</ele>
        <time>2016-06-12T08:55:07Z</time>
      </trkpt>
      <trkpt lat="46.66819" lon="6.0756">
        <ele>904.26</ele>
        <time>2016-06-12T08:55:21Z</time>
      </trkpt>
      <trkpt lat="46.66817" lon="6.07565">
        <ele>904.74</ele>
        <time>2016-06-12T08:55:38Z</time>
      </trkpt>
      <trkpt lat="46.66816" lon="6.07567">
        <ele>903.78</ele>
        <time>2016-06-12T08:55:51Z</time>
      </trkpt>
      <trkpt lat="46.66816" lon="6.07567">
        <ele>902.82</ele>
        <time>2016-06-12T08:56:11Z</time>
      </trkpt>
      <trkpt lat="46.66815" lon="6.07569">
        <ele>902.33</ele>
        <time>2016-06-12T08:56:32Z</time>
      </trkpt>
      <trkpt lat="46.66816" lon="6.07569">
        <ele>902.33</ele>
        <time>2016-06-12T08:56:49Z</time>
      </trkpt>
      <trkpt lat="46.66814" lon="6.07567">
        <ele>902.33</ele>
        <time>2016-06-12T08:56:54Z</time>
      </trkpt>
      <trkpt lat="46.66806" lon="6.07559">
        <ele>904.26</ele>
        <time>2016-06-12T08:57:05Z</time>
      </trkpt>
      <trkpt lat="46.66798" lon="6.07549">
        <ele>903.78</ele>
        <time>2016-06-12T08:57:16Z</time>
      </trkpt>
      <trkpt lat="46.66792" lon="6.07541">
        <ele>902.82</ele>
        <time>2016-06-12T08:57:23Z</time>
      </trkpt>
      <trkpt lat="46.6678" lon="6.07525">
        <ele>903.78</ele>
        <time>2016-06-12T08:57:36Z</time>
      </trkpt>
      <trkpt lat="46.6677" lon="6.07509">
        <ele>906.66</ele>
        <time>2016-06-12T08:57:49Z</time>
      </trkpt>
      <trkpt lat="46.66765" lon="6.07503">
        <ele>907.14</ele>
        <time>2016-06-12T08:57:54Z</time>
      </trkpt>
      <trkpt lat="46.66756" lon="6.07488">
        <ele>907.14</ele>
        <time>2016-06-12T08:58:06Z</time>
      </trkpt>
      <trkpt lat="46.66748" lon="6.07472">
        <ele>906.18</ele>
        <time>2016-06-12T08:58:19Z</time>
      </trkpt>
      <trkpt lat="46.66741" lon="6.07458">
        <ele>904.74</ele>
        <time>2016-06-12T08:58:31Z</time>
      </trkpt>
      <trkpt lat="46.66738" lon="6.07455">
        <ele>904.26</ele>
        <time>2016-06-12T08:58:50Z</time>
      </trkpt>
      <trkpt lat="46.66737" lon="6.07453">
        <ele>903.78</ele>
        <time>2016-06-12T08:58:54Z</time>
      </trkpt>
      <trkpt lat="46.66727" lon="6.07438">
        <ele>902.82</ele>
        <time>2016-06-12T08:59:06Z</time>
      </trkpt>
      <trkpt lat="46.66725" lon="6.07434">
        <ele>904.26</ele>
        <time>2016-06-12T08:59:23Z</time>
      </trkpt>
      <trkpt lat="46.66724" lon="6.07435">
        <ele>905.22</ele>
        <time>2016-06-12T08:59:40Z</time>
      </trkpt>
      <trkpt lat="46.66724" lon="6.07436">
        <ele>903.78</ele>
        <time>2016-06-12T09:00:04Z</time>
      </trkpt>
      <trkpt lat="46.66722" lon="6.07436">
        <ele>906.66</ele>
        <time>2016-06-12T09:00:28Z</time>
      </trkpt>
      <trkpt lat="46.6672" lon="6.07431">
        <ele>904.74</ele>
        <time>2016-06-12T09:00:40Z</time>
      </trkpt>
      <trkpt lat="46.6672" lon="6.0743">
        <ele>904.74</ele>
        <time>2016-06-12T09:00:45Z</time>
      </trkpt>
      <trkpt lat="46.66714" lon="6.0742">
        <ele>905.7</ele>
        <time>2016-06-12T09:00:53Z</time>
      </trkpt>
      <trkpt lat="46.66707" lon="6.07407">
        <ele>909.06</ele>
        <time>2016-06-12T09:01:06Z</time>
      </trkpt>
      <trkpt lat="46.66705" lon="6.07403">
        <ele>909.06</ele>
        <time>2016-06-12T09:01:10Z</time>
      </trkpt>
      <trkpt lat="46.66697" lon="6.07393">
        <ele>910.51</ele>
        <time>2016-06-12T09:01:24Z</time>
      </trkpt>
      <trkpt lat="46.6669" lon="6.07382">
        <ele>912.43</ele>
        <time>2016-06-12T09:01:35Z</time>
      </trkpt>
      <trkpt lat="46.66689" lon="6.07381">
        <ele>912.91</ele>
        <time>2016-06-12T09:01:37Z</time>
      </trkpt>
      <trkpt lat="46.66684" lon="6.07379">
        <ele>913.39</ele>
        <time>2016-06-12T09:01:52Z</time>
      </trkpt>
      <trkpt lat="46.66671" lon="6.07377">
        <ele>911.47</ele>
        <time>2016-06-12T09:02:05Z</time>
      </trkpt>
      <trkpt lat="46.66667" lon="6.07375">
        <ele>909.54</ele>
        <time>2016-06-12T09:02:11Z</time>
      </trkpt>
      <trkpt lat="46.66659" lon="6.07371">
        <ele>909.06</ele>
        <time>2016-06-12T09:02:22Z</time>
      </trkpt>
      <trkpt lat="46.66659" lon="6.07371">
        <ele>908.58</ele>
        <time>2016-06-12T09:02:36Z</time>
      </trkpt>
      <trkpt lat="46.66659" lon="6.07371">
        <ele>908.1</ele>
        <time>2016-06-12T09:02:44Z</time>
      </trkpt>
      <trkpt lat="46.66653" lon="6.07368">
        <ele>908.1</ele>
        <time>2016-06-12T09:02:51Z</time>
      </trkpt>
      <trkpt lat="46.6665" lon="6.07368">
        <ele>907.62</ele>
        <time>2016-06-12T09:02:54Z</time>
      </trkpt>
      <trkpt lat="46.66644" lon="6.07365">
        <ele>907.14</ele>
        <time>2016-06-12T09:02:59Z</time>
      </trkpt>
      <trkpt lat="46.66627" lon="6.07353">
        <ele>903.78</ele>
        <time>2016-06-12T09:03:15Z</time>
      </trkpt>
      <trkpt lat="46.66617" lon="6.07345">
        <ele>902.33</ele>
        <time>2016-06-12T09:03:25Z</time>
      </trkpt>
      <trkpt lat="46.66605" lon="6.07336">
        <ele>899.93</ele>
        <time>2016-06-12T09:03:37Z</time>
      </trkpt>
      <trkpt lat="46.66603" lon="6.07334">
        <ele>898.97</ele>
        <time>2016-06-12T09:03:39Z</time>
      </trkpt>
      <trkpt lat="46.66596" lon="6.07327">
        <ele>898.49</ele>
        <time>2016-06-12T09:03:50Z</time>
      </trkpt>
      <trkpt lat="46.66583" lon="6.07318">
        <ele>896.57</ele>
        <time>2016-06-12T09:04:03Z</time>
      </trkpt>
      <trkpt lat="46.66581" lon="6.07316">
        <ele>896.09</ele>
        <time>2016-06-12T09:04:05Z</time>
      </trkpt>
      <trkpt lat="46.66575" lon="6.07315">
        <ele>896.09</ele>
        <time>2016-06-12T09:04:11Z</time>
      </trkpt>
      <trkpt lat="46.66567" lon="6.07315">
        <ele>895.61</ele>
        <time>2016-06-12T09:04:23Z</time>
      </trkpt>
      <trkpt lat="46.66565" lon="6.07313">
        <ele>895.61</ele>
        <time>2016-06-12T09:04:35Z</time>
      </trkpt>
      <trkpt lat="46.66565" lon="6.07313">
        <ele>895.12</ele>
        <time>2016-06-12T09:04:52Z</time>
      </trkpt>
      <trkpt lat="46.66564" lon="6.07312">
        <ele>895.12</ele>
        <time>2016-06-12T09:04:53Z</time>
      </trkpt>
      <trkpt lat="46.66554" lon="6.07307">
        <ele>895.61</ele>
        <time>2016-06-12T09:05:05Z</time>
      </trkpt>
      <trkpt lat="46.66544" lon="6.07303">
        <ele>894.64</ele>
        <time>2016-06-12T09:05:18Z</time>
      </trkpt>
      <trkpt lat="46.66534" lon="6.07299">
        <ele>892.24</ele>
        <time>2016-06-12T09:05:30Z</time>
      </trkpt>
      <trkpt lat="46.6653" lon="6.07296">
        <ele>891.76</ele>
        <time>2016-06-12T09:05:33Z</time>
      </trkpt>
      <trkpt lat="46.66511" lon="6.07287">
        <ele>890.32</ele>
        <time>2016-06-12T09:05:45Z</time>
      </trkpt>
      <trkpt lat="46.66501" lon="6.07283">
        <ele>889.84</ele>
        <time>2016-06-12T09:05:58Z</time>
      </trkpt>
      <trkpt lat="46.66488" lon="6.07282">
        <ele>890.8</ele>
        <time>2016-06-12T09:06:11Z</time>
      </trkpt>
      <trkpt lat="46.66477" lon="6.07272">
        <ele>891.76</ele>
        <time>2016-06-12T09:06:22Z</time>
      </trkpt>
      <trkpt lat="46.66474" lon="6.07268">
        <ele>891.28</ele>
        <time>2016-06-12T09:06:25Z</time>
      </trkpt>
      <trkpt lat="46.66466" lon="6.07262">
        <ele>889.84</ele>
        <time>2016-06-12T09:06:31Z</time>
      </trkpt>
      <trkpt lat="46.66463" lon="6.07258">
        <ele>888.88</ele>
        <time>2016-06-12T09:06:35Z</time>
      </trkpt>
      <trkpt lat="46.66459" lon="6.07252">
        <ele>888.88</ele>
        <time>2016-06-12T09:06:41Z</time>
      </trkpt>
      <trkpt lat="46.66451" lon="6.07243">
        <ele>888.4</ele>
        <time>2016-06-12T09:06:53Z</time>
      </trkpt>
      <trkpt lat="46.66438" lon="6.07225">
        <ele>888.88</ele>
        <time>2016-06-12T09:07:06Z</time>
      </trkpt>
      <trkpt lat="46.66433" lon="6.07223">
        <ele>888.88</ele>
        <time>2016-06-12T09:07:11Z</time>
      </trkpt>
      <trkpt lat="46.66425" lon="6.07232">
        <ele>888.88</ele>
        <time>2016-06-12T09:07:21Z</time>
      </trkpt>
      <trkpt lat="46.66422" lon="6.07241">
        <ele>888.4</ele>
        <time>2016-06-12T09:07:27Z</time>
      </trkpt>
      <trkpt lat="46.66414" lon="6.07262">
        <ele>886.95</ele>
        <time>2016-06-12T09:07:43Z</time>
      </trkpt>
      <trkpt lat="46.66414" lon="6.07263">
        <ele>887.91</ele>
        <time>2016-06-12T09:08:01Z</time>
      </trkpt>
      <trkpt lat="46.66414" lon="6.07263">
        <ele>888.4</ele>
        <time>2016-06-12T09:08:18Z</time>
      </trkpt>
      <trkpt lat="46.66414" lon="6.07263">
        <ele>887.91</ele>
        <time>2016-06-12T09:08:31Z</time>
      </trkpt>
      <trkpt lat="46.66413" lon="6.07265">
        <ele>888.4</ele>
        <time>2016-06-12T09:08:51Z</time>
      </trkpt>
      <trkpt lat="46.66413" lon="6.07264">
        <ele>887.91</ele>
        <time>2016-06-12T09:08:58Z</time>
      </trkpt>
      <trkpt lat="46.66406" lon="6.07283">
        <ele>886.95</ele>
        <time>2016-06-12T09:09:11Z</time>
      </trkpt>
      <trkpt lat="46.66393" lon="6.07308">
        <ele>884.07</ele>
        <time>2016-06-12T09:09:28Z</time>
      </trkpt>
      <trkpt lat="46.66386" lon="6.07323">
        <ele>883.11</ele>
        <time>2016-06-12T09:09:39Z</time>
      </trkpt>
      <trkpt lat="46.66377" lon="6.07339">
        <ele>883.59</ele>
        <time>2016-06-12T09:09:51Z</time>
      </trkpt>
      <trkpt lat="46.66374" lon="6.07344">
        <ele>884.07</ele>
        <time>2016-06-12T09:09:55Z</time>
      </trkpt>
      <trkpt lat="46.66372" lon="6.07349">
        <ele>884.07</ele>
        <time>2016-06-12T09:09:58Z</time>
      </trkpt>
      <trkpt lat="46.66368" lon="6.07357">
        <ele>883.59</ele>
        <time>2016-06-12T09:10:07Z</time>
      </trkpt>
      <trkpt lat="46.6636" lon="6.07378">
        <ele>881.67</ele>
        <time>2016-06-12T09:10:21Z</time>
      </trkpt>
      <trkpt lat="46.66357" lon="6.07385">
        <ele>881.67</ele>
        <time>2016-06-12T09:10:25Z</time>
      </trkpt>
      <trkpt lat="46.66345" lon="6.07397">
        <ele>880.71</ele>
        <time>2016-06-12T09:10:36Z</time>
      </trkpt>
      <trkpt lat="46.66332" lon="6.07397">
        <ele>881.67</ele>
        <time>2016-06-12T09:10:47Z</time>
      </trkpt>
      <trkpt lat="46.66322" lon="6.07391">
        <ele>883.11</ele>
        <time>2016-06-12T09:10:56Z</time>
      </trkpt>
      <trkpt lat="46.6631" lon="6.07378">
        <ele>880.22</ele>
        <time>2016-06-12T09:11:08Z</time>
      </trkpt>
      <trkpt lat="46.66298" lon="6.07363">
        <ele>878.78</ele>
        <time>2016-06-12T09:11:22Z</time>
      </trkpt>
      <trkpt lat="46.66292" lon="6.07357">
        <ele>877.34</ele>
        <time>2016-06-12T09:11:28Z</time>
      </trkpt>
      <trkpt lat="46.66276" lon="6.0734">
        <ele>875.42</ele>
        <time>2016-06-12T09:11:44Z</time>
      </trkpt>
      <trkpt lat="46.66263" lon="6.07326">
        <ele>874.94</ele>
        <time>2016-06-12T09:11:56Z</time>
      </trkpt>
      <trkpt lat="46.66251" lon="6.07314">
        <ele>875.42</ele>
        <time>2016-06-12T09:12:08Z</time>
      </trkpt>
      <trkpt lat="46.66239" lon="6.07303">
        <ele>875.42</ele>
        <time>2016-06-12T09:12:19Z</time>
      </trkpt>
      <trkpt lat="46.66226" lon="6.07292">
        <ele>876.38</ele>
        <time>2016-06-12T09:12:31Z</time>
      </trkpt>
      <trkpt lat="46.66214" lon="6.07286">
        <ele>876.38</ele>
        <time>2016-06-12T09:12:42Z</time>
      </trkpt>
      <trkpt lat="46.66199" lon="6.07284">
        <ele>877.34</ele>
        <time>2016-06-12T09:12:54Z</time>
      </trkpt>
      <trkpt lat="46.66183" lon="6.07283">
        <ele>875.9</ele>
        <time>2016-06-12T09:13:07Z</time>
      </trkpt>
      <trkpt lat="46.66177" lon="6.07282">
        <ele>874.94</ele>
        <time>2016-06-12T09:13:12Z</time>
      </trkpt>
      <trkpt lat="46.66173" lon="6.07281">
        <ele>874.46</ele>
        <time>2016-06-12T09:13:15Z</time>
      </trkpt>
      <trkpt lat="46.6617" lon="6.07282">
        <ele>873.01</ele>
        <time>2016-06-12T09:13:20Z</time>
      </trkpt>
      <trkpt lat="46.66159" lon="6.0728">
        <ele>872.53</ele>
        <time>2016-06-12T09:13:33Z</time>
      </trkpt>
      <trkpt lat="46.66143" lon="6.07277">
        <ele>872.53</ele>
        <time>2016-06-12T09:13:46Z</time>
      </trkpt>
      <trkpt lat="46.6614" lon="6.07277">
        <ele>873.01</ele>
        <time>2016-06-12T09:13:49Z</time>
      </trkpt>
      <trkpt lat="46.66138" lon="6.07278">
        <ele>873.01</ele>
        <time>2016-06-12T09:13:56Z</time>
      </trkpt>
      <trkpt lat="46.66136" lon="6.07276">
        <ele>873.5</ele>
        <time>2016-06-12T09:13:59Z</time>
      </trkpt>
      <trkpt lat="46.66135" lon="6.07275">
        <ele>873.01</ele>
        <time>2016-06-12T09:14:13Z</time>
      </trkpt>
      <trkpt lat="46.66149" lon="6.07283">
        <ele>872.05</ele>
        <time>2016-06-12T09:14:27Z</time>
      </trkpt>
      <trkpt lat="46.66153" lon="6.07283">
        <ele>871.09</ele>
        <time>2016-06-12T09:14:30Z</time>
      </trkpt>
      <trkpt lat="46.66166" lon="6.07285">
        <ele>865.8</ele>
        <time>2016-06-12T09:14:44Z</time>
      </trkpt>
      <trkpt lat="46.66179" lon="6.07296">
        <ele>861.96</ele>
        <time>2016-06-12T09:14:58Z</time>
      </trkpt>
      <trkpt lat="46.66182" lon="6.07299">
        <ele>861.48</ele>
        <time>2016-06-12T09:15:01Z</time>
      </trkpt>
      <trkpt lat="46.66186" lon="6.07313">
        <ele>857.63</ele>
        <time>2016-06-12T09:15:13Z</time>
      </trkpt>
      <trkpt lat="46.66182" lon="6.07313">
        <ele>858.11</ele>
        <time>2016-06-12T09:15:19Z</time>
      </trkpt>
      <trkpt lat="46.66178" lon="6.0731">
        <ele>859.08</ele>
        <time>2016-06-12T09:15:25Z</time>
      </trkpt>
      <trkpt lat="46.66163" lon="6.07302">
        <ele>866.29</ele>
        <time>2016-06-12T09:15:38Z</time>
      </trkpt>
      <trkpt lat="46.6616" lon="6.07301">
        <ele>867.25</ele>
        <time>2016-06-12T09:15:41Z</time>
      </trkpt>
      <trkpt lat="46.66154" lon="6.073">
        <ele>870.61</ele>
        <time>2016-06-12T09:15:47Z</time>
      </trkpt>
      <trkpt lat="46.66147" lon="6.07297">
        <ele>870.61</ele>
        <time>2016-06-12T09:15:52Z</time>
      </trkpt>
      <trkpt lat="46.66139" lon="6.07296">
        <ele>871.09</ele>
        <time>2016-06-12T09:15:59Z</time>
      </trkpt>
      <trkpt lat="46.66131" lon="6.07297">
        <ele>870.61</ele>
        <time>2016-06-12T09:16:05Z</time>
      </trkpt>
      <trkpt lat="46.66118" lon="6.07296">
        <ele>868.21</ele>
        <time>2016-06-12T09:16:18Z</time>
      </trkpt>
      <trkpt lat="46.66105" lon="6.07299">
        <ele>867.73</ele>
        <time>2016-06-12T09:16:30Z</time>
      </trkpt>
      <trkpt lat="46.66098" lon="6.07303">
        <ele>867.25</ele>
        <time>2016-06-12T09:16:36Z</time>
      </trkpt>
      <trkpt lat="46.66096" lon="6.07304">
        <ele>868.21</ele>
        <time>2016-06-12T09:16:41Z</time>
      </trkpt>
      <trkpt lat="46.66094" lon="6.07306">
        <ele>868.21</ele>
        <time>2016-06-12T09:16:43Z</time>
      </trkpt>
      <trkpt lat="46.6609" lon="6.07311">
        <ele>869.17</ele>
        <time>2016-06-12T09:16:48Z</time>
      </trkpt>
      <trkpt lat="46.6608" lon="6.07324">
        <ele>871.09</ele>
        <time>2016-06-12T09:17:01Z</time>
      </trkpt>
      <trkpt lat="46.66078" lon="6.07327">
        <ele>871.09</ele>
        <time>2016-06-12T09:17:04Z</time>
      </trkpt>
      <trkpt lat="46.66077" lon="6.0733">
        <ele>871.09</ele>
        <time>2016-06-12T09:17:06Z</time>
      </trkpt>
      <trkpt lat="46.66075" lon="6.07332">
        <ele>871.57</ele>
        <time>2016-06-12T09:17:08Z</time>
      </trkpt>
      <trkpt lat="46.66071" lon="6.07345">
        <ele>870.61</ele>
        <time>2016-06-12T09:17:17Z</time>
      </trkpt>
      <trkpt lat="46.66064" lon="6.07358">
        <ele>871.57</ele>
        <time>2016-06-12T09:17:27Z</time>
      </trkpt>
      <trkpt lat="46.66054" lon="6.07378">
        <ele>872.53</ele>
        <time>2016-06-12T09:17:42Z</time>
      </trkpt>
      <trkpt lat="46.66045" lon="6.07393">
        <ele>871.57</ele>
        <time>2016-06-12T09:17:56Z</time>
      </trkpt>
      <trkpt lat="46.66038" lon="6.07407">
        <ele>870.13</ele>
        <time>2016-06-12T09:18:07Z</time>
      </trkpt>
      <trkpt lat="46.66027" lon="6.07421">
        <ele>871.57</ele>
        <time>2016-06-12T09:18:19Z</time>
      </trkpt>
      <trkpt lat="46.66014" lon="6.0743">
        <ele>872.05</ele>
        <time>2016-06-12T09:18:31Z</time>
      </trkpt>
      <trkpt lat="46.66004" lon="6.07433">
        <ele>871.57</ele>
        <time>2016-06-12T09:18:42Z</time>
      </trkpt>
      <trkpt lat="46.66" lon="6.07437">
        <ele>871.57</ele>
        <time>2016-06-12T09:18:46Z</time>
      </trkpt>
      <trkpt lat="46.65992" lon="6.07438">
        <ele>871.57</ele>
        <time>2016-06-12T09:18:52Z</time>
      </trkpt>
      <trkpt lat="46.65984" lon="6.0744">
        <ele>871.09</ele>
        <time>2016-06-12T09:19:00Z</time>
      </trkpt>
      <trkpt lat="46.65983" lon="6.07452">
        <ele>870.61</ele>
        <time>2016-06-12T09:19:10Z</time>
      </trkpt>
      <trkpt lat="46.65984" lon="6.07468">
        <ele>870.13</ele>
        <time>2016-06-12T09:19:22Z</time>
      </trkpt>
      <trkpt lat="46.65985" lon="6.07474">
        <ele>870.13</ele>
        <time>2016-06-12T09:19:25Z</time>
      </trkpt>
      <trkpt lat="46.65981" lon="6.07492">
        <ele>870.13</ele>
        <time>2016-06-12T09:19:34Z</time>
      </trkpt>
      <trkpt lat="46.65984" lon="6.07505">
        <ele>871.57</ele>
        <time>2016-06-12T09:19:45Z</time>
      </trkpt>
      <trkpt lat="46.65986" lon="6.07515">
        <ele>871.57</ele>
        <time>2016-06-12T09:19:51Z</time>
      </trkpt>
      <trkpt lat="46.65986" lon="6.07522">
        <ele>872.53</ele>
        <time>2016-06-12T09:19:55Z</time>
      </trkpt>
      <trkpt lat="46.65986" lon="6.07531">
        <ele>874.46</ele>
        <time>2016-06-12T09:20:08Z</time>
      </trkpt>
      <trkpt lat="46.65983" lon="6.07532">
        <ele>874.46</ele>
        <time>2016-06-12T09:20:11Z</time>
      </trkpt>
      <trkpt lat="46.65978" lon="6.07538">
        <ele>872.05</ele>
        <time>2016-06-12T09:20:18Z</time>
      </trkpt>
      <trkpt lat="46.65969" lon="6.07537">
        <ele>868.69</ele>
        <time>2016-06-12T09:20:27Z</time>
      </trkpt>
      <trkpt lat="46.65966" lon="6.07536">
        <ele>868.21</ele>
        <time>2016-06-12T09:20:30Z</time>
      </trkpt>
      <trkpt lat="46.65961" lon="6.07535">
        <ele>866.77</ele>
        <time>2016-06-12T09:20:35Z</time>
      </trkpt>
      <trkpt lat="46.65945" lon="6.07536">
        <ele>862.92</ele>
        <time>2016-06-12T09:20:48Z</time>
      </trkpt>
      <trkpt lat="46.65933" lon="6.07536">
        <ele>863.88</ele>
        <time>2016-06-12T09:20:59Z</time>
      </trkpt>
      <trkpt lat="46.65928" lon="6.07538">
        <ele>864.36</ele>
        <time>2016-06-12T09:21:04Z</time>
      </trkpt>
      <trkpt lat="46.65925" lon="6.0754">
        <ele>862.92</ele>
        <time>2016-06-12T09:21:07Z</time>
      </trkpt>
      <trkpt lat="46.65922" lon="6.0754">
        <ele>862.92</ele>
        <time>2016-06-12T09:21:11Z</time>
      </trkpt>
      <trkpt lat="46.65916" lon="6.07542">
        <ele>862.44</ele>
        <time>2016-06-12T09:21:16Z</time>
      </trkpt>
      <trkpt lat="46.65901" lon="6.07544">
        <ele>864.36</ele>
        <time>2016-06-12T09:21:29Z</time>
      </trkpt>
      <trkpt lat="46.65899" lon="6.07547">
        <ele>868.69</ele>
        <time>2016-06-12T09:21:47Z</time>
      </trkpt>
      <trkpt lat="46.65898" lon="6.07548">
        <ele>870.13</ele>
        <time>2016-06-12T09:22:04Z</time>
      </trkpt>
      <trkpt lat="46.65897" lon="6.07547">
        <ele>869.65</ele>
        <time>2016-06-12T09:22:30Z</time>
      </trkpt>
      <trkpt lat="46.65897" lon="6.07548">
        <ele>870.61</ele>
        <time>2016-06-12T09:22:52Z</time>
      </trkpt>
      <trkpt lat="46.65897" lon="6.07549">
        <ele>871.09</ele>
        <time>2016-06-12T09:23:06Z</time>
      </trkpt>
      <trkpt lat="46.65897" lon="6.0755">
        <ele>871.57</ele>
        <time>2016-06-12T09:23:25Z</time>
      </trkpt>
      <trkpt lat="46.65897" lon="6.07551">
        <ele>871.57</ele>
        <time>2016-06-12T09:23:42Z</time>
      </trkpt>
      <trkpt lat="46.65897" lon="6.07552">
        <ele>871.57</ele>
        <time>2016-06-12T09:23:43Z</time>
      </trkpt>
      <trkpt lat="46.65894" lon="6.07563">
        <ele>873.01</ele>
        <time>2016-06-12T09:23:50Z</time>
      </trkpt>
      <trkpt lat="46.65889" lon="6.07572">
        <ele>874.94</ele>
        <time>2016-06-12T09:23:57Z</time>
      </trkpt>
      <trkpt lat="46.65886" lon="6.07582">
        <ele>875.42</ele>
        <time>2016-06-12T09:24:04Z</time>
      </trkpt>
      <trkpt lat="46.65882" lon="6.0759">
        <ele>873.01</ele>
        <time>2016-06-12T09:24:14Z</time>
      </trkpt>
      <trkpt lat="46.65878" lon="6.07607">
        <ele>871.09</ele>
        <time>2016-06-12T09:24:28Z</time>
      </trkpt>
      <trkpt lat="46.65868" lon="6.07629">
        <ele>871.09</ele>
        <time>2016-06-12T09:24:41Z</time>
      </trkpt>
      <trkpt lat="46.65868" lon="6.07632">
        <ele>871.09</ele>
        <time>2016-06-12T09:24:43Z</time>
      </trkpt>
      <trkpt lat="46.65868" lon="6.07649">
        <ele>870.13</ele>
        <time>2016-06-12T09:24:54Z</time>
      </trkpt>
      <trkpt lat="46.65865" lon="6.07657">
        <ele>868.69</ele>
        <time>2016-06-12T09:25:00Z</time>
      </trkpt>
      <trkpt lat="46.65856" lon="6.07669">
        <ele>871.57</ele>
        <time>2016-06-12T09:25:13Z</time>
      </trkpt>
      <trkpt lat="46.6585" lon="6.07674">
        <ele>872.53</ele>
        <time>2016-06-12T09:25:20Z</time>
      </trkpt>
      <trkpt lat="46.65842" lon="6.07678">
        <ele>874.46</ele>
        <time>2016-06-12T09:25:32Z</time>
      </trkpt>
      <trkpt lat="46.65837" lon="6.0768">
        <ele>877.82</ele>
        <time>2016-06-12T09:25:39Z</time>
      </trkpt>
      <trkpt lat="46.65831" lon="6.0768">
        <ele>880.22</ele>
        <time>2016-06-12T09:25:48Z</time>
      </trkpt>
      <trkpt lat="46.65824" lon="6.07683">
        <ele>879.74</ele>
        <time>2016-06-12T09:25:59Z</time>
      </trkpt>
      <trkpt lat="46.65819" lon="6.07687">
        <ele>880.71</ele>
        <time>2016-06-12T09:26:11Z</time>
      </trkpt>
      <trkpt lat="46.65819" lon="6.07689">
        <ele>880.71</ele>
        <time>2016-06-12T09:26:12Z</time>
      </trkpt>
      <trkpt lat="46.65817" lon="6.07692">
        <ele>879.74</ele>
        <time>2016-06-12T09:26:15Z</time>
      </trkpt>
      <trkpt lat="46.65814" lon="6.077">
        <ele>880.22</ele>
        <time>2016-06-12T09:26:22Z</time>
      </trkpt>
      <trkpt lat="46.65806" lon="6.0771">
        <ele>880.22</ele>
        <time>2016-06-12T09:26:34Z</time>
      </trkpt>
      <trkpt lat="46.65797" lon="6.07722">
        <ele>879.74</ele>
        <time>2016-06-12T09:26:46Z</time>
      </trkpt>
      <trkpt lat="46.6579" lon="6.07728">
        <ele>881.67</ele>
        <time>2016-06-12T09:26:55Z</time>
      </trkpt>
      <trkpt lat="46.65781" lon="6.07726">
        <ele>884.55</ele>
        <time>2016-06-12T09:27:06Z</time>
      </trkpt>
      <trkpt lat="46.65775" lon="6.07716">
        <ele>886.47</ele>
        <time>2016-06-12T09:27:19Z</time>
      </trkpt>
      <trkpt lat="46.65775" lon="6.07716">
        <ele>885.99</ele>
        <time>2016-06-12T09:27:32Z</time>
      </trkpt>
      <trkpt lat="46.65776" lon="6.07716">
        <ele>885.51</ele>
        <time>2016-06-12T09:27:53Z</time>
      </trkpt>
      <trkpt lat="46.65776" lon="6.07716">
        <ele>885.51</ele>
        <time>2016-06-12T09:28:12Z</time>
      </trkpt>
      <trkpt lat="46.65777" lon="6.07716">
        <ele>885.51</ele>
        <time>2016-06-12T09:28:29Z</time>
      </trkpt>
      <trkpt lat="46.65771" lon="6.07709">
        <ele>885.99</ele>
        <time>2016-06-12T09:28:46Z</time>
      </trkpt>
      <trkpt lat="46.65762" lon="6.07698">
        <ele>885.99</ele>
        <time>2016-06-12T09:28:58Z</time>
      </trkpt>
      <trkpt lat="46.65761" lon="6.07695">
        <ele>885.51</ele>
        <time>2016-06-12T09:29:00Z</time>
      </trkpt>
      <trkpt lat="46.65755" lon="6.07688">
        <ele>885.03</ele>
        <time>2016-06-12T09:29:08Z</time>
      </trkpt>
      <trkpt lat="46.65748" lon="6.0768">
        <ele>887.43</ele>
        <time>2016-06-12T09:29:20Z</time>
      </trkpt>
      <trkpt lat="46.65742" lon="6.07676">
        <ele>887.43</ele>
        <time>2016-06-12T09:29:32Z</time>
      </trkpt>
      <trkpt lat="46.65731" lon="6.07665">
        <ele>888.88</ele>
        <time>2016-06-12T09:29:44Z</time>
      </trkpt>
      <trkpt lat="46.6572" lon="6.07654">
        <ele>888.88</ele>
        <time>2016-06-12T09:29:57Z</time>
      </trkpt>
      <trkpt lat="46.65718" lon="6.07652">
        <ele>887.91</ele>
        <time>2016-06-12T09:30:00Z</time>
      </trkpt>
      <trkpt lat="46.65714" lon="6.07646">
        <ele>888.4</ele>
        <time>2016-06-12T09:30:06Z</time>
      </trkpt>
      <trkpt lat="46.65709" lon="6.07634">
        <ele>890.32</ele>
        <time>2016-06-12T09:30:16Z</time>
      </trkpt>
      <trkpt lat="46.65708" lon="6.07632">
        <ele>890.8</ele>
        <time>2016-06-12T09:30:18Z</time>
      </trkpt>
      <trkpt lat="46.65703" lon="6.07625">
        <ele>890.8</ele>
        <time>2016-06-12T09:30:25Z</time>
      </trkpt>
      <trkpt lat="46.65697" lon="6.07617">
        <ele>891.76</ele>
        <time>2016-06-12T09:30:35Z</time>
      </trkpt>
      <trkpt lat="46.65689" lon="6.0761">
        <ele>893.68</ele>
        <time>2016-06-12T09:30:47Z</time>
      </trkpt>
      <trkpt lat="46.65681" lon="6.07606">
        <ele>895.61</ele>
        <time>2016-06-12T09:30:58Z</time>
      </trkpt>
      <trkpt lat="46.65676" lon="6.07606">
        <ele>895.61</ele>
        <time>2016-06-12T09:31:08Z</time>
      </trkpt>
      <trkpt lat="46.65673" lon="6.07609">
        <ele>897.05</ele>
        <time>2016-06-12T09:31:24Z</time>
      </trkpt>
      <trkpt lat="46.65672" lon="6.0761">
        <ele>897.53</ele>
        <time>2016-06-12T09:31:25Z</time>
      </trkpt>
      <trkpt lat="46.65672" lon="6.07619">
        <ele>898.97</ele>
        <time>2016-06-12T09:31:34Z</time>
      </trkpt>
      <trkpt lat="46.65673" lon="6.07623">
        <ele>899.45</ele>
        <time>2016-06-12T09:31:38Z</time>
      </trkpt>
      <trkpt lat="46.65674" lon="6.07627">
        <ele>899.93</ele>
        <time>2016-06-12T09:31:41Z</time>
      </trkpt>
      <trkpt lat="46.65675" lon="6.07638">
        <ele>900.89</ele>
        <time>2016-06-12T09:31:51Z</time>
      </trkpt>
      <trkpt lat="46.65676" lon="6.07649">
        <ele>900.89</ele>
        <time>2016-06-12T09:32:00Z</time>
      </trkpt>
      <trkpt lat="46.6568" lon="6.07663">
        <ele>903.78</ele>
        <time>2016-06-12T09:32:11Z</time>
      </trkpt>
      <trkpt lat="46.65684" lon="6.07673">
        <ele>905.7</ele>
        <time>2016-06-12T09:32:21Z</time>
      </trkpt>
      <trkpt lat="46.65689" lon="6.07687">
        <ele>909.06</ele>
        <time>2016-06-12T09:32:34Z</time>
      </trkpt>
      <trkpt lat="46.65693" lon="6.07698">
        <ele>908.58</ele>
        <time>2016-06-12T09:32:46Z</time>
      </trkpt>
      <trkpt lat="46.65694" lon="6.07702">
        <ele>908.1</ele>
        <time>2016-06-12T09:32:50Z</time>
      </trkpt>
      <trkpt lat="46.65696" lon="6.07714">
        <ele>908.1</ele>
        <time>2016-06-12T09:33:02Z</time>
      </trkpt>
      <trkpt lat="46.65697" lon="6.07716">
        <ele>908.58</ele>
        <time>2016-06-12T09:33:04Z</time>
      </trkpt>
      <trkpt lat="46.65699" lon="6.07727">
        <ele>909.54</ele>
        <time>2016-06-12T09:33:16Z</time>
      </trkpt>
      <trkpt lat="46.65701" lon="6.07734">
        <ele>910.99</ele>
        <time>2016-06-12T09:33:23Z</time>
      </trkpt>
      <trkpt lat="46.65701" lon="6.07738">
        <ele>912.43</ele>
        <time>2016-06-12T09:33:37Z</time>
      </trkpt>
      <trkpt lat="46.65699" lon="6.07746">
        <ele>914.83</ele>
        <time>2016-06-12T09:33:46Z</time>
      </trkpt>
      <trkpt lat="46.65698" lon="6.07753">
        <ele>916.27</ele>
        <time>2016-06-12T09:33:56Z</time>
      </trkpt>
      <trkpt lat="46.65699" lon="6.07756">
        <ele>916.75</ele>
        <time>2016-06-12T09:34:05Z</time>
      </trkpt>
      <trkpt lat="46.65694" lon="6.07753">
        <ele>916.75</ele>
        <time>2016-06-12T09:34:19Z</time>
      </trkpt>
      <trkpt lat="46.65691" lon="6.07752">
        <ele>916.27</ele>
        <time>2016-06-12T09:34:22Z</time>
      </trkpt>
      <trkpt lat="46.65688" lon="6.07752">
        <ele>916.75</ele>
        <time>2016-06-12T09:34:25Z</time>
      </trkpt>
      <trkpt lat="46.65684" lon="6.07753">
        <ele>917.72</ele>
        <time>2016-06-12T09:34:30Z</time>
      </trkpt>
      <trkpt lat="46.65679" lon="6.07754">
        <ele>918.2</ele>
        <time>2016-06-12T09:34:35Z</time>
      </trkpt>
      <trkpt lat="46.65674" lon="6.07752">
        <ele>919.16</ele>
        <time>2016-06-12T09:34:41Z</time>
      </trkpt>
      <trkpt lat="46.6567" lon="6.07748">
        <ele>919.16</ele>
        <time>2016-06-12T09:34:46Z</time>
      </trkpt>
      <trkpt lat="46.65667" lon="6.07747">
        <ele>920.12</ele>
        <time>2016-06-12T09:34:50Z</time>
      </trkpt>
      <trkpt lat="46.65664" lon="6.07745">
        <ele>920.6</ele>
        <time>2016-06-12T09:34:54Z</time>
      </trkpt>
      <trkpt lat="46.65657" lon="6.07741">
        <ele>920.6</ele>
        <time>2016-06-12T09:35:02Z</time>
      </trkpt>
      <trkpt lat="46.65655" lon="6.07739">
        <ele>920.6</ele>
        <time>2016-06-12T09:35:05Z</time>
      </trkpt>
      <trkpt lat="46.65651" lon="6.07736">
        <ele>920.6</ele>
        <time>2016-06-12T09:35:10Z</time>
      </trkpt>
      <trkpt lat="46.65645" lon="6.0773">
        <ele>921.08</ele>
        <time>2016-06-12T09:35:22Z</time>
      </trkpt>
      <trkpt lat="46.65639" lon="6.07727">
        <ele>922.52</ele>
        <time>2016-06-12T09:35:31Z</time>
      </trkpt>
      <trkpt lat="46.65637" lon="6.07726">
        <ele>923.48</ele>
        <time>2016-06-12T09:35:34Z</time>
      </trkpt>
      <trkpt lat="46.6563" lon="6.07726">
        <ele>923.96</ele>
        <time>2016-06-12T09:35:45Z</time>
      </trkpt>
      <trkpt lat="46.65624" lon="6.07727">
        <ele>926.85</ele>
        <time>2016-06-12T09:35:57Z</time>
      </trkpt>
      <trkpt lat="46.65618" lon="6.07728">
        <ele>927.81</ele>
        <time>2016-06-12T09:36:07Z</time>
      </trkpt>
      <trkpt lat="46.65611" lon="6.07731">
        <ele>929.73</ele>
        <time>2016-06-12T09:36:17Z</time>
      </trkpt>
      <trkpt lat="46.65604" lon="6.07733">
        <ele>930.69</ele>
        <time>2016-06-12T09:36:26Z</time>
      </trkpt>
      <trkpt lat="46.65594" lon="6.07735">
        <ele>932.62</ele>
        <time>2016-06-12T09:36:39Z</time>
      </trkpt>
      <trkpt lat="46.65585" lon="6.07736">
        <ele>934.54</ele>
        <time>2016-06-12T09:36:52Z</time>
      </trkpt>
      <trkpt lat="46.65583" lon="6.07734">
        <ele>934.54</ele>
        <time>2016-06-12T09:36:55Z</time>
      </trkpt>
      <trkpt lat="46.65574" lon="6.07731">
        <ele>935.98</ele>
        <time>2016-06-12T09:37:06Z</time>
      </trkpt>
      <trkpt lat="46.65562" lon="6.07727">
        <ele>934.06</ele>
        <time>2016-06-12T09:37:20Z</time>
      </trkpt>
      <trkpt lat="46.65557" lon="6.0772">
        <ele>932.14</ele>
        <time>2016-06-12T09:37:32Z</time>
      </trkpt>
      <trkpt lat="46.6555" lon="6.077">
        <ele>934.06</ele>
        <time>2016-06-12T09:37:44Z</time>
      </trkpt>
      <trkpt lat="46.65543" lon="6.07696">
        <ele>933.58</ele>
        <time>2016-06-12T09:37:58Z</time>
      </trkpt>
      <trkpt lat="46.65536" lon="6.07695">
        <ele>933.58</ele>
        <time>2016-06-12T09:38:10Z</time>
      </trkpt>
      <trkpt lat="46.65531" lon="6.07692">
        <ele>933.58</ele>
        <time>2016-06-12T09:38:20Z</time>
      </trkpt>
      <trkpt lat="46.65524" lon="6.07679">
        <ele>934.54</ele>
        <time>2016-06-12T09:38:32Z</time>
      </trkpt>
      <trkpt lat="46.65516" lon="6.07668">
        <ele>935.02</ele>
        <time>2016-06-12T09:38:42Z</time>
      </trkpt>
      <trkpt lat="46.65507" lon="6.07654">
        <ele>938.38</ele>
        <time>2016-06-12T09:38:54Z</time>
      </trkpt>
      <trkpt lat="46.65495" lon="6.07636">
        <ele>941.27</ele>
        <time>2016-06-12T09:39:11Z</time>
      </trkpt>
      <trkpt lat="46.65486" lon="6.07623">
        <ele>941.27</ele>
        <time>2016-06-12T09:39:24Z</time>
      </trkpt>
      <trkpt lat="46.65483" lon="6.07616">
        <ele>941.75</ele>
        <time>2016-06-12T09:39:28Z</time>
      </trkpt>
      <trkpt lat="46.65477" lon="6.07602">
        <ele>943.19</ele>
        <time>2016-06-12T09:39:41Z</time>
      </trkpt>
      <trkpt lat="46.6547" lon="6.07588">
        <ele>943.67</ele>
        <time>2016-06-12T09:39:56Z</time>
      </trkpt>
      <trkpt lat="46.65464" lon="6.07573">
        <ele>943.19</ele>
        <time>2016-06-12T09:40:08Z</time>
      </trkpt>
      <trkpt lat="46.65455" lon="6.07553">
        <ele>943.19</ele>
        <time>2016-06-12T09:40:23Z</time>
      </trkpt>
      <trkpt lat="46.65448" lon="6.07535">
        <ele>944.63</ele>
        <time>2016-06-12T09:40:36Z</time>
      </trkpt>
      <trkpt lat="46.65439" lon="6.07519">
        <ele>946.07</ele>
        <time>2016-06-12T09:40:48Z</time>
      </trkpt>
      <trkpt lat="46.65437" lon="6.07515">
        <ele>945.59</ele>
        <time>2016-06-12T09:40:51Z</time>
      </trkpt>
      <trkpt lat="46.6543" lon="6.07496">
        <ele>944.63</ele>
        <time>2016-06-12T09:41:05Z</time>
      </trkpt>
      <trkpt lat="46.65427" lon="6.07493">
        <ele>944.63</ele>
        <time>2016-06-12T09:41:08Z</time>
      </trkpt>
      <trkpt lat="46.65415" lon="6.07496">
        <ele>946.56</ele>
        <time>2016-06-12T09:41:21Z</time>
      </trkpt>
      <trkpt lat="46.65401" lon="6.07503">
        <ele>944.63</ele>
        <time>2016-06-12T09:41:35Z</time>
      </trkpt>
      <trkpt lat="46.65391" lon="6.07507">
        <ele>942.23</ele>
        <time>2016-06-12T09:41:44Z</time>
      </trkpt>
      <trkpt lat="46.65379" lon="6.07519">
        <ele>938.86</ele>
        <time>2016-06-12T09:41:58Z</time>
      </trkpt>
      <trkpt lat="46.65367" lon="6.0753">
        <ele>937.9</ele>
        <time>2016-06-12T09:42:13Z</time>
      </trkpt>
      <trkpt lat="46.65356" lon="6.07542">
        <ele>936.94</ele>
        <time>2016-06-12T09:42:26Z</time>
      </trkpt>
      <trkpt lat="46.65344" lon="6.07555">
        <ele>937.42</ele>
        <time>2016-06-12T09:42:39Z</time>
      </trkpt>
      <trkpt lat="46.65339" lon="6.07561">
        <ele>937.42</ele>
        <time>2016-06-12T09:42:48Z</time>
      </trkpt>
      <trkpt lat="46.65324" lon="6.07576">
        <ele>937.9</ele>
        <time>2016-06-12T09:43:02Z</time>
      </trkpt>
      <trkpt lat="46.65323" lon="6.07578">
        <ele>938.38</ele>
        <time>2016-06-12T09:43:03Z</time>
      </trkpt>
      <trkpt lat="46.65314" lon="6.07585">
        <ele>940.31</ele>
        <time>2016-06-12T09:43:15Z</time>
      </trkpt>
      <trkpt lat="46.65311" lon="6.07587">
        <ele>940.31</ele>
        <time>2016-06-12T09:43:30Z</time>
      </trkpt>
      <trkpt lat="46.65311" lon="6.07586">
        <ele>940.31</ele>
        <time>2016-06-12T09:43:31Z</time>
      </trkpt>
      <trkpt lat="46.65306" lon="6.07584">
        <ele>939.83</ele>
        <time>2016-06-12T09:43:43Z</time>
      </trkpt>
      <trkpt lat="46.65306" lon="6.07585">
        <ele>940.79</ele>
        <time>2016-06-12T09:44:07Z</time>
      </trkpt>
      <trkpt lat="46.65307" lon="6.07586">
        <ele>940.79</ele>
        <time>2016-06-12T09:44:24Z</time>
      </trkpt>
      <trkpt lat="46.65312" lon="6.07586">
        <ele>940.79</ele>
        <time>2016-06-12T09:44:31Z</time>
      </trkpt>
      <trkpt lat="46.65314" lon="6.07584">
        <ele>940.79</ele>
        <time>2016-06-12T09:44:33Z</time>
      </trkpt>
      <trkpt lat="46.65309" lon="6.07575">
        <ele>940.79</ele>
        <time>2016-06-12T09:44:44Z</time>
      </trkpt>
      <trkpt lat="46.65304" lon="6.07569">
        <ele>939.83</ele>
        <time>2016-06-12T09:44:55Z</time>
      </trkpt>
      <trkpt lat="46.65297" lon="6.0756">
        <ele>940.79</ele>
        <time>2016-06-12T09:45:03Z</time>
      </trkpt>
      <trkpt lat="46.65287" lon="6.07546">
        <ele>938.86</ele>
        <time>2016-06-12T09:45:16Z</time>
      </trkpt>
      <trkpt lat="46.65284" lon="6.07542">
        <ele>939.35</ele>
        <time>2016-06-12T09:45:19Z</time>
      </trkpt>
      <trkpt lat="46.65273" lon="6.07526">
        <ele>941.75</ele>
        <time>2016-06-12T09:45:32Z</time>
      </trkpt>
      <trkpt lat="46.65267" lon="6.07517">
        <ele>942.23</ele>
        <time>2016-06-12T09:45:39Z</time>
      </trkpt>
      <trkpt lat="46.65255" lon="6.075">
        <ele>943.19</ele>
        <time>2016-06-12T09:45:54Z</time>
      </trkpt>
      <trkpt lat="46.65243" lon="6.07483">
        <ele>943.19</ele>
        <time>2016-06-12T09:46:09Z</time>
      </trkpt>
      <trkpt lat="46.65239" lon="6.07478">
        <ele>943.19</ele>
        <time>2016-06-12T09:46:14Z</time>
      </trkpt>
      <trkpt lat="46.65236" lon="6.07474">
        <ele>942.71</ele>
        <time>2016-06-12T09:46:18Z</time>
      </trkpt>
      <trkpt lat="46.65234" lon="6.07469">
        <ele>941.75</ele>
        <time>2016-06-12T09:46:22Z</time>
      </trkpt>
      <trkpt lat="46.65223" lon="6.07453">
        <ele>940.31</ele>
        <time>2016-06-12T09:46:36Z</time>
      </trkpt>
      <trkpt lat="46.65215" lon="6.07438">
        <ele>940.79</ele>
        <time>2016-06-12T09:46:47Z</time>
      </trkpt>
      <trkpt lat="46.65207" lon="6.07423">
        <ele>942.71</ele>
        <time>2016-06-12T09:46:58Z</time>
      </trkpt>
      <trkpt lat="46.65199" lon="6.07406">
        <ele>943.67</ele>
        <time>2016-06-12T09:47:11Z</time>
      </trkpt>
      <trkpt lat="46.65194" lon="6.07395">
        <ele>946.07</ele>
        <time>2016-06-12T09:47:19Z</time>
      </trkpt>
      <trkpt lat="46.65187" lon="6.07378">
        <ele>947.52</ele>
        <time>2016-06-12T09:47:32Z</time>
      </trkpt>
      <trkpt lat="46.6518" lon="6.07362">
        <ele>949.44</ele>
        <time>2016-06-12T09:47:43Z</time>
      </trkpt>
      <trkpt lat="46.65178" lon="6.07357">
        <ele>949.44</ele>
        <time>2016-06-12T09:47:46Z</time>
      </trkpt>
      <trkpt lat="46.65171" lon="6.0734">
        <ele>950.4</ele>
        <time>2016-06-12T09:47:59Z</time>
      </trkpt>
      <trkpt lat="46.65166" lon="6.07332">
        <ele>951.36</ele>
        <time>2016-06-12T09:48:06Z</time>
      </trkpt>
      <trkpt lat="46.65155" lon="6.07318">
        <ele>952.32</ele>
        <time>2016-06-12T09:48:18Z</time>
      </trkpt>
      <trkpt lat="46.65153" lon="6.07316">
        <ele>952.8</ele>
        <time>2016-06-12T09:48:20Z</time>
      </trkpt>
      <trkpt lat="46.65141" lon="6.07301">
        <ele>952.8</ele>
        <time>2016-06-12T09:48:35Z</time>
      </trkpt>
      <trkpt lat="46.6513" lon="6.07295">
        <ele>954.25</ele>
        <time>2016-06-12T09:48:46Z</time>
      </trkpt>
      <trkpt lat="46.65125" lon="6.07297">
        <ele>954.73</ele>
        <time>2016-06-12T09:48:51Z</time>
      </trkpt>
      <trkpt lat="46.65123" lon="6.07299">
        <ele>954.73</ele>
        <time>2016-06-12T09:48:53Z</time>
      </trkpt>
      <trkpt lat="46.65112" lon="6.07312">
        <ele>955.21</ele>
        <time>2016-06-12T09:49:08Z</time>
      </trkpt>
      <trkpt lat="46.65112" lon="6.07314">
        <ele>955.21</ele>
        <time>2016-06-12T09:49:10Z</time>
      </trkpt>
      <trkpt lat="46.6511" lon="6.07323">
        <ele>955.21</ele>
        <time>2016-06-12T09:49:16Z</time>
      </trkpt>
      <trkpt lat="46.6511" lon="6.07327">
        <ele>954.73</ele>
        <time>2016-06-12T09:49:19Z</time>
      </trkpt>
      <trkpt lat="46.6511" lon="6.07337">
        <ele>954.73</ele>
        <time>2016-06-12T09:49:25Z</time>
      </trkpt>
      <trkpt lat="46.65108" lon="6.07344">
        <ele>954.73</ele>
        <time>2016-06-12T09:49:30Z</time>
      </trkpt>
      <trkpt lat="46.65108" lon="6.07365">
        <ele>955.69</ele>
        <time>2016-06-12T09:49:43Z</time>
      </trkpt>
      <trkpt lat="46.65107" lon="6.07375">
        <ele>955.21</ele>
        <time>2016-06-12T09:49:48Z</time>
      </trkpt>
      <trkpt lat="46.65106" lon="6.07394">
        <ele>955.69</ele>
        <time>2016-06-12T09:50:00Z</time>
      </trkpt>
      <trkpt lat="46.65105" lon="6.07411">
        <ele>957.13</ele>
        <time>2016-06-12T09:50:12Z</time>
      </trkpt>
      <trkpt lat="46.65102" lon="6.07434">
        <ele>957.61</ele>
        <time>2016-06-12T09:50:25Z</time>
      </trkpt>
      <trkpt lat="46.65101" lon="6.07437">
        <ele>957.13</ele>
        <time>2016-06-12T09:50:27Z</time>
      </trkpt>
      <trkpt lat="46.651" lon="6.07459">
        <ele>956.65</ele>
        <time>2016-06-12T09:50:41Z</time>
      </trkpt>
      <trkpt lat="46.65096" lon="6.07481">
        <ele>956.17</ele>
        <time>2016-06-12T09:50:54Z</time>
      </trkpt>
      <trkpt lat="46.65095" lon="6.07498">
        <ele>957.61</ele>
        <time>2016-06-12T09:51:05Z</time>
      </trkpt>
      <trkpt lat="46.65094" lon="6.07503">
        <ele>957.13</ele>
        <time>2016-06-12T09:51:08Z</time>
      </trkpt>
      <trkpt lat="46.65093" lon="6.07508">
        <ele>958.09</ele>
        <time>2016-06-12T09:51:11Z</time>
      </trkpt>
      <trkpt lat="46.65091" lon="6.07514">
        <ele>958.09</ele>
        <time>2016-06-12T09:51:15Z</time>
      </trkpt>
      <trkpt lat="46.65087" lon="6.0753">
        <ele>956.65</ele>
        <time>2016-06-12T09:51:28Z</time>
      </trkpt>
      <trkpt lat="46.65086" lon="6.07532">
        <ele>957.13</ele>
        <time>2016-06-12T09:51:29Z</time>
      </trkpt>
      <trkpt lat="46.65085" lon="6.07536">
        <ele>957.13</ele>
        <time>2016-06-12T09:51:32Z</time>
      </trkpt>
      <trkpt lat="46.6508" lon="6.07552">
        <ele>959.05</ele>
        <time>2016-06-12T09:51:44Z</time>
      </trkpt>
      <trkpt lat="46.65078" lon="6.0756">
        <ele>960.01</ele>
        <time>2016-06-12T09:51:50Z</time>
      </trkpt>
      <trkpt lat="46.65075" lon="6.07576">
        <ele>961.94</ele>
        <time>2016-06-12T09:52:02Z</time>
      </trkpt>
      <trkpt lat="46.65073" lon="6.07586">
        <ele>962.9</ele>
        <time>2016-06-12T09:52:10Z</time>
      </trkpt>
      <trkpt lat="46.65069" lon="6.07599">
        <ele>963.38</ele>
        <time>2016-06-12T09:52:21Z</time>
      </trkpt>
      <trkpt lat="46.65066" lon="6.07617">
        <ele>963.38</ele>
        <time>2016-06-12T09:52:32Z</time>
      </trkpt>
      <trkpt lat="46.65065" lon="6.07622">
        <ele>963.38</ele>
        <time>2016-06-12T09:52:35Z</time>
      </trkpt>
      <trkpt lat="46.65067" lon="6.07641">
        <ele>963.38</ele>
        <time>2016-06-12T09:52:48Z</time>
      </trkpt>
      <trkpt lat="46.65066" lon="6.07643">
        <ele>963.38</ele>
        <time>2016-06-12T09:52:50Z</time>
      </trkpt>
      <trkpt lat="46.65067" lon="6.07647">
        <ele>962.9</ele>
        <time>2016-06-12T09:52:52Z</time>
      </trkpt>
      <trkpt lat="46.65068" lon="6.07665">
        <ele>962.9</ele>
        <time>2016-06-12T09:53:04Z</time>
      </trkpt>
      <trkpt lat="46.65069" lon="6.07673">
        <ele>963.86</ele>
        <time>2016-06-12T09:53:10Z</time>
      </trkpt>
      <trkpt lat="46.65069" lon="6.07676">
        <ele>963.86</ele>
        <time>2016-06-12T09:53:12Z</time>
      </trkpt>
      <trkpt lat="46.65071" lon="6.07693">
        <ele>966.74</ele>
        <time>2016-06-12T09:53:23Z</time>
      </trkpt>
      <trkpt lat="46.65073" lon="6.07705">
        <ele>968.67</ele>
        <time>2016-06-12T09:53:31Z</time>
      </trkpt>
      <trkpt lat="46.65074" lon="6.07712">
        <ele>969.15</ele>
        <time>2016-06-12T09:53:36Z</time>
      </trkpt>
      <trkpt lat="46.65075" lon="6.07715">
        <ele>969.63</ele>
        <time>2016-06-12T09:53:38Z</time>
      </trkpt>
      <trkpt lat="46.65075" lon="6.07718">
        <ele>970.11</ele>
        <time>2016-06-12T09:53:40Z</time>
      </trkpt>
      <trkpt lat="46.65076" lon="6.07721">
        <ele>970.59</ele>
        <time>2016-06-12T09:53:42Z</time>
      </trkpt>
      <trkpt lat="46.65076" lon="6.07724">
        <ele>970.59</ele>
        <time>2016-06-12T09:53:44Z</time>
      </trkpt>
      <trkpt lat="46.65078" lon="6.07727">
        <ele>970.59</ele>
        <time>2016-06-12T09:53:46Z</time>
      </trkpt>
      <trkpt lat="46.65078" lon="6.07731">
        <ele>970.59</ele>
        <time>2016-06-12T09:53:49Z</time>
      </trkpt>
      <trkpt lat="46.65078" lon="6.07746">
        <ele>971.55</ele>
        <time>2016-06-12T09:54:00Z</time>
      </trkpt>
      <trkpt lat="46.65077" lon="6.07752">
        <ele>971.55</ele>
        <time>2016-06-12T09:54:04Z</time>
      </trkpt>
      <trkpt lat="46.65077" lon="6.07769">
        <ele>973.47</ele>
        <time>2016-06-12T09:54:15Z</time>
      </trkpt>
      <trkpt lat="46.65079" lon="6.07787">
        <ele>974.91</ele>
        <time>2016-06-12T09:54:27Z</time>
      </trkpt>
      <trkpt lat="46.65079" lon="6.07794">
        <ele>974.91</ele>
        <time>2016-06-12T09:54:33Z</time>
      </trkpt>
      <trkpt lat="46.65078" lon="6.07801">
        <ele>975.39</ele>
        <time>2016-06-12T09:54:38Z</time>
      </trkpt>
      <trkpt lat="46.65075" lon="6.07809">
        <ele>977.8</ele>
        <time>2016-06-12T09:54:47Z</time>
      </trkpt>
      <trkpt lat="46.65074" lon="6.07811">
        <ele>977.8</ele>
        <time>2016-06-12T09:54:49Z</time>
      </trkpt>
      <trkpt lat="46.65071" lon="6.07814">
        <ele>977.8</ele>
        <time>2016-06-12T09:54:52Z</time>
      </trkpt>
      <trkpt lat="46.65064" lon="6.07821">
        <ele>978.76</ele>
        <time>2016-06-12T09:55:04Z</time>
      </trkpt>
      <trkpt lat="46.65061" lon="6.07824">
        <ele>979.24</ele>
        <time>2016-06-12T09:55:08Z</time>
      </trkpt>
      <trkpt lat="46.65056" lon="6.0783">
        <ele>978.28</ele>
        <time>2016-06-12T09:55:15Z</time>
      </trkpt>
      <trkpt lat="46.65045" lon="6.07841">
        <ele>979.24</ele>
        <time>2016-06-12T09:55:30Z</time>
      </trkpt>
      <trkpt lat="46.65039" lon="6.07851">
        <ele>977.8</ele>
        <time>2016-06-12T09:55:41Z</time>
      </trkpt>
      <trkpt lat="46.65031" lon="6.07866">
        <ele>978.28</ele>
        <time>2016-06-12T09:55:55Z</time>
      </trkpt>
      <trkpt lat="46.65028" lon="6.0788">
        <ele>979.72</ele>
        <time>2016-06-12T09:56:08Z</time>
      </trkpt>
      <trkpt lat="46.65026" lon="6.07887">
        <ele>978.76</ele>
        <time>2016-06-12T09:56:14Z</time>
      </trkpt>
      <trkpt lat="46.65025" lon="6.07903">
        <ele>977.8</ele>
        <time>2016-06-12T09:56:25Z</time>
      </trkpt>
      <trkpt lat="46.65026" lon="6.07928">
        <ele>980.2</ele>
        <time>2016-06-12T09:56:39Z</time>
      </trkpt>
      <trkpt lat="46.65026" lon="6.07934">
        <ele>980.2</ele>
        <time>2016-06-12T09:56:43Z</time>
      </trkpt>
      <trkpt lat="46.65027" lon="6.0794">
        <ele>982.6</ele>
        <time>2016-06-12T09:56:56Z</time>
      </trkpt>
      <trkpt lat="46.65028" lon="6.07945">
        <ele>984.53</ele>
        <time>2016-06-12T09:57:09Z</time>
      </trkpt>
      <trkpt lat="46.6503" lon="6.07956">
        <ele>985.97</ele>
        <time>2016-06-12T09:57:16Z</time>
      </trkpt>
      <trkpt lat="46.65028" lon="6.07958">
        <ele>985.97</ele>
        <time>2016-06-12T09:57:19Z</time>
      </trkpt>
      <trkpt lat="46.65027" lon="6.07967">
        <ele>986.45</ele>
        <time>2016-06-12T09:57:25Z</time>
      </trkpt>
      <trkpt lat="46.65029" lon="6.07987">
        <ele>985.97</ele>
        <time>2016-06-12T09:57:38Z</time>
      </trkpt>
      <trkpt lat="46.65028" lon="6.07992">
        <ele>985.97</ele>
        <time>2016-06-12T09:57:42Z</time>
      </trkpt>
      <trkpt lat="46.65026" lon="6.08012">
        <ele>987.41</ele>
        <time>2016-06-12T09:57:54Z</time>
      </trkpt>
      <trkpt lat="46.65021" lon="6.08025">
        <ele>988.37</ele>
        <time>2016-06-12T09:58:04Z</time>
      </trkpt>
      <trkpt lat="46.65012" lon="6.08043">
        <ele>987.89</ele>
        <time>2016-06-12T09:58:18Z</time>
      </trkpt>
      <trkpt lat="46.65003" lon="6.08053">
        <ele>987.89</ele>
        <time>2016-06-12T09:58:29Z</time>
      </trkpt>
      <trkpt lat="46.65001" lon="6.08055">
        <ele>987.89</ele>
        <time>2016-06-12T09:58:31Z</time>
      </trkpt>
      <trkpt lat="46.64997" lon="6.0806">
        <ele>988.37</ele>
        <time>2016-06-12T09:58:37Z</time>
      </trkpt>
      <trkpt lat="46.64988" lon="6.08072">
        <ele>990.78</ele>
        <time>2016-06-12T09:58:50Z</time>
      </trkpt>
      <trkpt lat="46.64984" lon="6.08077">
        <ele>991.26</ele>
        <time>2016-06-12T09:58:57Z</time>
      </trkpt>
      <trkpt lat="46.64978" lon="6.08082">
        <ele>992.7</ele>
        <time>2016-06-12T09:59:06Z</time>
      </trkpt>
      <trkpt lat="46.64968" lon="6.08093">
        <ele>995.1</ele>
        <time>2016-06-12T09:59:19Z</time>
      </trkpt>
      <trkpt lat="46.6496" lon="6.08102">
        <ele>995.1</ele>
        <time>2016-06-12T09:59:32Z</time>
      </trkpt>
      <trkpt lat="46.64956" lon="6.08108">
        <ele>996.54</ele>
        <time>2016-06-12T09:59:40Z</time>
      </trkpt>
      <trkpt lat="46.64947" lon="6.08119">
        <ele>997.02</ele>
        <time>2016-06-12T09:59:54Z</time>
      </trkpt>
      <trkpt lat="46.64938" lon="6.0813">
        <ele>997.51</ele>
        <time>2016-06-12T10:00:08Z</time>
      </trkpt>
      <trkpt lat="46.64934" lon="6.08137">
        <ele>998.47</ele>
        <time>2016-06-12T10:00:17Z</time>
      </trkpt>
      <trkpt lat="46.64928" lon="6.08142">
        <ele>998.95</ele>
        <time>2016-06-12T10:00:25Z</time>
      </trkpt>
      <trkpt lat="46.64921" lon="6.08151">
        <ele>998.47</ele>
        <time>2016-06-12T10:00:38Z</time>
      </trkpt>
      <trkpt lat="46.64916" lon="6.08158">
        <ele>999.91</ele>
        <time>2016-06-12T10:00:50Z</time>
      </trkpt>
      <trkpt lat="46.64913" lon="6.08162">
        <ele>999.91</ele>
        <time>2016-06-12T10:00:55Z</time>
      </trkpt>
      <trkpt lat="46.64905" lon="6.08173">
        <ele>1001.35</ele>
        <time>2016-06-12T10:01:07Z</time>
      </trkpt>
      <trkpt lat="46.64898" lon="6.0818">
        <ele>1003.27</ele>
        <time>2016-06-12T10:01:19Z</time>
      </trkpt>
      <trkpt lat="46.64889" lon="6.08188">
        <ele>1003.27</ele>
        <time>2016-06-12T10:01:33Z</time>
      </trkpt>
      <trkpt lat="46.64881" lon="6.08193">
        <ele>1007.12</ele>
        <time>2016-06-12T10:01:45Z</time>
      </trkpt>
      <trkpt lat="46.64877" lon="6.08194">
        <ele>1008.08</ele>
        <time>2016-06-12T10:01:56Z</time>
      </trkpt>
      <trkpt lat="46.64874" lon="6.08195">
        <ele>1008.08</ele>
        <time>2016-06-12T10:01:58Z</time>
      </trkpt>
      <trkpt lat="46.64866" lon="6.08208">
        <ele>1006.16</ele>
        <time>2016-06-12T10:02:13Z</time>
      </trkpt>
      <trkpt lat="46.64866" lon="6.08222">
        <ele>1006.16</ele>
        <time>2016-06-12T10:02:24Z</time>
      </trkpt>
      <trkpt lat="46.64869" lon="6.08239">
        <ele>1006.16</ele>
        <time>2016-06-12T10:02:38Z</time>
      </trkpt>
      <trkpt lat="46.64869" lon="6.08254">
        <ele>1007.12</ele>
        <time>2016-06-12T10:02:50Z</time>
      </trkpt>
      <trkpt lat="46.64869" lon="6.08265">
        <ele>1007.12</ele>
        <time>2016-06-12T10:03:01Z</time>
      </trkpt>
      <trkpt lat="46.6487" lon="6.08268">
        <ele>1007.6</ele>
        <time>2016-06-12T10:03:05Z</time>
      </trkpt>
      <trkpt lat="46.6487" lon="6.08283">
        <ele>1009.04</ele>
        <time>2016-06-12T10:03:16Z</time>
      </trkpt>
      <trkpt lat="46.64872" lon="6.08297">
        <ele>1009.04</ele>
        <time>2016-06-12T10:03:26Z</time>
      </trkpt>
      <trkpt lat="46.64874" lon="6.08313">
        <ele>1009.52</ele>
        <time>2016-06-12T10:03:36Z</time>
      </trkpt>
      <trkpt lat="46.64873" lon="6.08329">
        <ele>1009.04</ele>
        <time>2016-06-12T10:03:48Z</time>
      </trkpt>
      <trkpt lat="46.64875" lon="6.08345">
        <ele>1008.56</ele>
        <time>2016-06-12T10:04:01Z</time>
      </trkpt>
      <trkpt lat="46.64878" lon="6.08363">
        <ele>1008.56</ele>
        <time>2016-06-12T10:04:14Z</time>
      </trkpt>
      <trkpt lat="46.64886" lon="6.08375">
        <ele>1007.6</ele>
        <time>2016-06-12T10:04:27Z</time>
      </trkpt>
      <trkpt lat="46.64889" lon="6.08383">
        <ele>1007.6</ele>
        <time>2016-06-12T10:04:33Z</time>
      </trkpt>
      <trkpt lat="46.649" lon="6.08391">
        <ele>1010.96</ele>
        <time>2016-06-12T10:04:43Z</time>
      </trkpt>
      <trkpt lat="46.6491" lon="6.08404">
        <ele>1012.89</ele>
        <time>2016-06-12T10:04:56Z</time>
      </trkpt>
      <trkpt lat="46.64918" lon="6.08416">
        <ele>1014.33</ele>
        <time>2016-06-12T10:05:07Z</time>
      </trkpt>
      <trkpt lat="46.64929" lon="6.08428">
        <ele>1014.81</ele>
        <time>2016-06-12T10:05:20Z</time>
      </trkpt>
      <trkpt lat="46.64939" lon="6.08444">
        <ele>1014.81</ele>
        <time>2016-06-12T10:05:34Z</time>
      </trkpt>
      <trkpt lat="46.64943" lon="6.08451">
        <ele>1015.29</ele>
        <time>2016-06-12T10:05:41Z</time>
      </trkpt>
      <trkpt lat="46.6495" lon="6.08464">
        <ele>1015.29</ele>
        <time>2016-06-12T10:05:53Z</time>
      </trkpt>
      <trkpt lat="46.64956" lon="6.08478">
        <ele>1016.73</ele>
        <time>2016-06-12T10:06:05Z</time>
      </trkpt>
      <trkpt lat="46.6496" lon="6.08485">
        <ele>1017.69</ele>
        <time>2016-06-12T10:06:12Z</time>
      </trkpt>
      <trkpt lat="46.64963" lon="6.08497">
        <ele>1018.65</ele>
        <time>2016-06-12T10:06:24Z</time>
      </trkpt>
      <trkpt lat="46.64962" lon="6.08502">
        <ele>1017.21</ele>
        <time>2016-06-12T10:06:36Z</time>
      </trkpt>
      <trkpt lat="46.64962" lon="6.08501">
        <ele>1016.25</ele>
        <time>2016-06-12T10:06:54Z</time>
      </trkpt>
      <trkpt lat="46.64961" lon="6.08502">
        <ele>1016.25</ele>
        <time>2016-06-12T10:06:59Z</time>
      </trkpt>
      <trkpt lat="46.64945" lon="6.08508">
        <ele>1015.77</ele>
        <time>2016-06-12T10:07:14Z</time>
      </trkpt>
      <trkpt lat="46.64933" lon="6.08511">
        <ele>1013.37</ele>
        <time>2016-06-12T10:07:26Z</time>
      </trkpt>
      <trkpt lat="46.64924" lon="6.08521">
        <ele>1012.89</ele>
        <time>2016-06-12T10:07:38Z</time>
      </trkpt>
      <trkpt lat="46.64921" lon="6.08524">
        <ele>1012.41</ele>
        <time>2016-06-12T10:07:44Z</time>
      </trkpt>
      <trkpt lat="46.64918" lon="6.08526">
        <ele>1011.93</ele>
        <time>2016-06-12T10:07:47Z</time>
      </trkpt>
      <trkpt lat="46.64908" lon="6.08538">
        <ele>1012.41</ele>
        <time>2016-06-12T10:07:58Z</time>
      </trkpt>
      <trkpt lat="46.64899" lon="6.08546">
        <ele>1012.41</ele>
        <time>2016-06-12T10:08:10Z</time>
      </trkpt>
      <trkpt lat="46.64898" lon="6.08547">
        <ele>1012.41</ele>
        <time>2016-06-12T10:08:11Z</time>
      </trkpt>
      <trkpt lat="46.64888" lon="6.08558">
        <ele>1011.93</ele>
        <time>2016-06-12T10:08:22Z</time>
      </trkpt>
      <trkpt lat="46.64886" lon="6.0856">
        <ele>1011.93</ele>
        <time>2016-06-12T10:08:25Z</time>
      </trkpt>
      <trkpt lat="46.64876" lon="6.08566">
        <ele>1012.41</ele>
        <time>2016-06-12T10:08:38Z</time>
      </trkpt>
      <trkpt lat="46.64876" lon="6.08566">
        <ele>1012.89</ele>
        <time>2016-06-12T10:08:41Z</time>
      </trkpt>
      <trkpt lat="46.64873" lon="6.08565">
        <ele>1012.89</ele>
        <time>2016-06-12T10:08:44Z</time>
      </trkpt>
      <trkpt lat="46.64863" lon="6.08559">
        <ele>1012.89</ele>
        <time>2016-06-12T10:08:57Z</time>
      </trkpt>
      <trkpt lat="46.64856" lon="6.08557">
        <ele>1012.41</ele>
        <time>2016-06-12T10:09:08Z</time>
      </trkpt>
      <trkpt lat="46.64849" lon="6.08552">
        <ele>1011.44</ele>
        <time>2016-06-12T10:09:20Z</time>
      </trkpt>
      <trkpt lat="46.64837" lon="6.08544">
        <ele>1011.93</ele>
        <time>2016-06-12T10:09:32Z</time>
      </trkpt>
      <trkpt lat="46.64838" lon="6.08539">
        <ele>1014.81</ele>
        <time>2016-06-12T10:09:45Z</time>
      </trkpt>
      <trkpt lat="46.64838" lon="6.08539">
        <ele>1014.81</ele>
        <time>2016-06-12T10:10:01Z</time>
      </trkpt>
      <trkpt lat="46.64838" lon="6.08539">
        <ele>1015.29</ele>
        <time>2016-06-12T10:10:29Z</time>
      </trkpt>
      <trkpt lat="46.64838" lon="6.08539">
        <ele>1015.77</ele>
        <time>2016-06-12T10:10:54Z</time>
      </trkpt>
      <trkpt lat="46.64838" lon="6.08539">
        <ele>1016.73</ele>
        <time>2016-06-12T10:11:19Z</time>
      </trkpt>
      <trkpt lat="46.64837" lon="6.08539">
        <ele>1017.21</ele>
        <time>2016-06-12T10:11:35Z</time>
      </trkpt>
      <trkpt lat="46.64836" lon="6.0854">
        <ele>1017.69</ele>
        <time>2016-06-12T10:11:52Z</time>
      </trkpt>
      <trkpt lat="46.64837" lon="6.08541">
        <ele>1017.69</ele>
        <time>2016-06-12T10:12:18Z</time>
      </trkpt>
      <trkpt lat="46.64836" lon="6.08542">
        <ele>1018.17</ele>
        <time>2016-06-12T10:12:39Z</time>
      </trkpt>
      <trkpt lat="46.64837" lon="6.08543">
        <ele>1018.17</ele>
        <time>2016-06-12T10:12:59Z</time>
      </trkpt>
      <trkpt lat="46.64838" lon="6.08542">
        <ele>1018.17</ele>
        <time>2016-06-12T10:13:31Z</time>
      </trkpt>
      <trkpt lat="46.64838" lon="6.08542">
        <ele>1018.17</ele>
        <time>2016-06-12T10:13:53Z</time>
      </trkpt>
      <trkpt lat="46.64838" lon="6.08542">
        <ele>1018.65</ele>
        <time>2016-06-12T10:14:15Z</time>
      </trkpt>
      <trkpt lat="46.64838" lon="6.08541">
        <ele>1018.17</ele>
        <time>2016-06-12T10:14:42Z</time>
      </trkpt>
      <trkpt lat="46.64838" lon="6.08541">
        <ele>1018.17</ele>
        <time>2016-06-12T10:15:07Z</time>
      </trkpt>
      <trkpt lat="46.64838" lon="6.0854">
        <ele>1017.69</ele>
        <time>2016-06-12T10:15:25Z</time>
      </trkpt>
      <trkpt lat="46.64836" lon="6.08541">
        <ele>1018.17</ele>
        <time>2016-06-12T10:15:36Z</time>
      </trkpt>
      <trkpt lat="46.64834" lon="6.0854">
        <ele>1017.69</ele>
        <time>2016-06-12T10:15:39Z</time>
      </trkpt>
      <trkpt lat="46.64821" lon="6.08532">
        <ele>1017.21</ele>
        <time>2016-06-12T10:15:50Z</time>
      </trkpt>
      <trkpt lat="46.64817" lon="6.0853">
        <ele>1018.17</ele>
        <time>2016-06-12T10:16:04Z</time>
      </trkpt>
      <trkpt lat="46.64815" lon="6.08531">
        <ele>1017.69</ele>
        <time>2016-06-12T10:16:22Z</time>
      </trkpt>
      <trkpt lat="46.64815" lon="6.0853">
        <ele>1017.69</ele>
        <time>2016-06-12T10:16:41Z</time>
      </trkpt>
      <trkpt lat="46.64814" lon="6.08529">
        <ele>1017.69</ele>
        <time>2016-06-12T10:16:43Z</time>
      </trkpt>
      <trkpt lat="46.6481" lon="6.08526">
        <ele>1018.17</ele>
        <time>2016-06-12T10:16:47Z</time>
      </trkpt>
      <trkpt lat="46.64807" lon="6.08524">
        <ele>1018.65</ele>
        <time>2016-06-12T10:16:49Z</time>
      </trkpt>
      <trkpt lat="46.64806" lon="6.08521">
        <ele>1019.13</ele>
        <time>2016-06-12T10:16:51Z</time>
      </trkpt>
      <trkpt lat="46.64799" lon="6.0851">
        <ele>1018.17</ele>
        <time>2016-06-12T10:17:01Z</time>
      </trkpt>
      <trkpt lat="46.64796" lon="6.08505">
        <ele>1017.69</ele>
        <time>2016-06-12T10:17:06Z</time>
      </trkpt>
      <trkpt lat="46.64786" lon="6.08491">
        <ele>1016.25</ele>
        <time>2016-06-12T10:17:19Z</time>
      </trkpt>
      <trkpt lat="46.64779" lon="6.08482">
        <ele>1015.77</ele>
        <time>2016-06-12T10:17:28Z</time>
      </trkpt>
      <trkpt lat="46.64774" lon="6.08475">
        <ele>1015.77</ele>
        <time>2016-06-12T10:17:35Z</time>
      </trkpt>
      <trkpt lat="46.64763" lon="6.08462">
        <ele>1016.25</ele>
        <time>2016-06-12T10:17:50Z</time>
      </trkpt>
      <trkpt lat="46.64758" lon="6.08455">
        <ele>1018.65</ele>
        <time>2016-06-12T10:17:58Z</time>
      </trkpt>
      <trkpt lat="46.64751" lon="6.08445">
        <ele>1020.58</ele>
        <time>2016-06-12T10:18:08Z</time>
      </trkpt>
      <trkpt lat="46.64743" lon="6.08437">
        <ele>1022.98</ele>
        <time>2016-06-12T10:18:19Z</time>
      </trkpt>
      <trkpt lat="46.6473" lon="6.08428">
        <ele>1024.42</ele>
        <time>2016-06-12T10:18:34Z</time>
      </trkpt>
      <trkpt lat="46.64727" lon="6.08425">
        <ele>1024.42</ele>
        <time>2016-06-12T10:18:39Z</time>
      </trkpt>
      <trkpt lat="46.64716" lon="6.08418">
        <ele>1023.46</ele>
        <time>2016-06-12T10:18:53Z</time>
      </trkpt>
      <trkpt lat="46.64706" lon="6.0841">
        <ele>1022.98</ele>
        <time>2016-06-12T10:19:04Z</time>
      </trkpt>
      <trkpt lat="46.64697" lon="6.084">
        <ele>1023.46</ele>
        <time>2016-06-12T10:19:15Z</time>
      </trkpt>
      <trkpt lat="46.6469" lon="6.0839">
        <ele>1022.5</ele>
        <time>2016-06-12T10:19:24Z</time>
      </trkpt>
      <trkpt lat="46.64687" lon="6.08386">
        <ele>1022.98</ele>
        <time>2016-06-12T10:19:28Z</time>
      </trkpt>
      <trkpt lat="46.64685" lon="6.08383">
        <ele>1022.5</ele>
        <time>2016-06-12T10:19:31Z</time>
      </trkpt>
      <trkpt lat="46.64683" lon="6.0838">
        <ele>1022.98</ele>
        <time>2016-06-12T10:19:34Z</time>
      </trkpt>
      <trkpt lat="46.64682" lon="6.08378">
        <ele>1022.98</ele>
        <time>2016-06-12T10:19:36Z</time>
      </trkpt>
      <trkpt lat="46.6468" lon="6.08375">
        <ele>1022.5</ele>
        <time>2016-06-12T10:19:40Z</time>
      </trkpt>
      <trkpt lat="46.64674" lon="6.08367">
        <ele>1021.06</ele>
        <time>2016-06-12T10:19:47Z</time>
      </trkpt>
      <trkpt lat="46.64668" lon="6.08357">
        <ele>1020.58</ele>
        <time>2016-06-12T10:19:54Z</time>
      </trkpt>
      <trkpt lat="46.64657" lon="6.08343">
        <ele>1020.1</ele>
        <time>2016-06-12T10:20:08Z</time>
      </trkpt>
      <trkpt lat="46.64655" lon="6.08339">
        <ele>1021.54</ele>
        <time>2016-06-12T10:20:12Z</time>
      </trkpt>
      <trkpt lat="46.64649" lon="6.08335">
        <ele>1022.5</ele>
        <time>2016-06-12T10:20:17Z</time>
      </trkpt>
      <trkpt lat="46.64647" lon="6.08332">
        <ele>1022.98</ele>
        <time>2016-06-12T10:20:22Z</time>
      </trkpt>
      <trkpt lat="46.64639" lon="6.08324">
        <ele>1024.42</ele>
        <time>2016-06-12T10:20:31Z</time>
      </trkpt>
      <trkpt lat="46.64635" lon="6.08321">
        <ele>1025.38</ele>
        <time>2016-06-12T10:20:36Z</time>
      </trkpt>
      <trkpt lat="46.64628" lon="6.08313">
        <ele>1027.79</ele>
        <time>2016-06-12T10:20:45Z</time>
      </trkpt>
      <trkpt lat="46.64625" lon="6.0831">
        <ele>1027.79</ele>
        <time>2016-06-12T10:20:48Z</time>
      </trkpt>
      <trkpt lat="46.64614" lon="6.08298">
        <ele>1027.31</ele>
        <time>2016-06-12T10:21:01Z</time>
      </trkpt>
      <trkpt lat="46.64612" lon="6.08296">
        <ele>1027.31</ele>
        <time>2016-06-12T10:21:04Z</time>
      </trkpt>
      <trkpt lat="46.64609" lon="6.08295">
        <ele>1027.31</ele>
        <time>2016-06-12T10:21:07Z</time>
      </trkpt>
      <trkpt lat="46.64606" lon="6.08289">
        <ele>1027.31</ele>
        <time>2016-06-12T10:21:12Z</time>
      </trkpt>
      <trkpt lat="46.64604" lon="6.08288">
        <ele>1027.31</ele>
        <time>2016-06-12T10:21:14Z</time>
      </trkpt>
      <trkpt lat="46.64599" lon="6.08282">
        <ele>1028.27</ele>
        <time>2016-06-12T10:21:21Z</time>
      </trkpt>
      <trkpt lat="46.64593" lon="6.08277">
        <ele>1028.27</ele>
        <time>2016-06-12T10:21:32Z</time>
      </trkpt>
      <trkpt lat="46.64592" lon="6.08279">
        <ele>1027.31</ele>
        <time>2016-06-12T10:21:38Z</time>
      </trkpt>
      <trkpt lat="46.64592" lon="6.08282">
        <ele>1027.31</ele>
        <time>2016-06-12T10:21:40Z</time>
      </trkpt>
      <trkpt lat="46.64592" lon="6.08293">
        <ele>1026.34</ele>
        <time>2016-06-12T10:21:51Z</time>
      </trkpt>
      <trkpt lat="46.64593" lon="6.08296">
        <ele>1026.34</ele>
        <time>2016-06-12T10:21:54Z</time>
      </trkpt>
      <trkpt lat="46.64587" lon="6.08305">
        <ele>1027.31</ele>
        <time>2016-06-12T10:22:07Z</time>
      </trkpt>
      <trkpt lat="46.64583" lon="6.08302">
        <ele>1028.75</ele>
        <time>2016-06-12T10:22:16Z</time>
      </trkpt>
      <trkpt lat="46.64578" lon="6.08297">
        <ele>1031.15</ele>
        <time>2016-06-12T10:22:26Z</time>
      </trkpt>
      <trkpt lat="46.64573" lon="6.08294">
        <ele>1034.52</ele>
        <time>2016-06-12T10:22:34Z</time>
      </trkpt>
      <trkpt lat="46.64567" lon="6.08291">
        <ele>1036.44</ele>
        <time>2016-06-12T10:22:44Z</time>
      </trkpt>
      <trkpt lat="46.64565" lon="6.0829">
        <ele>1037.4</ele>
        <time>2016-06-12T10:22:48Z</time>
      </trkpt>
      <trkpt lat="46.64559" lon="6.08284">
        <ele>1039.32</ele>
        <time>2016-06-12T10:23:00Z</time>
      </trkpt>
      <trkpt lat="46.64552" lon="6.08279">
        <ele>1041.73</ele>
        <time>2016-06-12T10:23:10Z</time>
      </trkpt>
      <trkpt lat="46.64547" lon="6.08273">
        <ele>1042.21</ele>
        <time>2016-06-12T10:23:21Z</time>
      </trkpt>
      <trkpt lat="46.64546" lon="6.08272">
        <ele>1042.21</ele>
        <time>2016-06-12T10:23:25Z</time>
      </trkpt>
      <trkpt lat="46.64543" lon="6.08269">
        <ele>1043.65</ele>
        <time>2016-06-12T10:23:30Z</time>
      </trkpt>
      <trkpt lat="46.64534" lon="6.08266">
        <ele>1045.57</ele>
        <time>2016-06-12T10:23:40Z</time>
      </trkpt>
      <trkpt lat="46.64531" lon="6.08267">
        <ele>1045.09</ele>
        <time>2016-06-12T10:23:52Z</time>
      </trkpt>
      <trkpt lat="46.64523" lon="6.08266">
        <ele>1044.61</ele>
        <time>2016-06-12T10:24:03Z</time>
      </trkpt>
      <trkpt lat="46.64514" lon="6.08264">
        <ele>1045.57</ele>
        <time>2016-06-12T10:24:14Z</time>
      </trkpt>
      <trkpt lat="46.64505" lon="6.08258">
        <ele>1045.57</ele>
        <time>2016-06-12T10:24:24Z</time>
      </trkpt>
      <trkpt lat="46.64499" lon="6.08254">
        <ele>1046.53</ele>
        <time>2016-06-12T10:24:34Z</time>
      </trkpt>
      <trkpt lat="46.64496" lon="6.08253">
        <ele>1046.53</ele>
        <time>2016-06-12T10:24:38Z</time>
      </trkpt>
      <trkpt lat="46.64488" lon="6.0825">
        <ele>1048.45</ele>
        <time>2016-06-12T10:24:49Z</time>
      </trkpt>
      <trkpt lat="46.64486" lon="6.0825">
        <ele>1049.9</ele>
        <time>2016-06-12T10:24:56Z</time>
      </trkpt>
      <trkpt lat="46.64477" lon="6.08247">
        <ele>1050.86</ele>
        <time>2016-06-12T10:25:07Z</time>
      </trkpt>
      <trkpt lat="46.64468" lon="6.08244">
        <ele>1051.82</ele>
        <time>2016-06-12T10:25:21Z</time>
      </trkpt>
      <trkpt lat="46.64457" lon="6.08241">
        <ele>1053.26</ele>
        <time>2016-06-12T10:25:33Z</time>
      </trkpt>
      <trkpt lat="46.64449" lon="6.08241">
        <ele>1052.78</ele>
        <time>2016-06-12T10:25:46Z</time>
      </trkpt>
      <trkpt lat="46.64438" lon="6.08237">
        <ele>1052.3</ele>
        <time>2016-06-12T10:25:59Z</time>
      </trkpt>
      <trkpt lat="46.6443" lon="6.08235">
        <ele>1053.74</ele>
        <time>2016-06-12T10:26:13Z</time>
      </trkpt>
      <trkpt lat="46.64427" lon="6.08235">
        <ele>1053.26</ele>
        <time>2016-06-12T10:26:21Z</time>
      </trkpt>
      <trkpt lat="46.64416" lon="6.08235">
        <ele>1053.74</ele>
        <time>2016-06-12T10:26:32Z</time>
      </trkpt>
      <trkpt lat="46.6441" lon="6.08236">
        <ele>1053.74</ele>
        <time>2016-06-12T10:26:45Z</time>
      </trkpt>
      <trkpt lat="46.64406" lon="6.08235">
        <ele>1055.67</ele>
        <time>2016-06-12T10:27:08Z</time>
      </trkpt>
      <trkpt lat="46.64397" lon="6.08244">
        <ele>1056.15</ele>
        <time>2016-06-12T10:27:23Z</time>
      </trkpt>
      <trkpt lat="46.64388" lon="6.08242">
        <ele>1058.55</ele>
        <time>2016-06-12T10:27:41Z</time>
      </trkpt>
      <trkpt lat="46.6438" lon="6.08235">
        <ele>1059.03</ele>
        <time>2016-06-12T10:27:55Z</time>
      </trkpt>
      <trkpt lat="46.64366" lon="6.08218">
        <ele>1060.95</ele>
        <time>2016-06-12T10:28:10Z</time>
      </trkpt>
      <trkpt lat="46.64349" lon="6.08197">
        <ele>1064.8</ele>
        <time>2016-06-12T10:28:27Z</time>
      </trkpt>
      <trkpt lat="46.64339" lon="6.08178">
        <ele>1065.76</ele>
        <time>2016-06-12T10:28:43Z</time>
      </trkpt>
      <trkpt lat="46.64331" lon="6.08172">
        <ele>1066.24</ele>
        <time>2016-06-12T10:28:59Z</time>
      </trkpt>
      <trkpt lat="46.64331" lon="6.08172">
        <ele>1066.72</ele>
        <time>2016-06-12T10:29:19Z</time>
      </trkpt>
      <trkpt lat="46.64329" lon="6.0817">
        <ele>1067.68</ele>
        <time>2016-06-12T10:29:37Z</time>
      </trkpt>
      <trkpt lat="46.64324" lon="6.08166">
        <ele>1065.76</ele>
        <time>2016-06-12T10:29:55Z</time>
      </trkpt>
      <trkpt lat="46.64312" lon="6.08154">
        <ele>1060.95</ele>
        <time>2016-06-12T10:30:09Z</time>
      </trkpt>
      <trkpt lat="46.64309" lon="6.08141">
        <ele>1055.67</ele>
        <time>2016-06-12T10:30:23Z</time>
      </trkpt>
      <trkpt lat="46.64307" lon="6.08134">
        <ele>1052.78</ele>
        <time>2016-06-12T10:30:37Z</time>
      </trkpt>
      <trkpt lat="46.64299" lon="6.08122">
        <ele>1047.49</ele>
        <time>2016-06-12T10:30:50Z</time>
      </trkpt>
      <trkpt lat="46.64292" lon="6.08115">
        <ele>1047.49</ele>
        <time>2016-06-12T10:31:03Z</time>
      </trkpt>
      <trkpt lat="46.6429" lon="6.0811">
        <ele>1047.97</ele>
        <time>2016-06-12T10:31:11Z</time>
      </trkpt>
      <trkpt lat="46.64276" lon="6.08086">
        <ele>1054.7</ele>
        <time>2016-06-12T10:31:26Z</time>
      </trkpt>
      <trkpt lat="46.64275" lon="6.08078">
        <ele>1053.26</ele>
        <time>2016-06-12T10:31:37Z</time>
      </trkpt>
      <trkpt lat="46.64271" lon="6.08066">
        <ele>1049.9</ele>
        <time>2016-06-12T10:31:47Z</time>
      </trkpt>
      <trkpt lat="46.6427" lon="6.08058">
        <ele>1048.94</ele>
        <time>2016-06-12T10:31:57Z</time>
      </trkpt>
      <trkpt lat="46.64267" lon="6.08043">
        <ele>1046.53</ele>
        <time>2016-06-12T10:32:08Z</time>
      </trkpt>
      <trkpt lat="46.64268" lon="6.08035">
        <ele>1044.61</ele>
        <time>2016-06-12T10:32:19Z</time>
      </trkpt>
      <trkpt lat="46.64264" lon="6.08026">
        <ele>1044.13</ele>
        <time>2016-06-12T10:32:31Z</time>
      </trkpt>
      <trkpt lat="46.6426" lon="6.08017">
        <ele>1043.17</ele>
        <time>2016-06-12T10:32:42Z</time>
      </trkpt>
      <trkpt lat="46.64253" lon="6.08004">
        <ele>1043.65</ele>
        <time>2016-06-12T10:32:54Z</time>
      </trkpt>
      <trkpt lat="46.64251" lon="6.07999">
        <ele>1043.65</ele>
        <time>2016-06-12T10:32:57Z</time>
      </trkpt>
      <trkpt lat="46.64242" lon="6.07977">
        <ele>1042.69</ele>
        <time>2016-06-12T10:33:12Z</time>
      </trkpt>
      <trkpt lat="46.6424" lon="6.0797">
        <ele>1043.17</ele>
        <time>2016-06-12T10:33:14Z</time>
      </trkpt>
      <trkpt lat="46.6422" lon="6.0793">
        <ele>1042.21</ele>
        <time>2016-06-12T10:33:28Z</time>
      </trkpt>
      <trkpt lat="46.64218" lon="6.07926">
        <ele>1042.21</ele>
        <time>2016-06-12T10:33:30Z</time>
      </trkpt>
      <trkpt lat="46.64209" lon="6.07896">
        <ele>1042.21</ele>
        <time>2016-06-12T10:33:43Z</time>
      </trkpt>
      <trkpt lat="46.6421" lon="6.07881">
        <ele>1041.73</ele>
        <time>2016-06-12T10:33:54Z</time>
      </trkpt>
      <trkpt lat="46.64216" lon="6.07873">
        <ele>1035.96</ele>
        <time>2016-06-12T10:34:07Z</time>
      </trkpt>
      <trkpt lat="46.64217" lon="6.07869">
        <ele>1033.07</ele>
        <time>2016-06-12T10:34:12Z</time>
      </trkpt>
      <trkpt lat="46.64217" lon="6.0786">
        <ele>1029.71</ele>
        <time>2016-06-12T10:34:21Z</time>
      </trkpt>
      <trkpt lat="46.64209" lon="6.07841">
        <ele>1025.86</ele>
        <time>2016-06-12T10:34:34Z</time>
      </trkpt>
      <trkpt lat="46.64202" lon="6.07823">
        <ele>1022.02</ele>
        <time>2016-06-12T10:34:50Z</time>
      </trkpt>
      <trkpt lat="46.64198" lon="6.07812">
        <ele>1020.58</ele>
        <time>2016-06-12T10:35:01Z</time>
      </trkpt>
      <trkpt lat="46.64189" lon="6.078">
        <ele>1019.62</ele>
        <time>2016-06-12T10:35:12Z</time>
      </trkpt>
      <trkpt lat="46.64181" lon="6.07788">
        <ele>1020.1</ele>
        <time>2016-06-12T10:35:25Z</time>
      </trkpt>
      <trkpt lat="46.64174" lon="6.0778">
        <ele>1018.17</ele>
        <time>2016-06-12T10:35:36Z</time>
      </trkpt>
      <trkpt lat="46.64174" lon="6.0778">
        <ele>1018.17</ele>
        <time>2016-06-12T10:35:37Z</time>
      </trkpt>
      <trkpt lat="46.64163" lon="6.0776">
        <ele>1018.65</ele>
        <time>2016-06-12T10:35:47Z</time>
      </trkpt>
      <trkpt lat="46.64151" lon="6.07744">
        <ele>1018.65</ele>
        <time>2016-06-12T10:35:59Z</time>
      </trkpt>
      <trkpt lat="46.64136" lon="6.07723">
        <ele>1022.02</ele>
        <time>2016-06-12T10:36:11Z</time>
      </trkpt>
      <trkpt lat="46.64139" lon="6.07711">
        <ele>1022.5</ele>
        <time>2016-06-12T10:36:22Z</time>
      </trkpt>
      <trkpt lat="46.64139" lon="6.07709">
        <ele>1023.46</ele>
        <time>2016-06-12T10:36:38Z</time>
      </trkpt>
      <trkpt lat="46.64138" lon="6.07703">
        <ele>1023.94</ele>
        <time>2016-06-12T10:36:46Z</time>
      </trkpt>
      <trkpt lat="46.6413" lon="6.07685">
        <ele>1023.46</ele>
        <time>2016-06-12T10:37:01Z</time>
      </trkpt>
      <trkpt lat="46.64118" lon="6.07667">
        <ele>1022.02</ele>
        <time>2016-06-12T10:37:15Z</time>
      </trkpt>
      <trkpt lat="46.64112" lon="6.07663">
        <ele>1022.02</ele>
        <time>2016-06-12T10:37:26Z</time>
      </trkpt>
      <trkpt lat="46.64109" lon="6.0766">
        <ele>1021.54</ele>
        <time>2016-06-12T10:37:30Z</time>
      </trkpt>
      <trkpt lat="46.64097" lon="6.07657">
        <ele>1018.17</ele>
        <time>2016-06-12T10:37:41Z</time>
      </trkpt>
      <trkpt lat="46.64086" lon="6.07652">
        <ele>1018.17</ele>
        <time>2016-06-12T10:37:54Z</time>
      </trkpt>
      <trkpt lat="46.64078" lon="6.07647">
        <ele>1021.06</ele>
        <time>2016-06-12T10:38:05Z</time>
      </trkpt>
      <trkpt lat="46.64071" lon="6.07644">
        <ele>1025.38</ele>
        <time>2016-06-12T10:38:17Z</time>
      </trkpt>
      <trkpt lat="46.64062" lon="6.07632">
        <ele>1026.83</ele>
        <time>2016-06-12T10:38:30Z</time>
      </trkpt>
      <trkpt lat="46.64055" lon="6.07619">
        <ele>1030.19</ele>
        <time>2016-06-12T10:38:45Z</time>
      </trkpt>
      <trkpt lat="46.6405" lon="6.07611">
        <ele>1031.63</ele>
        <time>2016-06-12T10:38:57Z</time>
      </trkpt>
      <trkpt lat="46.64042" lon="6.07606">
        <ele>1033.55</ele>
        <time>2016-06-12T10:39:08Z</time>
      </trkpt>
      <trkpt lat="46.64033" lon="6.07594">
        <ele>1032.11</ele>
        <time>2016-06-12T10:39:20Z</time>
      </trkpt>
      <trkpt lat="46.64024" lon="6.07588">
        <ele>1030.19</ele>
        <time>2016-06-12T10:39:32Z</time>
      </trkpt>
      <trkpt lat="46.64016" lon="6.07583">
        <ele>1028.27</ele>
        <time>2016-06-12T10:39:42Z</time>
      </trkpt>
      <trkpt lat="46.64008" lon="6.0758">
        <ele>1029.23</ele>
        <time>2016-06-12T10:39:51Z</time>
      </trkpt>
      <trkpt lat="46.64001" lon="6.07584">
        <ele>1030.67</ele>
        <time>2016-06-12T10:40:01Z</time>
      </trkpt>
      <trkpt lat="46.63999" lon="6.07585">
        <ele>1030.19</ele>
        <time>2016-06-12T10:40:06Z</time>
      </trkpt>
      <trkpt lat="46.63991" lon="6.07593">
        <ele>1029.71</ele>
        <time>2016-06-12T10:40:16Z</time>
      </trkpt>
      <trkpt lat="46.63988" lon="6.07603">
        <ele>1032.11</ele>
        <time>2016-06-12T10:40:24Z</time>
      </trkpt>
      <trkpt lat="46.63984" lon="6.07614">
        <ele>1034.52</ele>
        <time>2016-06-12T10:40:32Z</time>
      </trkpt>
      <trkpt lat="46.63979" lon="6.07628">
        <ele>1039.8</ele>
        <time>2016-06-12T10:40:45Z</time>
      </trkpt>
      <trkpt lat="46.63978" lon="6.07638">
        <ele>1043.17</ele>
        <time>2016-06-12T10:40:56Z</time>
      </trkpt>
      <trkpt lat="46.63975" lon="6.07655">
        <ele>1046.05</ele>
        <time>2016-06-12T10:41:11Z</time>
      </trkpt>
      <trkpt lat="46.63974" lon="6.07676">
        <ele>1045.57</ele>
        <time>2016-06-12T10:41:24Z</time>
      </trkpt>
      <trkpt lat="46.63979" lon="6.0769">
        <ele>1044.61</ele>
        <time>2016-06-12T10:41:35Z</time>
      </trkpt>
      <trkpt lat="46.63982" lon="6.07704">
        <ele>1044.13</ele>
        <time>2016-06-12T10:41:48Z</time>
      </trkpt>
      <trkpt lat="46.6399" lon="6.07719">
        <ele>1044.61</ele>
        <time>2016-06-12T10:42:03Z</time>
      </trkpt>
      <trkpt lat="46.63993" lon="6.07732">
        <ele>1047.49</ele>
        <time>2016-06-12T10:42:16Z</time>
      </trkpt>
      <trkpt lat="46.63994" lon="6.07736">
        <ele>1048.45</ele>
        <time>2016-06-12T10:42:19Z</time>
      </trkpt>
      <trkpt lat="46.63996" lon="6.07746">
        <ele>1050.86</ele>
        <time>2016-06-12T10:42:29Z</time>
      </trkpt>
      <trkpt lat="46.63998" lon="6.07753">
        <ele>1051.82</ele>
        <time>2016-06-12T10:42:35Z</time>
      </trkpt>
      <trkpt lat="46.64001" lon="6.07764">
        <ele>1052.78</ele>
        <time>2016-06-12T10:42:46Z</time>
      </trkpt>
      <trkpt lat="46.64007" lon="6.07776">
        <ele>1055.67</ele>
        <time>2016-06-12T10:42:57Z</time>
      </trkpt>
      <trkpt lat="46.6401" lon="6.07787">
        <ele>1055.67</ele>
        <time>2016-06-12T10:43:11Z</time>
      </trkpt>
      <trkpt lat="46.64014" lon="6.07798">
        <ele>1056.15</ele>
        <time>2016-06-12T10:43:22Z</time>
      </trkpt>
      <trkpt lat="46.64018" lon="6.07812">
        <ele>1057.11</ele>
        <time>2016-06-12T10:43:34Z</time>
      </trkpt>
      <trkpt lat="46.64018" lon="6.07831">
        <ele>1059.51</ele>
        <time>2016-06-12T10:43:44Z</time>
      </trkpt>
      <trkpt lat="46.64018" lon="6.07838">
        <ele>1059.51</ele>
        <time>2016-06-12T10:43:49Z</time>
      </trkpt>
      <trkpt lat="46.64016" lon="6.07854">
        <ele>1060.95</ele>
        <time>2016-06-12T10:43:59Z</time>
      </trkpt>
      <trkpt lat="46.64022" lon="6.07872">
        <ele>1056.63</ele>
        <time>2016-06-12T10:44:12Z</time>
      </trkpt>
      <trkpt lat="46.64026" lon="6.07882">
        <ele>1055.67</ele>
        <time>2016-06-12T10:44:24Z</time>
      </trkpt>
      <trkpt lat="46.6403" lon="6.07886">
        <ele>1055.18</ele>
        <time>2016-06-12T10:44:36Z</time>
      </trkpt>
      <trkpt lat="46.64033" lon="6.07896">
        <ele>1057.59</ele>
        <time>2016-06-12T10:44:53Z</time>
      </trkpt>
      <trkpt lat="46.64035" lon="6.07913">
        <ele>1059.99</ele>
        <time>2016-06-12T10:45:05Z</time>
      </trkpt>
      <trkpt lat="46.64027" lon="6.0793">
        <ele>1062.87</ele>
        <time>2016-06-12T10:45:20Z</time>
      </trkpt>
      <trkpt lat="46.6402" lon="6.07935">
        <ele>1060.95</ele>
        <time>2016-06-12T10:45:33Z</time>
      </trkpt>
      <trkpt lat="46.64017" lon="6.0794">
        <ele>1059.51</ele>
        <time>2016-06-12T10:45:37Z</time>
      </trkpt>
      <trkpt lat="46.64009" lon="6.07956">
        <ele>1055.67</ele>
        <time>2016-06-12T10:45:49Z</time>
      </trkpt>
      <trkpt lat="46.63998" lon="6.07963">
        <ele>1053.74</ele>
        <time>2016-06-12T10:46:00Z</time>
      </trkpt>
      <trkpt lat="46.63994" lon="6.07972">
        <ele>1049.42</ele>
        <time>2016-06-12T10:46:10Z</time>
      </trkpt>
      <trkpt lat="46.63994" lon="6.07977">
        <ele>1047.01</ele>
        <time>2016-06-12T10:46:24Z</time>
      </trkpt>
      <trkpt lat="46.63993" lon="6.07979">
        <ele>1047.01</ele>
        <time>2016-06-12T10:46:44Z</time>
      </trkpt>
      <trkpt lat="46.63993" lon="6.07978">
        <ele>1046.53</ele>
        <time>2016-06-12T10:47:00Z</time>
      </trkpt>
      <trkpt lat="46.63987" lon="6.07983">
        <ele>1047.97</ele>
        <time>2016-06-12T10:47:10Z</time>
      </trkpt>
      <trkpt lat="46.63981" lon="6.07993">
        <ele>1046.53</ele>
        <time>2016-06-12T10:47:19Z</time>
      </trkpt>
      <trkpt lat="46.63981" lon="6.07998">
        <ele>1046.05</ele>
        <time>2016-06-12T10:47:24Z</time>
      </trkpt>
      <trkpt lat="46.6398" lon="6.08003">
        <ele>1046.53</ele>
        <time>2016-06-12T10:47:28Z</time>
      </trkpt>
      <trkpt lat="46.63976" lon="6.08011">
        <ele>1046.05</ele>
        <time>2016-06-12T10:47:33Z</time>
      </trkpt>
      <trkpt lat="46.63973" lon="6.08019">
        <ele>1046.53</ele>
        <time>2016-06-12T10:47:38Z</time>
      </trkpt>
      <trkpt lat="46.63967" lon="6.08027">
        <ele>1047.49</ele>
        <time>2016-06-12T10:47:49Z</time>
      </trkpt>
      <trkpt lat="46.63958" lon="6.08018">
        <ele>1048.45</ele>
        <time>2016-06-12T10:48:02Z</time>
      </trkpt>
      <trkpt lat="46.63948" lon="6.07997">
        <ele>1049.42</ele>
        <time>2016-06-12T10:48:16Z</time>
      </trkpt>
      <trkpt lat="46.63946" lon="6.07979">
        <ele>1049.9</ele>
        <time>2016-06-12T10:48:28Z</time>
      </trkpt>
      <trkpt lat="46.6394" lon="6.07964">
        <ele>1050.86</ele>
        <time>2016-06-12T10:48:41Z</time>
      </trkpt>
      <trkpt lat="46.63937" lon="6.07949">
        <ele>1054.22</ele>
        <time>2016-06-12T10:48:54Z</time>
      </trkpt>
      <trkpt lat="46.63937" lon="6.07944">
        <ele>1054.7</ele>
        <time>2016-06-12T10:48:58Z</time>
      </trkpt>
      <trkpt lat="46.6393" lon="6.07922">
        <ele>1053.74</ele>
        <time>2016-06-12T10:49:13Z</time>
      </trkpt>
      <trkpt lat="46.63924" lon="6.07896">
        <ele>1055.67</ele>
        <time>2016-06-12T10:49:25Z</time>
      </trkpt>
      <trkpt lat="46.6392" lon="6.07872">
        <ele>1057.59</ele>
        <time>2016-06-12T10:49:36Z</time>
      </trkpt>
      <trkpt lat="46.6392" lon="6.07855">
        <ele>1057.59</ele>
        <time>2016-06-12T10:49:46Z</time>
      </trkpt>
      <trkpt lat="46.63919" lon="6.07846">
        <ele>1056.15</ele>
        <time>2016-06-12T10:49:57Z</time>
      </trkpt>
      <trkpt lat="46.63914" lon="6.07829">
        <ele>1054.7</ele>
        <time>2016-06-12T10:50:10Z</time>
      </trkpt>
      <trkpt lat="46.63913" lon="6.07816">
        <ele>1052.78</ele>
        <time>2016-06-12T10:50:21Z</time>
      </trkpt>
      <trkpt lat="46.63908" lon="6.07801">
        <ele>1050.86</ele>
        <time>2016-06-12T10:50:34Z</time>
      </trkpt>
      <trkpt lat="46.63907" lon="6.07795">
        <ele>1050.38</ele>
        <time>2016-06-12T10:50:38Z</time>
      </trkpt>
      <trkpt lat="46.63899" lon="6.07781">
        <ele>1048.45</ele>
        <time>2016-06-12T10:50:52Z</time>
      </trkpt>
      <trkpt lat="46.63898" lon="6.07776">
        <ele>1047.97</ele>
        <time>2016-06-12T10:50:57Z</time>
      </trkpt>
      <trkpt lat="46.63896" lon="6.07769">
        <ele>1047.01</ele>
        <time>2016-06-12T10:51:02Z</time>
      </trkpt>
      <trkpt lat="46.63893" lon="6.07753">
        <ele>1047.01</ele>
        <time>2016-06-12T10:51:13Z</time>
      </trkpt>
      <trkpt lat="46.63891" lon="6.07749">
        <ele>1046.05</ele>
        <time>2016-06-12T10:51:23Z</time>
      </trkpt>
      <trkpt lat="46.63886" lon="6.07739">
        <ele>1046.05</ele>
        <time>2016-06-12T10:51:32Z</time>
      </trkpt>
      <trkpt lat="46.63882" lon="6.07732">
        <ele>1046.53</ele>
        <time>2016-06-12T10:51:35Z</time>
      </trkpt>
      <trkpt lat="46.63873" lon="6.07713">
        <ele>1043.17</ele>
        <time>2016-06-12T10:51:47Z</time>
      </trkpt>
      <trkpt lat="46.6387" lon="6.07706">
        <ele>1042.69</ele>
        <time>2016-06-12T10:51:51Z</time>
      </trkpt>
      <trkpt lat="46.6386" lon="6.07687">
        <ele>1040.28</ele>
        <time>2016-06-12T10:52:04Z</time>
      </trkpt>
      <trkpt lat="46.63852" lon="6.07672">
        <ele>1039.32</ele>
        <time>2016-06-12T10:52:17Z</time>
      </trkpt>
      <trkpt lat="46.63849" lon="6.07663">
        <ele>1037.4</ele>
        <time>2016-06-12T10:52:24Z</time>
      </trkpt>
      <trkpt lat="46.63847" lon="6.07657">
        <ele>1037.88</ele>
        <time>2016-06-12T10:52:27Z</time>
      </trkpt>
      <trkpt lat="46.63836" lon="6.07642">
        <ele>1036.44</ele>
        <time>2016-06-12T10:52:38Z</time>
      </trkpt>
      <trkpt lat="46.63827" lon="6.07628">
        <ele>1034.04</ele>
        <time>2016-06-12T10:52:51Z</time>
      </trkpt>
      <trkpt lat="46.6382" lon="6.07629">
        <ele>1035.48</ele>
        <time>2016-06-12T10:52:59Z</time>
      </trkpt>
      <trkpt lat="46.63818" lon="6.07631">
        <ele>1035</ele>
        <time>2016-06-12T10:53:01Z</time>
      </trkpt>
      <trkpt lat="46.63813" lon="6.07637">
        <ele>1036.44</ele>
        <time>2016-06-12T10:53:07Z</time>
      </trkpt>
      <trkpt lat="46.63803" lon="6.07646">
        <ele>1032.59</ele>
        <time>2016-06-12T10:53:21Z</time>
      </trkpt>
      <trkpt lat="46.63795" lon="6.07652">
        <ele>1032.59</ele>
        <time>2016-06-12T10:53:28Z</time>
      </trkpt>
      <trkpt lat="46.63785" lon="6.07655">
        <ele>1031.63</ele>
        <time>2016-06-12T10:53:40Z</time>
      </trkpt>
      <trkpt lat="46.63783" lon="6.07659">
        <ele>1032.59</ele>
        <time>2016-06-12T10:53:44Z</time>
      </trkpt>
      <trkpt lat="46.63775" lon="6.0766">
        <ele>1031.15</ele>
        <time>2016-06-12T10:53:53Z</time>
      </trkpt>
      <trkpt lat="46.63769" lon="6.07657">
        <ele>1027.79</ele>
        <time>2016-06-12T10:54:04Z</time>
      </trkpt>
      <trkpt lat="46.63765" lon="6.07652">
        <ele>1025.86</ele>
        <time>2016-06-12T10:54:16Z</time>
      </trkpt>
      <trkpt lat="46.63759" lon="6.07643">
        <ele>1027.31</ele>
        <time>2016-06-12T10:54:29Z</time>
      </trkpt>
      <trkpt lat="46.63753" lon="6.07631">
        <ele>1029.23</ele>
        <time>2016-06-12T10:54:42Z</time>
      </trkpt>
      <trkpt lat="46.63745" lon="6.0761">
        <ele>1031.63</ele>
        <time>2016-06-12T10:54:55Z</time>
      </trkpt>
      <trkpt lat="46.63738" lon="6.07601">
        <ele>1034.04</ele>
        <time>2016-06-12T10:55:08Z</time>
      </trkpt>
      <trkpt lat="46.63729" lon="6.07592">
        <ele>1037.88</ele>
        <time>2016-06-12T10:55:19Z</time>
      </trkpt>
      <trkpt lat="46.6372" lon="6.07587">
        <ele>1041.25</ele>
        <time>2016-06-12T10:55:32Z</time>
      </trkpt>
      <trkpt lat="46.63718" lon="6.07586">
        <ele>1041.73</ele>
        <time>2016-06-12T10:55:35Z</time>
      </trkpt>
      <trkpt lat="46.63711" lon="6.07581">
        <ele>1042.21</ele>
        <time>2016-06-12T10:55:46Z</time>
      </trkpt>
      <trkpt lat="46.63701" lon="6.0758">
        <ele>1043.65</ele>
        <time>2016-06-12T10:56:00Z</time>
      </trkpt>
      <trkpt lat="46.63693" lon="6.07576">
        <ele>1046.53</ele>
        <time>2016-06-12T10:56:13Z</time>
      </trkpt>
      <trkpt lat="46.63686" lon="6.07572">
        <ele>1049.42</ele>
        <time>2016-06-12T10:56:28Z</time>
      </trkpt>
      <trkpt lat="46.63681" lon="6.07568">
        <ele>1050.86</ele>
        <time>2016-06-12T10:56:43Z</time>
      </trkpt>
      <trkpt lat="46.63672" lon="6.07563">
        <ele>1054.7</ele>
        <time>2016-06-12T10:56:58Z</time>
      </trkpt>
      <trkpt lat="46.6367" lon="6.07555">
        <ele>1055.18</ele>
        <time>2016-06-12T10:57:13Z</time>
      </trkpt>
      <trkpt lat="46.63668" lon="6.07542">
        <ele>1055.18</ele>
        <time>2016-06-12T10:57:26Z</time>
      </trkpt>
      <trkpt lat="46.63666" lon="6.07539">
        <ele>1054.7</ele>
        <time>2016-06-12T10:57:28Z</time>
      </trkpt>
      <trkpt lat="46.63666" lon="6.07527">
        <ele>1055.67</ele>
        <time>2016-06-12T10:57:39Z</time>
      </trkpt>
      <trkpt lat="46.63664" lon="6.07516">
        <ele>1056.63</ele>
        <time>2016-06-12T10:57:54Z</time>
      </trkpt>
      <trkpt lat="46.63657" lon="6.07503">
        <ele>1059.03</ele>
        <time>2016-06-12T10:58:07Z</time>
      </trkpt>
      <trkpt lat="46.6365" lon="6.07489">
        <ele>1060.95</ele>
        <time>2016-06-12T10:58:22Z</time>
      </trkpt>
      <trkpt lat="46.63646" lon="6.07484">
        <ele>1061.91</ele>
        <time>2016-06-12T10:58:33Z</time>
      </trkpt>
      <trkpt lat="46.63644" lon="6.07478">
        <ele>1063.84</ele>
        <time>2016-06-12T10:58:43Z</time>
      </trkpt>
      <trkpt lat="46.63641" lon="6.07466">
        <ele>1063.84</ele>
        <time>2016-06-12T10:58:55Z</time>
      </trkpt>
      <trkpt lat="46.63639" lon="6.0746">
        <ele>1062.87</ele>
        <time>2016-06-12T10:59:10Z</time>
      </trkpt>
      <trkpt lat="46.63638" lon="6.07443">
        <ele>1059.99</ele>
        <time>2016-06-12T10:59:26Z</time>
      </trkpt>
      <trkpt lat="46.63638" lon="6.07429">
        <ele>1059.03</ele>
        <time>2016-06-12T10:59:36Z</time>
      </trkpt>
      <trkpt lat="46.63642" lon="6.0741">
        <ele>1060.47</ele>
        <time>2016-06-12T10:59:49Z</time>
      </trkpt>
      <trkpt lat="46.63648" lon="6.07397">
        <ele>1058.55</ele>
        <time>2016-06-12T11:00:00Z</time>
      </trkpt>
      <trkpt lat="46.63653" lon="6.07381">
        <ele>1055.67</ele>
        <time>2016-06-12T11:00:12Z</time>
      </trkpt>
      <trkpt lat="46.63658" lon="6.07369">
        <ele>1053.26</ele>
        <time>2016-06-12T11:00:26Z</time>
      </trkpt>
      <trkpt lat="46.63662" lon="6.0736">
        <ele>1048.94</ele>
        <time>2016-06-12T11:00:37Z</time>
      </trkpt>
      <trkpt lat="46.63676" lon="6.07348">
        <ele>1044.61</ele>
        <time>2016-06-12T11:00:47Z</time>
      </trkpt>
      <trkpt lat="46.63679" lon="6.0733">
        <ele>1043.65</ele>
        <time>2016-06-12T11:00:59Z</time>
      </trkpt>
      <trkpt lat="46.63679" lon="6.07306">
        <ele>1044.61</ele>
        <time>2016-06-12T11:01:15Z</time>
      </trkpt>
      <trkpt lat="46.63683" lon="6.07296">
        <ele>1044.61</ele>
        <time>2016-06-12T11:01:24Z</time>
      </trkpt>
      <trkpt lat="46.6369" lon="6.07285">
        <ele>1041.73</ele>
        <time>2016-06-12T11:01:38Z</time>
      </trkpt>
      <trkpt lat="46.63696" lon="6.07264">
        <ele>1039.32</ele>
        <time>2016-06-12T11:01:53Z</time>
      </trkpt>
      <trkpt lat="46.63698" lon="6.07245">
        <ele>1043.65</ele>
        <time>2016-06-12T11:02:05Z</time>
      </trkpt>
      <trkpt lat="46.63701" lon="6.07226">
        <ele>1045.09</ele>
        <time>2016-06-12T11:02:18Z</time>
      </trkpt>
      <trkpt lat="46.63702" lon="6.0721">
        <ele>1046.05</ele>
        <time>2016-06-12T11:02:30Z</time>
      </trkpt>
      <trkpt lat="46.63707" lon="6.07196">
        <ele>1045.09</ele>
        <time>2016-06-12T11:02:43Z</time>
      </trkpt>
      <trkpt lat="46.63713" lon="6.07183">
        <ele>1040.76</ele>
        <time>2016-06-12T11:02:56Z</time>
      </trkpt>
      <trkpt lat="46.63713" lon="6.07172">
        <ele>1038.84</ele>
        <time>2016-06-12T11:03:07Z</time>
      </trkpt>
      <trkpt lat="46.63708" lon="6.07158">
        <ele>1041.73</ele>
        <time>2016-06-12T11:03:19Z</time>
      </trkpt>
      <trkpt lat="46.63704" lon="6.07157">
        <ele>1041.73</ele>
        <time>2016-06-12T11:03:26Z</time>
      </trkpt>
      <trkpt lat="46.63689" lon="6.07153">
        <ele>1040.76</ele>
        <time>2016-06-12T11:03:39Z</time>
      </trkpt>
      <trkpt lat="46.63681" lon="6.07162">
        <ele>1042.69</ele>
        <time>2016-06-12T11:03:52Z</time>
      </trkpt>
      <trkpt lat="46.63673" lon="6.07166">
        <ele>1045.09</ele>
        <time>2016-06-12T11:04:07Z</time>
      </trkpt>
      <trkpt lat="46.63665" lon="6.07168">
        <ele>1045.57</ele>
        <time>2016-06-12T11:04:16Z</time>
      </trkpt>
      <trkpt lat="46.6366" lon="6.07166">
        <ele>1044.13</ele>
        <time>2016-06-12T11:04:30Z</time>
      </trkpt>
      <trkpt lat="46.63651" lon="6.0716">
        <ele>1045.57</ele>
        <time>2016-06-12T11:04:44Z</time>
      </trkpt>
      <trkpt lat="46.63649" lon="6.0715">
        <ele>1044.61</ele>
        <time>2016-06-12T11:04:57Z</time>
      </trkpt>
      <trkpt lat="46.63647" lon="6.07142">
        <ele>1045.57</ele>
        <time>2016-06-12T11:05:14Z</time>
      </trkpt>
      <trkpt lat="46.63645" lon="6.07138">
        <ele>1047.49</ele>
        <time>2016-06-12T11:05:34Z</time>
      </trkpt>
      <trkpt lat="46.63643" lon="6.07136">
        <ele>1047.97</ele>
        <time>2016-06-12T11:05:49Z</time>
      </trkpt>
      <trkpt lat="46.63636" lon="6.07144">
        <ele>1046.05</ele>
        <time>2016-06-12T11:05:59Z</time>
      </trkpt>
      <trkpt lat="46.63636" lon="6.07146">
        <ele>1046.05</ele>
        <time>2016-06-12T11:06:00Z</time>
      </trkpt>
      <trkpt lat="46.63626" lon="6.07162">
        <ele>1046.53</ele>
        <time>2016-06-12T11:06:12Z</time>
      </trkpt>
      <trkpt lat="46.63623" lon="6.07171">
        <ele>1047.49</ele>
        <time>2016-06-12T11:06:21Z</time>
      </trkpt>
      <trkpt lat="46.63617" lon="6.07181">
        <ele>1047.97</ele>
        <time>2016-06-12T11:06:31Z</time>
      </trkpt>
      <trkpt lat="46.63616" lon="6.07183">
        <ele>1047.97</ele>
        <time>2016-06-12T11:06:33Z</time>
      </trkpt>
      <trkpt lat="46.63609" lon="6.0719">
        <ele>1046.53</ele>
        <time>2016-06-12T11:06:43Z</time>
      </trkpt>
      <trkpt lat="46.63606" lon="6.0719">
        <ele>1047.01</ele>
        <time>2016-06-12T11:06:46Z</time>
      </trkpt>
      <trkpt lat="46.63593" lon="6.072">
        <ele>1047.01</ele>
        <time>2016-06-12T11:06:59Z</time>
      </trkpt>
      <trkpt lat="46.63581" lon="6.07204">
        <ele>1049.42</ele>
        <time>2016-06-12T11:07:11Z</time>
      </trkpt>
      <trkpt lat="46.6357" lon="6.07203">
        <ele>1050.38</ele>
        <time>2016-06-12T11:07:23Z</time>
      </trkpt>
      <trkpt lat="46.63561" lon="6.07192">
        <ele>1051.82</ele>
        <time>2016-06-12T11:07:35Z</time>
      </trkpt>
      <trkpt lat="46.63557" lon="6.07187">
        <ele>1052.78</ele>
        <time>2016-06-12T11:07:40Z</time>
      </trkpt>
      <trkpt lat="46.63552" lon="6.07175">
        <ele>1055.18</ele>
        <time>2016-06-12T11:07:52Z</time>
      </trkpt>
      <trkpt lat="46.63539" lon="6.0716">
        <ele>1055.18</ele>
        <time>2016-06-12T11:08:07Z</time>
      </trkpt>
      <trkpt lat="46.63531" lon="6.07149">
        <ele>1057.59</ele>
        <time>2016-06-12T11:08:14Z</time>
      </trkpt>
      <trkpt lat="46.63522" lon="6.07147">
        <ele>1059.51</ele>
        <time>2016-06-12T11:08:22Z</time>
      </trkpt>
      <trkpt lat="46.63517" lon="6.07147">
        <ele>1060.47</ele>
        <time>2016-06-12T11:08:27Z</time>
      </trkpt>
      <trkpt lat="46.63508" lon="6.07148">
        <ele>1061.91</ele>
        <time>2016-06-12T11:08:36Z</time>
      </trkpt>
      <trkpt lat="46.635" lon="6.0715">
        <ele>1064.32</ele>
        <time>2016-06-12T11:08:43Z</time>
      </trkpt>
      <trkpt lat="46.63492" lon="6.07152">
        <ele>1064.32</ele>
        <time>2016-06-12T11:08:54Z</time>
      </trkpt>
      <trkpt lat="46.63481" lon="6.07153">
        <ele>1066.24</ele>
        <time>2016-06-12T11:09:08Z</time>
      </trkpt>
      <trkpt lat="46.6347" lon="6.07156">
        <ele>1069.6</ele>
        <time>2016-06-12T11:09:19Z</time>
      </trkpt>
      <trkpt lat="46.63457" lon="6.07157">
        <ele>1068.64</ele>
        <time>2016-06-12T11:09:30Z</time>
      </trkpt>
      <trkpt lat="46.63443" lon="6.0716">
        <ele>1066.72</ele>
        <time>2016-06-12T11:09:43Z</time>
      </trkpt>
      <trkpt lat="46.6343" lon="6.07155">
        <ele>1067.2</ele>
        <time>2016-06-12T11:09:55Z</time>
      </trkpt>
      <trkpt lat="46.6342" lon="6.07148">
        <ele>1067.68</ele>
        <time>2016-06-12T11:10:06Z</time>
      </trkpt>
      <trkpt lat="46.63413" lon="6.0713">
        <ele>1066.72</ele>
        <time>2016-06-12T11:10:18Z</time>
      </trkpt>
      <trkpt lat="46.63412" lon="6.07123">
        <ele>1066.72</ele>
        <time>2016-06-12T11:10:23Z</time>
      </trkpt>
      <trkpt lat="46.63407" lon="6.07103">
        <ele>1062.87</ele>
        <time>2016-06-12T11:10:35Z</time>
      </trkpt>
      <trkpt lat="46.63405" lon="6.07099">
        <ele>1061.91</ele>
        <time>2016-06-12T11:10:38Z</time>
      </trkpt>
      <trkpt lat="46.63393" lon="6.07086">
        <ele>1059.03</ele>
        <time>2016-06-12T11:10:52Z</time>
      </trkpt>
      <trkpt lat="46.63379" lon="6.07079">
        <ele>1056.63</ele>
        <time>2016-06-12T11:11:05Z</time>
      </trkpt>
      <trkpt lat="46.63375" lon="6.07076">
        <ele>1056.63</ele>
        <time>2016-06-12T11:11:08Z</time>
      </trkpt>
      <trkpt lat="46.63364" lon="6.07061">
        <ele>1060.47</ele>
        <time>2016-06-12T11:11:22Z</time>
      </trkpt>
      <trkpt lat="46.63353" lon="6.07043">
        <ele>1061.43</ele>
        <time>2016-06-12T11:11:35Z</time>
      </trkpt>
      <trkpt lat="46.6335" lon="6.07037">
        <ele>1061.43</ele>
        <time>2016-06-12T11:11:39Z</time>
      </trkpt>
      <trkpt lat="46.63338" lon="6.07012">
        <ele>1061.43</ele>
        <time>2016-06-12T11:11:56Z</time>
      </trkpt>
      <trkpt lat="46.63328" lon="6.06991">
        <ele>1061.43</ele>
        <time>2016-06-12T11:12:11Z</time>
      </trkpt>
      <trkpt lat="46.63319" lon="6.06971">
        <ele>1059.03</ele>
        <time>2016-06-12T11:12:24Z</time>
      </trkpt>
      <trkpt lat="46.63315" lon="6.06956">
        <ele>1056.15</ele>
        <time>2016-06-12T11:12:35Z</time>
      </trkpt>
      <trkpt lat="46.63313" lon="6.06931">
        <ele>1055.67</ele>
        <time>2016-06-12T11:12:50Z</time>
      </trkpt>
      <trkpt lat="46.63313" lon="6.06926">
        <ele>1055.67</ele>
        <time>2016-06-12T11:12:52Z</time>
      </trkpt>
      <trkpt lat="46.63311" lon="6.06895">
        <ele>1048.94</ele>
        <time>2016-06-12T11:13:08Z</time>
      </trkpt>
      <trkpt lat="46.63313" lon="6.06872">
        <ele>1047.01</ele>
        <time>2016-06-12T11:13:22Z</time>
      </trkpt>
      <trkpt lat="46.63313" lon="6.06857">
        <ele>1046.53</ele>
        <time>2016-06-12T11:13:34Z</time>
      </trkpt>
      <trkpt lat="46.63309" lon="6.06848">
        <ele>1045.57</ele>
        <time>2016-06-12T11:13:42Z</time>
      </trkpt>
      <trkpt lat="46.63299" lon="6.06825">
        <ele>1044.61</ele>
        <time>2016-06-12T11:13:56Z</time>
      </trkpt>
      <trkpt lat="46.63291" lon="6.06811">
        <ele>1044.61</ele>
        <time>2016-06-12T11:14:07Z</time>
      </trkpt>
      <trkpt lat="46.63277" lon="6.06804">
        <ele>1045.57</ele>
        <time>2016-06-12T11:14:19Z</time>
      </trkpt>
      <trkpt lat="46.63272" lon="6.06803">
        <ele>1046.05</ele>
        <time>2016-06-12T11:14:24Z</time>
      </trkpt>
      <trkpt lat="46.63263" lon="6.06802">
        <ele>1044.61</ele>
        <time>2016-06-12T11:14:32Z</time>
      </trkpt>
      <trkpt lat="46.63259" lon="6.06801">
        <ele>1044.61</ele>
        <time>2016-06-12T11:14:35Z</time>
      </trkpt>
      <trkpt lat="46.63246" lon="6.068">
        <ele>1042.21</ele>
        <time>2016-06-12T11:14:46Z</time>
      </trkpt>
      <trkpt lat="46.63233" lon="6.06793">
        <ele>1040.28</ele>
        <time>2016-06-12T11:14:58Z</time>
      </trkpt>
      <trkpt lat="46.63228" lon="6.0679">
        <ele>1039.8</ele>
        <time>2016-06-12T11:15:03Z</time>
      </trkpt>
      <trkpt lat="46.63217" lon="6.06781">
        <ele>1036.92</ele>
        <time>2016-06-12T11:15:17Z</time>
      </trkpt>
      <trkpt lat="46.63209" lon="6.06772">
        <ele>1035.96</ele>
        <time>2016-06-12T11:15:29Z</time>
      </trkpt>
      <trkpt lat="46.63198" lon="6.0676">
        <ele>1037.88</ele>
        <time>2016-06-12T11:15:42Z</time>
      </trkpt>
      <trkpt lat="46.63189" lon="6.06754">
        <ele>1039.32</ele>
        <time>2016-06-12T11:15:49Z</time>
      </trkpt>
      <trkpt lat="46.63173" lon="6.06751">
        <ele>1038.84</ele>
        <time>2016-06-12T11:16:02Z</time>
      </trkpt>
      <trkpt lat="46.63159" lon="6.06747">
        <ele>1034.04</ele>
        <time>2016-06-12T11:16:16Z</time>
      </trkpt>
      <trkpt lat="46.63152" lon="6.06745">
        <ele>1033.55</ele>
        <time>2016-06-12T11:16:22Z</time>
      </trkpt>
      <trkpt lat="46.63146" lon="6.06738">
        <ele>1035.96</ele>
        <time>2016-06-12T11:16:28Z</time>
      </trkpt>
      <trkpt lat="46.63139" lon="6.06732">
        <ele>1037.4</ele>
        <time>2016-06-12T11:16:36Z</time>
      </trkpt>
      <trkpt lat="46.63126" lon="6.06724">
        <ele>1039.32</ele>
        <time>2016-06-12T11:16:48Z</time>
      </trkpt>
      <trkpt lat="46.63124" lon="6.06724">
        <ele>1039.8</ele>
        <time>2016-06-12T11:16:51Z</time>
      </trkpt>
      <trkpt lat="46.6312" lon="6.06724">
        <ele>1039.32</ele>
        <time>2016-06-12T11:16:54Z</time>
      </trkpt>
      <trkpt lat="46.63107" lon="6.06727">
        <ele>1038.36</ele>
        <time>2016-06-12T11:17:04Z</time>
      </trkpt>
      <trkpt lat="46.63093" lon="6.06729">
        <ele>1037.88</ele>
        <time>2016-06-12T11:17:17Z</time>
      </trkpt>
      <trkpt lat="46.63091" lon="6.06729">
        <ele>1037.4</ele>
        <time>2016-06-12T11:17:19Z</time>
      </trkpt>
      <trkpt lat="46.63082" lon="6.06723">
        <ele>1030.67</ele>
        <time>2016-06-12T11:17:31Z</time>
      </trkpt>
      <trkpt lat="46.63077" lon="6.06718">
        <ele>1031.63</ele>
        <time>2016-06-12T11:17:40Z</time>
      </trkpt>
      <trkpt lat="46.63069" lon="6.06699">
        <ele>1034.04</ele>
        <time>2016-06-12T11:17:51Z</time>
      </trkpt>
      <trkpt lat="46.63061" lon="6.06674">
        <ele>1038.84</ele>
        <time>2016-06-12T11:18:03Z</time>
      </trkpt>
      <trkpt lat="46.63055" lon="6.06662">
        <ele>1042.69</ele>
        <time>2016-06-12T11:18:13Z</time>
      </trkpt>
      <trkpt lat="46.63048" lon="6.06647">
        <ele>1044.13</ele>
        <time>2016-06-12T11:18:25Z</time>
      </trkpt>
      <trkpt lat="46.63041" lon="6.06637">
        <ele>1046.53</ele>
        <time>2016-06-12T11:18:35Z</time>
      </trkpt>
      <trkpt lat="46.63038" lon="6.06631">
        <ele>1047.01</ele>
        <time>2016-06-12T11:18:38Z</time>
      </trkpt>
      <trkpt lat="46.63036" lon="6.06627">
        <ele>1047.49</ele>
        <time>2016-06-12T11:18:40Z</time>
      </trkpt>
      <trkpt lat="46.63021" lon="6.06617">
        <ele>1047.01</ele>
        <time>2016-06-12T11:18:54Z</time>
      </trkpt>
      <trkpt lat="46.63009" lon="6.06614">
        <ele>1045.09</ele>
        <time>2016-06-12T11:19:06Z</time>
      </trkpt>
      <trkpt lat="46.62997" lon="6.06629">
        <ele>1040.28</ele>
        <time>2016-06-12T11:19:20Z</time>
      </trkpt>
      <trkpt lat="46.62987" lon="6.06637">
        <ele>1035.96</ele>
        <time>2016-06-12T11:19:31Z</time>
      </trkpt>
      <trkpt lat="46.62977" lon="6.06646">
        <ele>1033.07</ele>
        <time>2016-06-12T11:19:42Z</time>
      </trkpt>
      <trkpt lat="46.62966" lon="6.0666">
        <ele>1032.11</ele>
        <time>2016-06-12T11:19:55Z</time>
      </trkpt>
      <trkpt lat="46.62952" lon="6.0667">
        <ele>1034.04</ele>
        <time>2016-06-12T11:20:07Z</time>
      </trkpt>
      <trkpt lat="46.62943" lon="6.06678">
        <ele>1032.11</ele>
        <time>2016-06-12T11:20:17Z</time>
      </trkpt>
      <trkpt lat="46.62932" lon="6.0669">
        <ele>1032.59</ele>
        <time>2016-06-12T11:20:27Z</time>
      </trkpt>
      <trkpt lat="46.62919" lon="6.06702">
        <ele>1035.96</ele>
        <time>2016-06-12T11:20:39Z</time>
      </trkpt>
      <trkpt lat="46.62913" lon="6.06708">
        <ele>1037.88</ele>
        <time>2016-06-12T11:20:46Z</time>
      </trkpt>
      <trkpt lat="46.62901" lon="6.06712">
        <ele>1040.28</ele>
        <time>2016-06-12T11:20:59Z</time>
      </trkpt>
      <trkpt lat="46.62894" lon="6.06712">
        <ele>1042.21</ele>
        <time>2016-06-12T11:21:05Z</time>
      </trkpt>
      <trkpt lat="46.62891" lon="6.06711">
        <ele>1042.21</ele>
        <time>2016-06-12T11:21:08Z</time>
      </trkpt>
      <trkpt lat="46.62881" lon="6.06706">
        <ele>1041.73</ele>
        <time>2016-06-12T11:21:17Z</time>
      </trkpt>
      <trkpt lat="46.62874" lon="6.06701">
        <ele>1041.25</ele>
        <time>2016-06-12T11:21:25Z</time>
      </trkpt>
      <trkpt lat="46.62868" lon="6.06693">
        <ele>1040.76</ele>
        <time>2016-06-12T11:21:32Z</time>
      </trkpt>
      <trkpt lat="46.62861" lon="6.06686">
        <ele>1040.28</ele>
        <time>2016-06-12T11:21:40Z</time>
      </trkpt>
      <trkpt lat="46.62852" lon="6.06673">
        <ele>1038.36</ele>
        <time>2016-06-12T11:21:51Z</time>
      </trkpt>
      <trkpt lat="46.62843" lon="6.06662">
        <ele>1035.48</ele>
        <time>2016-06-12T11:22:02Z</time>
      </trkpt>
      <trkpt lat="46.6283" lon="6.0665">
        <ele>1031.15</ele>
        <time>2016-06-12T11:22:16Z</time>
      </trkpt>
      <trkpt lat="46.62819" lon="6.06636">
        <ele>1033.07</ele>
        <time>2016-06-12T11:22:29Z</time>
      </trkpt>
      <trkpt lat="46.62817" lon="6.06633">
        <ele>1032.59</ele>
        <time>2016-06-12T11:22:33Z</time>
      </trkpt>
      <trkpt lat="46.62815" lon="6.06632">
        <ele>1032.59</ele>
        <time>2016-06-12T11:22:35Z</time>
      </trkpt>
      <trkpt lat="46.62797" lon="6.06613">
        <ele>1036.92</ele>
        <time>2016-06-12T11:22:49Z</time>
      </trkpt>
      <trkpt lat="46.62787" lon="6.06601">
        <ele>1042.21</ele>
        <time>2016-06-12T11:22:59Z</time>
      </trkpt>
      <trkpt lat="46.62778" lon="6.06593">
        <ele>1043.17</ele>
        <time>2016-06-12T11:23:09Z</time>
      </trkpt>
      <trkpt lat="46.6277" lon="6.06587">
        <ele>1043.65</ele>
        <time>2016-06-12T11:23:19Z</time>
      </trkpt>
      <trkpt lat="46.62767" lon="6.06586">
        <ele>1044.13</ele>
        <time>2016-06-12T11:23:21Z</time>
      </trkpt>
      <trkpt lat="46.62756" lon="6.06578">
        <ele>1044.13</ele>
        <time>2016-06-12T11:23:32Z</time>
      </trkpt>
      <trkpt lat="46.62753" lon="6.06576">
        <ele>1043.65</ele>
        <time>2016-06-12T11:23:35Z</time>
      </trkpt>
      <trkpt lat="46.62749" lon="6.06575">
        <ele>1043.65</ele>
        <time>2016-06-12T11:23:39Z</time>
      </trkpt>
      <trkpt lat="46.62734" lon="6.06568">
        <ele>1042.21</ele>
        <time>2016-06-12T11:23:51Z</time>
      </trkpt>
      <trkpt lat="46.62726" lon="6.06564">
        <ele>1039.8</ele>
        <time>2016-06-12T11:24:00Z</time>
      </trkpt>
      <trkpt lat="46.62714" lon="6.06552">
        <ele>1040.28</ele>
        <time>2016-06-12T11:24:13Z</time>
      </trkpt>
      <trkpt lat="46.6271" lon="6.0655">
        <ele>1040.76</ele>
        <time>2016-06-12T11:24:18Z</time>
      </trkpt>
      <trkpt lat="46.62703" lon="6.06543">
        <ele>1040.76</ele>
        <time>2016-06-12T11:24:23Z</time>
      </trkpt>
      <trkpt lat="46.62691" lon="6.06534">
        <ele>1041.25</ele>
        <time>2016-06-12T11:24:36Z</time>
      </trkpt>
      <trkpt lat="46.62682" lon="6.06525">
        <ele>1041.25</ele>
        <time>2016-06-12T11:24:47Z</time>
      </trkpt>
      <trkpt lat="46.62673" lon="6.06516">
        <ele>1040.76</ele>
        <time>2016-06-12T11:24:56Z</time>
      </trkpt>
      <trkpt lat="46.6266" lon="6.06511">
        <ele>1038.36</ele>
        <time>2016-06-12T11:25:09Z</time>
      </trkpt>
      <trkpt lat="46.62644" lon="6.06501">
        <ele>1040.28</ele>
        <time>2016-06-12T11:25:22Z</time>
      </trkpt>
      <trkpt lat="46.62635" lon="6.06501">
        <ele>1040.28</ele>
        <time>2016-06-12T11:25:33Z</time>
      </trkpt>
      <trkpt lat="46.62615" lon="6.06496">
        <ele>1045.09</ele>
        <time>2016-06-12T11:25:48Z</time>
      </trkpt>
      <trkpt lat="46.62606" lon="6.06488">
        <ele>1044.61</ele>
        <time>2016-06-12T11:25:58Z</time>
      </trkpt>
      <trkpt lat="46.62598" lon="6.06474">
        <ele>1039.8</ele>
        <time>2016-06-12T11:26:10Z</time>
      </trkpt>
      <trkpt lat="46.6259" lon="6.06459">
        <ele>1035</ele>
        <time>2016-06-12T11:26:23Z</time>
      </trkpt>
      <trkpt lat="46.62588" lon="6.06456">
        <ele>1034.52</ele>
        <time>2016-06-12T11:26:26Z</time>
      </trkpt>
      <trkpt lat="46.62583" lon="6.06447">
        <ele>1033.55</ele>
        <time>2016-06-12T11:26:32Z</time>
      </trkpt>
      <trkpt lat="46.62581" lon="6.06441">
        <ele>1033.55</ele>
        <time>2016-06-12T11:26:35Z</time>
      </trkpt>
      <trkpt lat="46.62576" lon="6.0642">
        <ele>1034.04</ele>
        <time>2016-06-12T11:26:47Z</time>
      </trkpt>
      <trkpt lat="46.62575" lon="6.06401">
        <ele>1033.55</ele>
        <time>2016-06-12T11:26:59Z</time>
      </trkpt>
      <trkpt lat="46.62573" lon="6.06384">
        <ele>1033.07</ele>
        <time>2016-06-12T11:27:10Z</time>
      </trkpt>
      <trkpt lat="46.62569" lon="6.06381">
        <ele>1032.11</ele>
        <time>2016-06-12T11:27:15Z</time>
      </trkpt>
      <trkpt lat="46.62564" lon="6.06377">
        <ele>1032.11</ele>
        <time>2016-06-12T11:27:20Z</time>
      </trkpt>
      <trkpt lat="46.62551" lon="6.06367">
        <ele>1031.15</ele>
        <time>2016-06-12T11:27:32Z</time>
      </trkpt>
      <trkpt lat="46.6254" lon="6.06362">
        <ele>1029.23</ele>
        <time>2016-06-12T11:27:44Z</time>
      </trkpt>
      <trkpt lat="46.62533" lon="6.06367">
        <ele>1024.9</ele>
        <time>2016-06-12T11:27:56Z</time>
      </trkpt>
      <trkpt lat="46.62524" lon="6.06377">
        <ele>1018.17</ele>
        <time>2016-06-12T11:28:07Z</time>
      </trkpt>
      <trkpt lat="46.62507" lon="6.06383">
        <ele>1015.29</ele>
        <time>2016-06-12T11:28:21Z</time>
      </trkpt>
      <trkpt lat="46.62505" lon="6.06383">
        <ele>1016.25</ele>
        <time>2016-06-12T11:28:28Z</time>
      </trkpt>
      <trkpt lat="46.62494" lon="6.06393">
        <ele>1018.65</ele>
        <time>2016-06-12T11:28:41Z</time>
      </trkpt>
      <trkpt lat="46.62484" lon="6.06398">
        <ele>1017.21</ele>
        <time>2016-06-12T11:28:52Z</time>
      </trkpt>
      <trkpt lat="46.62472" lon="6.06402">
        <ele>1016.25</ele>
        <time>2016-06-12T11:29:01Z</time>
      </trkpt>
      <trkpt lat="46.62452" lon="6.0641">
        <ele>1020.1</ele>
        <time>2016-06-12T11:29:16Z</time>
      </trkpt>
      <trkpt lat="46.6244" lon="6.06412">
        <ele>1018.65</ele>
        <time>2016-06-12T11:29:28Z</time>
      </trkpt>
      <trkpt lat="46.62431" lon="6.06413">
        <ele>1019.62</ele>
        <time>2016-06-12T11:29:39Z</time>
      </trkpt>
      <trkpt lat="46.62425" lon="6.06417">
        <ele>1019.62</ele>
        <time>2016-06-12T11:29:53Z</time>
      </trkpt>
      <trkpt lat="46.6242" lon="6.06421">
        <ele>1019.13</ele>
        <time>2016-06-12T11:29:59Z</time>
      </trkpt>
      <trkpt lat="46.62412" lon="6.06434">
        <ele>1017.69</ele>
        <time>2016-06-12T11:30:11Z</time>
      </trkpt>
      <trkpt lat="46.62402" lon="6.06451">
        <ele>1015.77</ele>
        <time>2016-06-12T11:30:23Z</time>
      </trkpt>
      <trkpt lat="46.624" lon="6.06459">
        <ele>1014.81</ele>
        <time>2016-06-12T11:30:29Z</time>
      </trkpt>
      <trkpt lat="46.624" lon="6.06473">
        <ele>1013.37</ele>
        <time>2016-06-12T11:30:41Z</time>
      </trkpt>
      <trkpt lat="46.62393" lon="6.06491">
        <ele>1011.44</ele>
        <time>2016-06-12T11:30:53Z</time>
      </trkpt>
      <trkpt lat="46.62391" lon="6.06496">
        <ele>1011.44</ele>
        <time>2016-06-12T11:30:56Z</time>
      </trkpt>
      <trkpt lat="46.62382" lon="6.06514">
        <ele>1011.44</ele>
        <time>2016-06-12T11:31:06Z</time>
      </trkpt>
      <trkpt lat="46.62379" lon="6.06522">
        <ele>1011.44</ele>
        <time>2016-06-12T11:31:11Z</time>
      </trkpt>
      <trkpt lat="46.62372" lon="6.06537">
        <ele>1011.44</ele>
        <time>2016-06-12T11:31:20Z</time>
      </trkpt>
      <trkpt lat="46.6237" lon="6.06539">
        <ele>1011.93</ele>
        <time>2016-06-12T11:31:22Z</time>
      </trkpt>
      <trkpt lat="46.6236" lon="6.06556">
        <ele>1013.37</ele>
        <time>2016-06-12T11:31:36Z</time>
      </trkpt>
      <trkpt lat="46.62355" lon="6.06562">
        <ele>1013.37</ele>
        <time>2016-06-12T11:31:42Z</time>
      </trkpt>
      <trkpt lat="46.62343" lon="6.0657">
        <ele>1013.85</ele>
        <time>2016-06-12T11:31:55Z</time>
      </trkpt>
      <trkpt lat="46.62334" lon="6.0658">
        <ele>1015.29</ele>
        <time>2016-06-12T11:32:06Z</time>
      </trkpt>
      <trkpt lat="46.62324" lon="6.06591">
        <ele>1016.73</ele>
        <time>2016-06-12T11:32:20Z</time>
      </trkpt>
      <trkpt lat="46.6231" lon="6.06601">
        <ele>1018.65</ele>
        <time>2016-06-12T11:32:32Z</time>
      </trkpt>
      <trkpt lat="46.62304" lon="6.06605">
        <ele>1018.65</ele>
        <time>2016-06-12T11:32:37Z</time>
      </trkpt>
      <trkpt lat="46.62293" lon="6.06613">
        <ele>1019.62</ele>
        <time>2016-06-12T11:32:48Z</time>
      </trkpt>
      <trkpt lat="46.6229" lon="6.06617">
        <ele>1020.58</ele>
        <time>2016-06-12T11:32:52Z</time>
      </trkpt>
      <trkpt lat="46.62288" lon="6.0662">
        <ele>1021.54</ele>
        <time>2016-06-12T11:32:54Z</time>
      </trkpt>
      <trkpt lat="46.62282" lon="6.06627">
        <ele>1023.46</ele>
        <time>2016-06-12T11:33:02Z</time>
      </trkpt>
      <trkpt lat="46.62281" lon="6.06629">
        <ele>1023.94</ele>
        <time>2016-06-12T11:33:04Z</time>
      </trkpt>
      <trkpt lat="46.62274" lon="6.06637">
        <ele>1026.83</ele>
        <time>2016-06-12T11:33:17Z</time>
      </trkpt>
      <trkpt lat="46.62267" lon="6.06643">
        <ele>1028.75</ele>
        <time>2016-06-12T11:33:27Z</time>
      </trkpt>
      <trkpt lat="46.62266" lon="6.06644">
        <ele>1029.23</ele>
        <time>2016-06-12T11:33:28Z</time>
      </trkpt>
      <trkpt lat="46.6226" lon="6.06648">
        <ele>1030.19</ele>
        <time>2016-06-12T11:33:40Z</time>
      </trkpt>
      <trkpt lat="46.62258" lon="6.0665">
        <ele>1030.19</ele>
        <time>2016-06-12T11:33:48Z</time>
      </trkpt>
      <trkpt lat="46.62252" lon="6.06657">
        <ele>1029.23</ele>
        <time>2016-06-12T11:33:57Z</time>
      </trkpt>
      <trkpt lat="46.62242" lon="6.0667">
        <ele>1022.98</ele>
        <time>2016-06-12T11:34:10Z</time>
      </trkpt>
      <trkpt lat="46.62236" lon="6.06681">
        <ele>1014.33</ele>
        <time>2016-06-12T11:34:22Z</time>
      </trkpt>
      <trkpt lat="46.62226" lon="6.0669">
        <ele>1009.52</ele>
        <time>2016-06-12T11:34:33Z</time>
      </trkpt>
      <trkpt lat="46.62215" lon="6.06703">
        <ele>1008.56</ele>
        <time>2016-06-12T11:34:46Z</time>
      </trkpt>
      <trkpt lat="46.62202" lon="6.06711">
        <ele>1010.96</ele>
        <time>2016-06-12T11:34:58Z</time>
      </trkpt>
      <trkpt lat="46.62191" lon="6.06724">
        <ele>1013.85</ele>
        <time>2016-06-12T11:35:11Z</time>
      </trkpt>
      <trkpt lat="46.62181" lon="6.06727">
        <ele>1016.73</ele>
        <time>2016-06-12T11:35:22Z</time>
      </trkpt>
      <trkpt lat="46.62167" lon="6.06732">
        <ele>1020.58</ele>
        <time>2016-06-12T11:35:33Z</time>
      </trkpt>
      <trkpt lat="46.62161" lon="6.06732">
        <ele>1022.02</ele>
        <time>2016-06-12T11:35:43Z</time>
      </trkpt>
      <trkpt lat="46.62155" lon="6.06736">
        <ele>1024.9</ele>
        <time>2016-06-12T11:35:56Z</time>
      </trkpt>
      <trkpt lat="46.62147" lon="6.06739">
        <ele>1027.79</ele>
        <time>2016-06-12T11:36:07Z</time>
      </trkpt>
      <trkpt lat="46.62135" lon="6.06741">
        <ele>1030.67</ele>
        <time>2016-06-12T11:36:18Z</time>
      </trkpt>
      <trkpt lat="46.62126" lon="6.06743">
        <ele>1031.63</ele>
        <time>2016-06-12T11:36:29Z</time>
      </trkpt>
      <trkpt lat="46.62115" lon="6.0675">
        <ele>1031.15</ele>
        <time>2016-06-12T11:36:40Z</time>
      </trkpt>
      <trkpt lat="46.62104" lon="6.06755">
        <ele>1030.67</ele>
        <time>2016-06-12T11:36:52Z</time>
      </trkpt>
      <trkpt lat="46.62092" lon="6.06761">
        <ele>1028.27</ele>
        <time>2016-06-12T11:37:04Z</time>
      </trkpt>
      <trkpt lat="46.62085" lon="6.06769">
        <ele>1027.31</ele>
        <time>2016-06-12T11:37:17Z</time>
      </trkpt>
      <trkpt lat="46.6208" lon="6.06776">
        <ele>1026.83</ele>
        <time>2016-06-12T11:37:30Z</time>
      </trkpt>
      <trkpt lat="46.62072" lon="6.06788">
        <ele>1025.38</ele>
        <time>2016-06-12T11:37:44Z</time>
      </trkpt>
      <trkpt lat="46.62066" lon="6.06793">
        <ele>1024.42</ele>
        <time>2016-06-12T11:37:57Z</time>
      </trkpt>
      <trkpt lat="46.62059" lon="6.06803">
        <ele>1023.94</ele>
        <time>2016-06-12T11:38:08Z</time>
      </trkpt>
      <trkpt lat="46.62056" lon="6.06817">
        <ele>1024.9</ele>
        <time>2016-06-12T11:38:21Z</time>
      </trkpt>
      <trkpt lat="46.62053" lon="6.06824">
        <ele>1025.38</ele>
        <time>2016-06-12T11:38:31Z</time>
      </trkpt>
      <trkpt lat="46.62049" lon="6.06838">
        <ele>1022.5</ele>
        <time>2016-06-12T11:38:44Z</time>
      </trkpt>
      <trkpt lat="46.62049" lon="6.06842">
        <ele>1022.02</ele>
        <time>2016-06-12T11:38:47Z</time>
      </trkpt>
      <trkpt lat="46.62042" lon="6.06865">
        <ele>1023.46</ele>
        <time>2016-06-12T11:39:00Z</time>
      </trkpt>
      <trkpt lat="46.62039" lon="6.06869">
        <ele>1025.86</ele>
        <time>2016-06-12T11:39:04Z</time>
      </trkpt>
      <trkpt lat="46.62028" lon="6.06895">
        <ele>1036.92</ele>
        <time>2016-06-12T11:39:18Z</time>
      </trkpt>
      <trkpt lat="46.62026" lon="6.06904">
        <ele>1038.84</ele>
        <time>2016-06-12T11:39:27Z</time>
      </trkpt>
      <trkpt lat="46.62027" lon="6.06918">
        <ele>1037.88</ele>
        <time>2016-06-12T11:39:38Z</time>
      </trkpt>
      <trkpt lat="46.62024" lon="6.06933">
        <ele>1039.8</ele>
        <time>2016-06-12T11:39:50Z</time>
      </trkpt>
      <trkpt lat="46.62019" lon="6.06946">
        <ele>1040.76</ele>
        <time>2016-06-12T11:40:02Z</time>
      </trkpt>
      <trkpt lat="46.62014" lon="6.06956">
        <ele>1038.84</ele>
        <time>2016-06-12T11:40:12Z</time>
      </trkpt>
      <trkpt lat="46.62008" lon="6.06971">
        <ele>1036.92</ele>
        <time>2016-06-12T11:40:23Z</time>
      </trkpt>
      <trkpt lat="46.62007" lon="6.06974">
        <ele>1036.44</ele>
        <time>2016-06-12T11:40:26Z</time>
      </trkpt>
      <trkpt lat="46.61999" lon="6.06985">
        <ele>1037.88</ele>
        <time>2016-06-12T11:40:38Z</time>
      </trkpt>
      <trkpt lat="46.61988" lon="6.07">
        <ele>1040.76</ele>
        <time>2016-06-12T11:40:53Z</time>
      </trkpt>
      <trkpt lat="46.61982" lon="6.07009">
        <ele>1044.13</ele>
        <time>2016-06-12T11:41:05Z</time>
      </trkpt>
      <trkpt lat="46.61978" lon="6.07015">
        <ele>1044.13</ele>
        <time>2016-06-12T11:41:21Z</time>
      </trkpt>
      <trkpt lat="46.6197" lon="6.07025">
        <ele>1040.76</ele>
        <time>2016-06-12T11:41:33Z</time>
      </trkpt>
      <trkpt lat="46.61962" lon="6.07035">
        <ele>1038.36</ele>
        <time>2016-06-12T11:41:46Z</time>
      </trkpt>
      <trkpt lat="46.61955" lon="6.07042">
        <ele>1032.59</ele>
        <time>2016-06-12T11:41:58Z</time>
      </trkpt>
      <trkpt lat="46.61947" lon="6.07052">
        <ele>1029.71</ele>
        <time>2016-06-12T11:42:09Z</time>
      </trkpt>
      <trkpt lat="46.61939" lon="6.07062">
        <ele>1032.59</ele>
        <time>2016-06-12T11:42:20Z</time>
      </trkpt>
      <trkpt lat="46.61933" lon="6.07072">
        <ele>1033.07</ele>
        <time>2016-06-12T11:42:33Z</time>
      </trkpt>
      <trkpt lat="46.61929" lon="6.07082">
        <ele>1032.59</ele>
        <time>2016-06-12T11:42:45Z</time>
      </trkpt>
      <trkpt lat="46.61923" lon="6.07099">
        <ele>1034.04</ele>
        <time>2016-06-12T11:42:56Z</time>
      </trkpt>
      <trkpt lat="46.6192" lon="6.07108">
        <ele>1035</ele>
        <time>2016-06-12T11:43:04Z</time>
      </trkpt>
      <trkpt lat="46.61909" lon="6.07124">
        <ele>1038.36</ele>
        <time>2016-06-12T11:43:18Z</time>
      </trkpt>
      <trkpt lat="46.61909" lon="6.07127">
        <ele>1038.36</ele>
        <time>2016-06-12T11:43:20Z</time>
      </trkpt>
      <trkpt lat="46.61902" lon="6.07141">
        <ele>1033.07</ele>
        <time>2016-06-12T11:43:35Z</time>
      </trkpt>
      <trkpt lat="46.619" lon="6.07143">
        <ele>1032.11</ele>
        <time>2016-06-12T11:43:38Z</time>
      </trkpt>
      <trkpt lat="46.61889" lon="6.07153">
        <ele>1030.19</ele>
        <time>2016-06-12T11:43:51Z</time>
      </trkpt>
      <trkpt lat="46.61879" lon="6.07164">
        <ele>1029.23</ele>
        <time>2016-06-12T11:44:05Z</time>
      </trkpt>
      <trkpt lat="46.61868" lon="6.07172">
        <ele>1030.67</ele>
        <time>2016-06-12T11:44:17Z</time>
      </trkpt>
      <trkpt lat="46.6186" lon="6.0718">
        <ele>1033.55</ele>
        <time>2016-06-12T11:44:28Z</time>
      </trkpt>
      <trkpt lat="46.61849" lon="6.0719">
        <ele>1035</ele>
        <time>2016-06-12T11:44:42Z</time>
      </trkpt>
      <trkpt lat="46.61838" lon="6.07202">
        <ele>1043.17</ele>
        <time>2016-06-12T11:44:52Z</time>
      </trkpt>
      <trkpt lat="46.61833" lon="6.07204">
        <ele>1045.57</ele>
        <time>2016-06-12T11:44:58Z</time>
      </trkpt>
      <trkpt lat="46.61822" lon="6.07213">
        <ele>1053.26</ele>
        <time>2016-06-12T11:45:12Z</time>
      </trkpt>
      <trkpt lat="46.61808" lon="6.0722">
        <ele>1057.59</ele>
        <time>2016-06-12T11:45:24Z</time>
      </trkpt>
      <trkpt lat="46.61798" lon="6.07221">
        <ele>1060.95</ele>
        <time>2016-06-12T11:45:35Z</time>
      </trkpt>
      <trkpt lat="46.61788" lon="6.07216">
        <ele>1064.32</ele>
        <time>2016-06-12T11:45:46Z</time>
      </trkpt>
      <trkpt lat="46.61776" lon="6.07211">
        <ele>1066.24</ele>
        <time>2016-06-12T11:45:58Z</time>
      </trkpt>
      <trkpt lat="46.61774" lon="6.07209">
        <ele>1066.24</ele>
        <time>2016-06-12T11:46:00Z</time>
      </trkpt>
      <trkpt lat="46.61766" lon="6.07209">
        <ele>1066.24</ele>
        <time>2016-06-12T11:46:13Z</time>
      </trkpt>
      <trkpt lat="46.61755" lon="6.07211">
        <ele>1064.8</ele>
        <time>2016-06-12T11:46:25Z</time>
      </trkpt>
      <trkpt lat="46.61742" lon="6.07211">
        <ele>1064.32</ele>
        <time>2016-06-12T11:46:36Z</time>
      </trkpt>
      <trkpt lat="46.61734" lon="6.0721">
        <ele>1065.28</ele>
        <time>2016-06-12T11:46:46Z</time>
      </trkpt>
      <trkpt lat="46.61723" lon="6.07207">
        <ele>1071.53</ele>
        <time>2016-06-12T11:47:00Z</time>
      </trkpt>
      <trkpt lat="46.61716" lon="6.07207">
        <ele>1074.41</ele>
        <time>2016-06-12T11:47:15Z</time>
      </trkpt>
      <trkpt lat="46.61707" lon="6.07209">
        <ele>1076.33</ele>
        <time>2016-06-12T11:47:25Z</time>
      </trkpt>
      <trkpt lat="46.61693" lon="6.0721">
        <ele>1077.78</ele>
        <time>2016-06-12T11:47:39Z</time>
      </trkpt>
      <trkpt lat="46.6168" lon="6.07209">
        <ele>1079.22</ele>
        <time>2016-06-12T11:47:53Z</time>
      </trkpt>
      <trkpt lat="46.61667" lon="6.07218">
        <ele>1078.26</ele>
        <time>2016-06-12T11:48:09Z</time>
      </trkpt>
      <trkpt lat="46.6166" lon="6.07226">
        <ele>1076.81</ele>
        <time>2016-06-12T11:48:21Z</time>
      </trkpt>
      <trkpt lat="46.61653" lon="6.07232">
        <ele>1076.33</ele>
        <time>2016-06-12T11:48:29Z</time>
      </trkpt>
      <trkpt lat="46.61637" lon="6.07245">
        <ele>1078.26</ele>
        <time>2016-06-12T11:48:42Z</time>
      </trkpt>
      <trkpt lat="46.61627" lon="6.07255">
        <ele>1077.78</ele>
        <time>2016-06-12T11:48:54Z</time>
      </trkpt>
      <trkpt lat="46.61618" lon="6.07266">
        <ele>1076.33</ele>
        <time>2016-06-12T11:49:09Z</time>
      </trkpt>
      <trkpt lat="46.6161" lon="6.07271">
        <ele>1074.89</ele>
        <time>2016-06-12T11:49:19Z</time>
      </trkpt>
      <trkpt lat="46.61597" lon="6.07278">
        <ele>1077.29</ele>
        <time>2016-06-12T11:49:31Z</time>
      </trkpt>
      <trkpt lat="46.61586" lon="6.07285">
        <ele>1077.29</ele>
        <time>2016-06-12T11:49:44Z</time>
      </trkpt>
      <trkpt lat="46.61574" lon="6.07292">
        <ele>1075.85</ele>
        <time>2016-06-12T11:49:56Z</time>
      </trkpt>
      <trkpt lat="46.61563" lon="6.07302">
        <ele>1072.01</ele>
        <time>2016-06-12T11:50:09Z</time>
      </trkpt>
      <trkpt lat="46.61554" lon="6.07312">
        <ele>1070.08</ele>
        <time>2016-06-12T11:50:20Z</time>
      </trkpt>
      <trkpt lat="46.61553" lon="6.07313">
        <ele>1070.08</ele>
        <time>2016-06-12T11:50:21Z</time>
      </trkpt>
      <trkpt lat="46.61543" lon="6.0733">
        <ele>1067.2</ele>
        <time>2016-06-12T11:50:35Z</time>
      </trkpt>
      <trkpt lat="46.61535" lon="6.07344">
        <ele>1064.8</ele>
        <time>2016-06-12T11:50:47Z</time>
      </trkpt>
      <trkpt lat="46.61528" lon="6.07359">
        <ele>1061.43</ele>
        <time>2016-06-12T11:51:00Z</time>
      </trkpt>
      <trkpt lat="46.61518" lon="6.07371">
        <ele>1058.55</ele>
        <time>2016-06-12T11:51:13Z</time>
      </trkpt>
      <trkpt lat="46.61511" lon="6.07385">
        <ele>1055.67</ele>
        <time>2016-06-12T11:51:25Z</time>
      </trkpt>
      <trkpt lat="46.61502" lon="6.074">
        <ele>1054.22</ele>
        <time>2016-06-12T11:51:38Z</time>
      </trkpt>
      <trkpt lat="46.61493" lon="6.07411">
        <ele>1055.18</ele>
        <time>2016-06-12T11:51:50Z</time>
      </trkpt>
      <trkpt lat="46.61482" lon="6.07423">
        <ele>1057.11</ele>
        <time>2016-06-12T11:52:02Z</time>
      </trkpt>
      <trkpt lat="46.6148" lon="6.07425">
        <ele>1057.11</ele>
        <time>2016-06-12T11:52:04Z</time>
      </trkpt>
      <trkpt lat="46.61478" lon="6.07427">
        <ele>1057.11</ele>
        <time>2016-06-12T11:52:06Z</time>
      </trkpt>
      <trkpt lat="46.6147" lon="6.07439">
        <ele>1054.7</ele>
        <time>2016-06-12T11:52:18Z</time>
      </trkpt>
      <trkpt lat="46.61469" lon="6.0744">
        <ele>1054.22</ele>
        <time>2016-06-12T11:52:19Z</time>
      </trkpt>
      <trkpt lat="46.61465" lon="6.0745">
        <ele>1052.78</ele>
        <time>2016-06-12T11:52:29Z</time>
      </trkpt>
      <trkpt lat="46.61456" lon="6.07464">
        <ele>1051.82</ele>
        <time>2016-06-12T11:52:41Z</time>
      </trkpt>
      <trkpt lat="46.61454" lon="6.07471">
        <ele>1051.82</ele>
        <time>2016-06-12T11:52:47Z</time>
      </trkpt>
      <trkpt lat="46.61447" lon="6.07488">
        <ele>1054.22</ele>
        <time>2016-06-12T11:52:59Z</time>
      </trkpt>
      <trkpt lat="46.6144" lon="6.07504">
        <ele>1055.67</ele>
        <time>2016-06-12T11:53:10Z</time>
      </trkpt>
      <trkpt lat="46.61433" lon="6.07519">
        <ele>1056.15</ele>
        <time>2016-06-12T11:53:21Z</time>
      </trkpt>
      <trkpt lat="46.61426" lon="6.07536">
        <ele>1058.07</ele>
        <time>2016-06-12T11:53:33Z</time>
      </trkpt>
      <trkpt lat="46.61419" lon="6.07553">
        <ele>1059.51</ele>
        <time>2016-06-12T11:53:45Z</time>
      </trkpt>
      <trkpt lat="46.61417" lon="6.0756">
        <ele>1058.07</ele>
        <time>2016-06-12T11:53:50Z</time>
      </trkpt>
      <trkpt lat="46.61418" lon="6.07562">
        <ele>1057.59</ele>
        <time>2016-06-12T11:53:52Z</time>
      </trkpt>
      <trkpt lat="46.61414" lon="6.0758">
        <ele>1057.59</ele>
        <time>2016-06-12T11:54:05Z</time>
      </trkpt>
      <trkpt lat="46.61412" lon="6.07586">
        <ele>1057.59</ele>
        <time>2016-06-12T11:54:10Z</time>
      </trkpt>
      <trkpt lat="46.61409" lon="6.07594">
        <ele>1057.59</ele>
        <time>2016-06-12T11:54:15Z</time>
      </trkpt>
      <trkpt lat="46.61402" lon="6.07612">
        <ele>1058.07</ele>
        <time>2016-06-12T11:54:29Z</time>
      </trkpt>
      <trkpt lat="46.61396" lon="6.07618">
        <ele>1057.59</ele>
        <time>2016-06-12T11:54:35Z</time>
      </trkpt>
      <trkpt lat="46.61394" lon="6.07625">
        <ele>1057.11</ele>
        <time>2016-06-12T11:54:40Z</time>
      </trkpt>
      <trkpt lat="46.61389" lon="6.07638">
        <ele>1056.15</ele>
        <time>2016-06-12T11:54:51Z</time>
      </trkpt>
      <trkpt lat="46.61383" lon="6.07652">
        <ele>1051.82</ele>
        <time>2016-06-12T11:55:04Z</time>
      </trkpt>
      <trkpt lat="46.61377" lon="6.07662">
        <ele>1045.57</ele>
        <time>2016-06-12T11:55:16Z</time>
      </trkpt>
      <trkpt lat="46.61372" lon="6.07665">
        <ele>1044.13</ele>
        <time>2016-06-12T11:55:22Z</time>
      </trkpt>
      <trkpt lat="46.6136" lon="6.0769">
        <ele>1048.94</ele>
        <time>2016-06-12T11:55:37Z</time>
      </trkpt>
      <trkpt lat="46.61349" lon="6.07706">
        <ele>1055.67</ele>
        <time>2016-06-12T11:55:50Z</time>
      </trkpt>
      <trkpt lat="46.61341" lon="6.07721">
        <ele>1058.55</ele>
        <time>2016-06-12T11:56:03Z</time>
      </trkpt>
      <trkpt lat="46.61338" lon="6.07725">
        <ele>1059.51</ele>
        <time>2016-06-12T11:56:07Z</time>
      </trkpt>
      <trkpt lat="46.61331" lon="6.07739">
        <ele>1059.51</ele>
        <time>2016-06-12T11:56:21Z</time>
      </trkpt>
      <trkpt lat="46.61321" lon="6.07761">
        <ele>1059.51</ele>
        <time>2016-06-12T11:56:36Z</time>
      </trkpt>
      <trkpt lat="46.61308" lon="6.07781">
        <ele>1061.43</ele>
        <time>2016-06-12T11:56:52Z</time>
      </trkpt>
      <trkpt lat="46.613" lon="6.07793">
        <ele>1061.91</ele>
        <time>2016-06-12T11:57:04Z</time>
      </trkpt>
      <trkpt lat="46.61296" lon="6.07802">
        <ele>1062.87</ele>
        <time>2016-06-12T11:57:10Z</time>
      </trkpt>
      <trkpt lat="46.61296" lon="6.07805">
        <ele>1062.87</ele>
        <time>2016-06-12T11:57:12Z</time>
      </trkpt>
      <trkpt lat="46.61289" lon="6.07821">
        <ele>1060.95</ele>
        <time>2016-06-12T11:57:26Z</time>
      </trkpt>
      <trkpt lat="46.61288" lon="6.07837">
        <ele>1059.51</ele>
        <time>2016-06-12T11:57:38Z</time>
      </trkpt>
      <trkpt lat="46.61288" lon="6.07846">
        <ele>1059.99</ele>
        <time>2016-06-12T11:57:44Z</time>
      </trkpt>
      <trkpt lat="46.61282" lon="6.07865">
        <ele>1061.91</ele>
        <time>2016-06-12T11:57:57Z</time>
      </trkpt>
      <trkpt lat="46.6128" lon="6.07874">
        <ele>1062.39</ele>
        <time>2016-06-12T11:58:03Z</time>
      </trkpt>
      <trkpt lat="46.61279" lon="6.07889">
        <ele>1064.32</ele>
        <time>2016-06-12T11:58:15Z</time>
      </trkpt>
      <trkpt lat="46.61279" lon="6.07889">
        <ele>1063.84</ele>
        <time>2016-06-12T11:58:32Z</time>
      </trkpt>
      <trkpt lat="46.61279" lon="6.07889">
        <ele>1063.36</ele>
        <time>2016-06-12T11:58:55Z</time>
      </trkpt>
      <trkpt lat="46.6128" lon="6.07888">
        <ele>1062.87</ele>
        <time>2016-06-12T11:59:19Z</time>
      </trkpt>
      <trkpt lat="46.61279" lon="6.07891">
        <ele>1062.39</ele>
        <time>2016-06-12T11:59:35Z</time>
      </trkpt>
      <trkpt lat="46.61279" lon="6.07905">
        <ele>1060.47</ele>
        <time>2016-06-12T11:59:45Z</time>
      </trkpt>
      <trkpt lat="46.61279" lon="6.07911">
        <ele>1060.47</ele>
        <time>2016-06-12T11:59:49Z</time>
      </trkpt>
      <trkpt lat="46.61273" lon="6.07929">
        <ele>1060.95</ele>
        <time>2016-06-12T12:00:00Z</time>
      </trkpt>
      <trkpt lat="46.61271" lon="6.07932">
        <ele>1060.95</ele>
        <time>2016-06-12T12:00:02Z</time>
      </trkpt>
      <trkpt lat="46.61265" lon="6.07948">
        <ele>1061.91</ele>
        <time>2016-06-12T12:00:12Z</time>
      </trkpt>
      <trkpt lat="46.61255" lon="6.07966">
        <ele>1061.43</ele>
        <time>2016-06-12T12:00:27Z</time>
      </trkpt>
      <trkpt lat="46.6125" lon="6.07973">
        <ele>1061.91</ele>
        <time>2016-06-12T12:00:32Z</time>
      </trkpt>
      <trkpt lat="46.61246" lon="6.0798">
        <ele>1060.47</ele>
        <time>2016-06-12T12:00:38Z</time>
      </trkpt>
      <trkpt lat="46.61241" lon="6.07987">
        <ele>1059.99</ele>
        <time>2016-06-12T12:00:45Z</time>
      </trkpt>
      <trkpt lat="46.61237" lon="6.07995">
        <ele>1060.47</ele>
        <time>2016-06-12T12:00:51Z</time>
      </trkpt>
      <trkpt lat="46.61231" lon="6.08012">
        <ele>1058.55</ele>
        <time>2016-06-12T12:01:04Z</time>
      </trkpt>
      <trkpt lat="46.6123" lon="6.08014">
        <ele>1058.07</ele>
        <time>2016-06-12T12:01:06Z</time>
      </trkpt>
      <trkpt lat="46.61228" lon="6.08015">
        <ele>1058.07</ele>
        <time>2016-06-12T12:01:08Z</time>
      </trkpt>
      <trkpt lat="46.61226" lon="6.08018">
        <ele>1058.07</ele>
        <time>2016-06-12T12:01:10Z</time>
      </trkpt>
      <trkpt lat="46.61222" lon="6.08037">
        <ele>1058.07</ele>
        <time>2016-06-12T12:01:23Z</time>
      </trkpt>
      <trkpt lat="46.61218" lon="6.08055">
        <ele>1057.59</ele>
        <time>2016-06-12T12:01:35Z</time>
      </trkpt>
      <trkpt lat="46.61219" lon="6.08061">
        <ele>1058.55</ele>
        <time>2016-06-12T12:01:39Z</time>
      </trkpt>
      <trkpt lat="46.61217" lon="6.08074">
        <ele>1060.47</ele>
        <time>2016-06-12T12:01:47Z</time>
      </trkpt>
      <trkpt lat="46.61216" lon="6.08081">
        <ele>1060.47</ele>
        <time>2016-06-12T12:01:51Z</time>
      </trkpt>
      <trkpt lat="46.61216" lon="6.08088">
        <ele>1060.95</ele>
        <time>2016-06-12T12:01:56Z</time>
      </trkpt>
      <trkpt lat="46.61215" lon="6.08105">
        <ele>1061.43</ele>
        <time>2016-06-12T12:02:06Z</time>
      </trkpt>
      <trkpt lat="46.61215" lon="6.08113">
        <ele>1061.43</ele>
        <time>2016-06-12T12:02:11Z</time>
      </trkpt>
      <trkpt lat="46.61216" lon="6.08135">
        <ele>1060.95</ele>
        <time>2016-06-12T12:02:25Z</time>
      </trkpt>
      <trkpt lat="46.61217" lon="6.08156">
        <ele>1059.99</ele>
        <time>2016-06-12T12:02:39Z</time>
      </trkpt>
      <trkpt lat="46.61217" lon="6.08168">
        <ele>1059.99</ele>
        <time>2016-06-12T12:02:47Z</time>
      </trkpt>
      <trkpt lat="46.61216" lon="6.08172">
        <ele>1060.47</ele>
        <time>2016-06-12T12:02:50Z</time>
      </trkpt>
      <trkpt lat="46.61212" lon="6.08183">
        <ele>1059.99</ele>
        <time>2016-06-12T12:03:02Z</time>
      </trkpt>
      <trkpt lat="46.61211" lon="6.08185">
        <ele>1059.99</ele>
        <time>2016-06-12T12:03:09Z</time>
      </trkpt>
      <trkpt lat="46.61209" lon="6.0819">
        <ele>1059.03</ele>
        <time>2016-06-12T12:03:13Z</time>
      </trkpt>
      <trkpt lat="46.61202" lon="6.08205">
        <ele>1059.03</ele>
        <time>2016-06-12T12:03:26Z</time>
      </trkpt>
      <trkpt lat="46.61198" lon="6.08221">
        <ele>1059.99</ele>
        <time>2016-06-12T12:03:37Z</time>
      </trkpt>
      <trkpt lat="46.61193" lon="6.08237">
        <ele>1059.51</ele>
        <time>2016-06-12T12:03:50Z</time>
      </trkpt>
      <trkpt lat="46.61188" lon="6.08254">
        <ele>1058.07</ele>
        <time>2016-06-12T12:04:03Z</time>
      </trkpt>
      <trkpt lat="46.61184" lon="6.08263">
        <ele>1058.07</ele>
        <time>2016-06-12T12:04:14Z</time>
      </trkpt>
      <trkpt lat="46.61184" lon="6.08262">
        <ele>1058.07</ele>
        <time>2016-06-12T12:04:35Z</time>
      </trkpt>
      <trkpt lat="46.61184" lon="6.08262">
        <ele>1058.55</ele>
        <time>2016-06-12T12:05:06Z</time>
      </trkpt>
      <trkpt lat="46.61183" lon="6.08262">
        <ele>1058.07</ele>
        <time>2016-06-12T12:05:28Z</time>
      </trkpt>
      <trkpt lat="46.61183" lon="6.08262">
        <ele>1058.07</ele>
        <time>2016-06-12T12:05:59Z</time>
      </trkpt>
      <trkpt lat="46.61183" lon="6.08263">
        <ele>1059.99</ele>
        <time>2016-06-12T12:06:15Z</time>
      </trkpt>
      <trkpt lat="46.6118" lon="6.08267">
        <ele>1059.99</ele>
        <time>2016-06-12T12:06:20Z</time>
      </trkpt>
      <trkpt lat="46.61177" lon="6.08272">
        <ele>1060.47</ele>
        <time>2016-06-12T12:06:25Z</time>
      </trkpt>
      <trkpt lat="46.61173" lon="6.08278">
        <ele>1060.47</ele>
        <time>2016-06-12T12:06:30Z</time>
      </trkpt>
      <trkpt lat="46.61168" lon="6.08283">
        <ele>1059.03</ele>
        <time>2016-06-12T12:06:37Z</time>
      </trkpt>
      <trkpt lat="46.61161" lon="6.08297">
        <ele>1059.99</ele>
        <time>2016-06-12T12:06:47Z</time>
      </trkpt>
      <trkpt lat="46.61158" lon="6.08299">
        <ele>1059.99</ele>
        <time>2016-06-12T12:06:50Z</time>
      </trkpt>
      <trkpt lat="46.61149" lon="6.08312">
        <ele>1060.47</ele>
        <time>2016-06-12T12:07:02Z</time>
      </trkpt>
      <trkpt lat="46.61139" lon="6.08327">
        <ele>1063.36</ele>
        <time>2016-06-12T12:07:15Z</time>
      </trkpt>
      <trkpt lat="46.6113" lon="6.08342">
        <ele>1063.36</ele>
        <time>2016-06-12T12:07:28Z</time>
      </trkpt>
      <trkpt lat="46.6112" lon="6.08357">
        <ele>1062.39</ele>
        <time>2016-06-12T12:07:41Z</time>
      </trkpt>
      <trkpt lat="46.61108" lon="6.08374">
        <ele>1060.47</ele>
        <time>2016-06-12T12:07:57Z</time>
      </trkpt>
      <trkpt lat="46.61106" lon="6.08377">
        <ele>1059.99</ele>
        <time>2016-06-12T12:08:00Z</time>
      </trkpt>
      <trkpt lat="46.61095" lon="6.08397">
        <ele>1059.03</ele>
        <time>2016-06-12T12:08:15Z</time>
      </trkpt>
      <trkpt lat="46.61088" lon="6.0841">
        <ele>1058.07</ele>
        <time>2016-06-12T12:08:26Z</time>
      </trkpt>
      <trkpt lat="46.61084" lon="6.0842">
        <ele>1057.59</ele>
        <time>2016-06-12T12:08:33Z</time>
      </trkpt>
      <trkpt lat="46.61074" lon="6.08438">
        <ele>1055.67</ele>
        <time>2016-06-12T12:08:48Z</time>
      </trkpt>
      <trkpt lat="46.61064" lon="6.08448">
        <ele>1054.22</ele>
        <time>2016-06-12T12:09:00Z</time>
      </trkpt>
      <trkpt lat="46.61063" lon="6.08449">
        <ele>1054.22</ele>
        <time>2016-06-12T12:09:01Z</time>
      </trkpt>
      <trkpt lat="46.61062" lon="6.08452">
        <ele>1054.22</ele>
        <time>2016-06-12T12:09:03Z</time>
      </trkpt>
      <trkpt lat="46.61053" lon="6.08466">
        <ele>1054.22</ele>
        <time>2016-06-12T12:09:16Z</time>
      </trkpt>
      <trkpt lat="46.61047" lon="6.08484">
        <ele>1054.7</ele>
        <time>2016-06-12T12:09:29Z</time>
      </trkpt>
      <trkpt lat="46.61045" lon="6.08493">
        <ele>1053.26</ele>
        <time>2016-06-12T12:09:35Z</time>
      </trkpt>
      <trkpt lat="46.61044" lon="6.085">
        <ele>1052.78</ele>
        <time>2016-06-12T12:09:40Z</time>
      </trkpt>
      <trkpt lat="46.6104" lon="6.08509">
        <ele>1052.78</ele>
        <time>2016-06-12T12:09:47Z</time>
      </trkpt>
      <trkpt lat="46.61036" lon="6.08515">
        <ele>1052.3</ele>
        <time>2016-06-12T12:09:52Z</time>
      </trkpt>
      <trkpt lat="46.6103" lon="6.08521">
        <ele>1052.3</ele>
        <time>2016-06-12T12:09:58Z</time>
      </trkpt>
      <trkpt lat="46.61021" lon="6.08535">
        <ele>1051.82</ele>
        <time>2016-06-12T12:10:13Z</time>
      </trkpt>
      <trkpt lat="46.61013" lon="6.08547">
        <ele>1051.82</ele>
        <time>2016-06-12T12:10:25Z</time>
      </trkpt>
      <trkpt lat="46.61009" lon="6.08555">
        <ele>1052.3</ele>
        <time>2016-06-12T12:10:31Z</time>
      </trkpt>
      <trkpt lat="46.6101" lon="6.08559">
        <ele>1051.82</ele>
        <time>2016-06-12T12:10:35Z</time>
      </trkpt>
      <trkpt lat="46.61014" lon="6.08577">
        <ele>1053.74</ele>
        <time>2016-06-12T12:10:48Z</time>
      </trkpt>
      <trkpt lat="46.61013" lon="6.08586">
        <ele>1054.7</ele>
        <time>2016-06-12T12:10:59Z</time>
      </trkpt>
      <trkpt lat="46.61012" lon="6.08586">
        <ele>1054.7</ele>
        <time>2016-06-12T12:11:10Z</time>
      </trkpt>
      <trkpt lat="46.6101" lon="6.08604">
        <ele>1054.22</ele>
        <time>2016-06-12T12:11:23Z</time>
      </trkpt>
      <trkpt lat="46.61008" lon="6.08613">
        <ele>1053.74</ele>
        <time>2016-06-12T12:11:30Z</time>
      </trkpt>
      <trkpt lat="46.61007" lon="6.08615">
        <ele>1053.74</ele>
        <time>2016-06-12T12:11:32Z</time>
      </trkpt>
      <trkpt lat="46.61005" lon="6.08637">
        <ele>1055.18</ele>
        <time>2016-06-12T12:11:46Z</time>
      </trkpt>
      <trkpt lat="46.61005" lon="6.0864">
        <ele>1055.67</ele>
        <time>2016-06-12T12:11:48Z</time>
      </trkpt>
      <trkpt lat="46.61006" lon="6.08658">
        <ele>1056.15</ele>
        <time>2016-06-12T12:12:00Z</time>
      </trkpt>
      <trkpt lat="46.61009" lon="6.08678">
        <ele>1056.15</ele>
        <time>2016-06-12T12:12:13Z</time>
      </trkpt>
      <trkpt lat="46.61011" lon="6.08686">
        <ele>1056.15</ele>
        <time>2016-06-12T12:12:20Z</time>
      </trkpt>
      <trkpt lat="46.61012" lon="6.08693">
        <ele>1056.63</ele>
        <time>2016-06-12T12:12:24Z</time>
      </trkpt>
      <trkpt lat="46.61017" lon="6.0871">
        <ele>1056.63</ele>
        <time>2016-06-12T12:12:38Z</time>
      </trkpt>
      <trkpt lat="46.61021" lon="6.08722">
        <ele>1056.63</ele>
        <time>2016-06-12T12:12:47Z</time>
      </trkpt>
      <trkpt lat="46.61021" lon="6.08725">
        <ele>1056.63</ele>
        <time>2016-06-12T12:12:49Z</time>
      </trkpt>
      <trkpt lat="46.6103" lon="6.08744">
        <ele>1057.59</ele>
        <time>2016-06-12T12:13:04Z</time>
      </trkpt>
      <trkpt lat="46.61034" lon="6.08752">
        <ele>1056.63</ele>
        <time>2016-06-12T12:13:11Z</time>
      </trkpt>
      <trkpt lat="46.61035" lon="6.08754">
        <ele>1056.63</ele>
        <time>2016-06-12T12:13:13Z</time>
      </trkpt>
      <trkpt lat="46.61038" lon="6.08759">
        <ele>1057.11</ele>
        <time>2016-06-12T12:13:17Z</time>
      </trkpt>
      <trkpt lat="46.61044" lon="6.08765">
        <ele>1056.63</ele>
        <time>2016-06-12T12:13:24Z</time>
      </trkpt>
      <trkpt lat="46.61046" lon="6.08767">
        <ele>1056.15</ele>
        <time>2016-06-12T12:13:26Z</time>
      </trkpt>
      <trkpt lat="46.61048" lon="6.08768">
        <ele>1055.67</ele>
        <time>2016-06-12T12:13:28Z</time>
      </trkpt>
      <trkpt lat="46.61053" lon="6.08783">
        <ele>1053.26</ele>
        <time>2016-06-12T12:13:41Z</time>
      </trkpt>
      <trkpt lat="46.61062" lon="6.08791">
        <ele>1053.26</ele>
        <time>2016-06-12T12:13:52Z</time>
      </trkpt>
      <trkpt lat="46.61062" lon="6.08791">
        <ele>1053.74</ele>
        <time>2016-06-12T12:13:53Z</time>
      </trkpt>
      <trkpt lat="46.61064" lon="6.08793">
        <ele>1054.22</ele>
        <time>2016-06-12T12:13:55Z</time>
      </trkpt>
      <trkpt lat="46.61072" lon="6.08806">
        <ele>1055.67</ele>
        <time>2016-06-12T12:14:08Z</time>
      </trkpt>
      <trkpt lat="46.61076" lon="6.08811">
        <ele>1056.15</ele>
        <time>2016-06-12T12:14:21Z</time>
      </trkpt>
      <trkpt lat="46.6108" lon="6.0882">
        <ele>1057.59</ele>
        <time>2016-06-12T12:14:32Z</time>
      </trkpt>
      <trkpt lat="46.61084" lon="6.08824">
        <ele>1057.11</ele>
        <time>2016-06-12T12:14:37Z</time>
      </trkpt>
      <trkpt lat="46.61094" lon="6.08838">
        <ele>1057.11</ele>
        <time>2016-06-12T12:14:51Z</time>
      </trkpt>
      <trkpt lat="46.61096" lon="6.08842">
        <ele>1058.07</ele>
        <time>2016-06-12T12:14:55Z</time>
      </trkpt>
      <trkpt lat="46.61105" lon="6.08847">
        <ele>1057.11</ele>
        <time>2016-06-12T12:15:11Z</time>
      </trkpt>
      <trkpt lat="46.61114" lon="6.08853">
        <ele>1057.11</ele>
        <time>2016-06-12T12:15:24Z</time>
      </trkpt>
      <trkpt lat="46.61124" lon="6.08859">
        <ele>1057.59</ele>
        <time>2016-06-12T12:15:37Z</time>
      </trkpt>
      <trkpt lat="46.61136" lon="6.08863">
        <ele>1058.07</ele>
        <time>2016-06-12T12:15:49Z</time>
      </trkpt>
      <trkpt lat="46.6114" lon="6.08867">
        <ele>1057.59</ele>
        <time>2016-06-12T12:15:55Z</time>
      </trkpt>
      <trkpt lat="46.6115" lon="6.08873">
        <ele>1056.63</ele>
        <time>2016-06-12T12:16:08Z</time>
      </trkpt>
      <trkpt lat="46.61159" lon="6.08879">
        <ele>1059.03</ele>
        <time>2016-06-12T12:16:19Z</time>
      </trkpt>
      <trkpt lat="46.61168" lon="6.08885">
        <ele>1059.51</ele>
        <time>2016-06-12T12:16:32Z</time>
      </trkpt>
      <trkpt lat="46.61177" lon="6.08888">
        <ele>1060.95</ele>
        <time>2016-06-12T12:16:43Z</time>
      </trkpt>
      <trkpt lat="46.61181" lon="6.08893">
        <ele>1062.39</ele>
        <time>2016-06-12T12:16:54Z</time>
      </trkpt>
      <trkpt lat="46.61182" lon="6.08897">
        <ele>1062.87</ele>
        <time>2016-06-12T12:17:06Z</time>
      </trkpt>
      <trkpt lat="46.61186" lon="6.08901">
        <ele>1063.36</ele>
        <time>2016-06-12T12:17:15Z</time>
      </trkpt>
      <trkpt lat="46.61189" lon="6.08903">
        <ele>1064.32</ele>
        <time>2016-06-12T12:17:30Z</time>
      </trkpt>
      <trkpt lat="46.6119" lon="6.08904">
        <ele>1065.28</ele>
        <time>2016-06-12T12:17:44Z</time>
      </trkpt>
      <trkpt lat="46.6119" lon="6.08905">
        <ele>1064.8</ele>
        <time>2016-06-12T12:17:45Z</time>
      </trkpt>
      <trkpt lat="46.61189" lon="6.08913">
        <ele>1064.32</ele>
        <time>2016-06-12T12:17:53Z</time>
      </trkpt>
      <trkpt lat="46.61187" lon="6.08918">
        <ele>1064.32</ele>
        <time>2016-06-12T12:17:58Z</time>
      </trkpt>
      <trkpt lat="46.61183" lon="6.08941">
        <ele>1066.24</ele>
        <time>2016-06-12T12:18:13Z</time>
      </trkpt>
      <trkpt lat="46.6118" lon="6.08945">
        <ele>1065.28</ele>
        <time>2016-06-12T12:18:17Z</time>
      </trkpt>
      <trkpt lat="46.61176" lon="6.08957">
        <ele>1066.24</ele>
        <time>2016-06-12T12:18:28Z</time>
      </trkpt>
      <trkpt lat="46.61174" lon="6.08966">
        <ele>1066.72</ele>
        <time>2016-06-12T12:18:38Z</time>
      </trkpt>
      <trkpt lat="46.6117" lon="6.08978">
        <ele>1068.64</ele>
        <time>2016-06-12T12:18:49Z</time>
      </trkpt>
      <trkpt lat="46.6117" lon="6.08984">
        <ele>1069.6</ele>
        <time>2016-06-12T12:18:55Z</time>
      </trkpt>
      <trkpt lat="46.61165" lon="6.08998">
        <ele>1069.12</ele>
        <time>2016-06-12T12:19:07Z</time>
      </trkpt>
      <trkpt lat="46.6116" lon="6.09011">
        <ele>1067.68</ele>
        <time>2016-06-12T12:19:18Z</time>
      </trkpt>
      <trkpt lat="46.61155" lon="6.09022">
        <ele>1065.76</ele>
        <time>2016-06-12T12:19:31Z</time>
      </trkpt>
      <trkpt lat="46.6115" lon="6.09031">
        <ele>1065.76</ele>
        <time>2016-06-12T12:19:43Z</time>
      </trkpt>
      <trkpt lat="46.61146" lon="6.09038">
        <ele>1066.24</ele>
        <time>2016-06-12T12:19:58Z</time>
      </trkpt>
      <trkpt lat="46.6114" lon="6.09047">
        <ele>1065.28</ele>
        <time>2016-06-12T12:20:11Z</time>
      </trkpt>
      <trkpt lat="46.61136" lon="6.09053">
        <ele>1064.32</ele>
        <time>2016-06-12T12:20:23Z</time>
      </trkpt>
      <trkpt lat="46.61131" lon="6.0906">
        <ele>1063.84</ele>
        <time>2016-06-12T12:20:32Z</time>
      </trkpt>
      <trkpt lat="46.61126" lon="6.0907">
        <ele>1063.36</ele>
        <time>2016-06-12T12:20:40Z</time>
      </trkpt>
      <trkpt lat="46.61122" lon="6.09081">
        <ele>1061.43</ele>
        <time>2016-06-12T12:20:51Z</time>
      </trkpt>
      <trkpt lat="46.61119" lon="6.09085">
        <ele>1059.99</ele>
        <time>2016-06-12T12:21:01Z</time>
      </trkpt>
      <trkpt lat="46.6111" lon="6.0909">
        <ele>1059.51</ele>
        <time>2016-06-12T12:21:11Z</time>
      </trkpt>
      <trkpt lat="46.61097" lon="6.09099">
        <ele>1059.99</ele>
        <time>2016-06-12T12:21:25Z</time>
      </trkpt>
      <trkpt lat="46.61089" lon="6.09109">
        <ele>1060.47</ele>
        <time>2016-06-12T12:21:36Z</time>
      </trkpt>
      <trkpt lat="46.61081" lon="6.09116">
        <ele>1060.95</ele>
        <time>2016-06-12T12:21:49Z</time>
      </trkpt>
      <trkpt lat="46.61072" lon="6.09128">
        <ele>1061.43</ele>
        <time>2016-06-12T12:22:02Z</time>
      </trkpt>
      <trkpt lat="46.61064" lon="6.09131">
        <ele>1061.43</ele>
        <time>2016-06-12T12:22:14Z</time>
      </trkpt>
      <trkpt lat="46.61057" lon="6.09133">
        <ele>1061.91</ele>
        <time>2016-06-12T12:22:23Z</time>
      </trkpt>
      <trkpt lat="46.61052" lon="6.09138">
        <ele>1061.43</ele>
        <time>2016-06-12T12:22:33Z</time>
      </trkpt>
      <trkpt lat="46.61045" lon="6.09143">
        <ele>1060.47</ele>
        <time>2016-06-12T12:22:42Z</time>
      </trkpt>
      <trkpt lat="46.61043" lon="6.09145">
        <ele>1059.51</ele>
        <time>2016-06-12T12:22:58Z</time>
      </trkpt>
      <trkpt lat="46.61034" lon="6.09154">
        <ele>1059.99</ele>
        <time>2016-06-12T12:23:11Z</time>
      </trkpt>
      <trkpt lat="46.61031" lon="6.0916">
        <ele>1060.47</ele>
        <time>2016-06-12T12:23:16Z</time>
      </trkpt>
      <trkpt lat="46.61027" lon="6.09173">
        <ele>1060.95</ele>
        <time>2016-06-12T12:23:27Z</time>
      </trkpt>
      <trkpt lat="46.61019" lon="6.09187">
        <ele>1062.39</ele>
        <time>2016-06-12T12:23:40Z</time>
      </trkpt>
      <trkpt lat="46.61011" lon="6.09199">
        <ele>1061.91</ele>
        <time>2016-06-12T12:23:52Z</time>
      </trkpt>
      <trkpt lat="46.61006" lon="6.09214">
        <ele>1061.91</ele>
        <time>2016-06-12T12:24:04Z</time>
      </trkpt>
      <trkpt lat="46.61002" lon="6.09225">
        <ele>1062.87</ele>
        <time>2016-06-12T12:24:15Z</time>
      </trkpt>
      <trkpt lat="46.60997" lon="6.09236">
        <ele>1063.84</ele>
        <time>2016-06-12T12:24:26Z</time>
      </trkpt>
      <trkpt lat="46.60996" lon="6.09241">
        <ele>1064.32</ele>
        <time>2016-06-12T12:24:31Z</time>
      </trkpt>
      <trkpt lat="46.60995" lon="6.09245">
        <ele>1063.84</ele>
        <time>2016-06-12T12:24:35Z</time>
      </trkpt>
      <trkpt lat="46.60993" lon="6.09248">
        <ele>1063.36</ele>
        <time>2016-06-12T12:24:47Z</time>
      </trkpt>
      <trkpt lat="46.60993" lon="6.09249">
        <ele>1063.36</ele>
        <time>2016-06-12T12:25:00Z</time>
      </trkpt>
      <trkpt lat="46.60996" lon="6.09251">
        <ele>1062.87</ele>
        <time>2016-06-12T12:25:11Z</time>
      </trkpt>
      <trkpt lat="46.60994" lon="6.09253">
        <ele>1062.87</ele>
        <time>2016-06-12T12:25:28Z</time>
      </trkpt>
      <trkpt lat="46.60992" lon="6.09253">
        <ele>1062.87</ele>
        <time>2016-06-12T12:25:39Z</time>
      </trkpt>
      <trkpt lat="46.6099" lon="6.09254">
        <ele>1063.36</ele>
        <time>2016-06-12T12:25:41Z</time>
      </trkpt>
      <trkpt lat="46.60988" lon="6.09257">
        <ele>1063.84</ele>
        <time>2016-06-12T12:25:44Z</time>
      </trkpt>
      <trkpt lat="46.60987" lon="6.0926">
        <ele>1064.8</ele>
        <time>2016-06-12T12:25:46Z</time>
      </trkpt>
      <trkpt lat="46.60982" lon="6.09271">
        <ele>1063.84</ele>
        <time>2016-06-12T12:25:56Z</time>
      </trkpt>
      <trkpt lat="46.60979" lon="6.09276">
        <ele>1064.8</ele>
        <time>2016-06-12T12:26:00Z</time>
      </trkpt>
      <trkpt lat="46.6097" lon="6.09286">
        <ele>1063.36</ele>
        <time>2016-06-12T12:26:11Z</time>
      </trkpt>
      <trkpt lat="46.60967" lon="6.09292">
        <ele>1063.84</ele>
        <time>2016-06-12T12:26:20Z</time>
      </trkpt>
      <trkpt lat="46.60957" lon="6.09301">
        <ele>1066.72</ele>
        <time>2016-06-12T12:26:33Z</time>
      </trkpt>
      <trkpt lat="46.60956" lon="6.09306">
        <ele>1067.68</ele>
        <time>2016-06-12T12:26:41Z</time>
      </trkpt>
      <trkpt lat="46.60945" lon="6.09319">
        <ele>1068.16</ele>
        <time>2016-06-12T12:26:54Z</time>
      </trkpt>
      <trkpt lat="46.60939" lon="6.0933">
        <ele>1069.6</ele>
        <time>2016-06-12T12:27:06Z</time>
      </trkpt>
      <trkpt lat="46.60934" lon="6.0934">
        <ele>1069.6</ele>
        <time>2016-06-12T12:27:17Z</time>
      </trkpt>
      <trkpt lat="46.60933" lon="6.09344">
        <ele>1069.6</ele>
        <time>2016-06-12T12:27:19Z</time>
      </trkpt>
      <trkpt lat="46.60928" lon="6.09351">
        <ele>1067.68</ele>
        <time>2016-06-12T12:27:27Z</time>
      </trkpt>
      <trkpt lat="46.60927" lon="6.09366">
        <ele>1067.68</ele>
        <time>2016-06-12T12:27:39Z</time>
      </trkpt>
      <trkpt lat="46.60924" lon="6.09378">
        <ele>1071.05</ele>
        <time>2016-06-12T12:27:50Z</time>
      </trkpt>
      <trkpt lat="46.60921" lon="6.09389">
        <ele>1072.01</ele>
        <time>2016-06-12T12:28:00Z</time>
      </trkpt>
      <trkpt lat="46.6091" lon="6.09403">
        <ele>1072.49</ele>
        <time>2016-06-12T12:28:15Z</time>
      </trkpt>
      <trkpt lat="46.60908" lon="6.09409">
        <ele>1073.45</ele>
        <time>2016-06-12T12:28:25Z</time>
      </trkpt>
      <trkpt lat="46.60906" lon="6.09415">
        <ele>1075.85</ele>
        <time>2016-06-12T12:28:38Z</time>
      </trkpt>
      <trkpt lat="46.60906" lon="6.09418">
        <ele>1076.81</ele>
        <time>2016-06-12T12:28:51Z</time>
      </trkpt>
      <trkpt lat="46.60902" lon="6.09425">
        <ele>1078.74</ele>
        <time>2016-06-12T12:28:58Z</time>
      </trkpt>
      <trkpt lat="46.60896" lon="6.09436">
        <ele>1082.58</ele>
        <time>2016-06-12T12:29:03Z</time>
      </trkpt>
      <trkpt lat="46.60892" lon="6.09448">
        <ele>1088.35</ele>
        <time>2016-06-12T12:29:17Z</time>
      </trkpt>
      <trkpt lat="46.60887" lon="6.09458">
        <ele>1090.27</ele>
        <time>2016-06-12T12:29:27Z</time>
      </trkpt>
      <trkpt lat="46.60886" lon="6.09459">
        <ele>1090.75</ele>
        <time>2016-06-12T12:29:28Z</time>
      </trkpt>
      <trkpt lat="46.60883" lon="6.09462">
        <ele>1089.79</ele>
        <time>2016-06-12T12:29:37Z</time>
      </trkpt>
      <trkpt lat="46.60882" lon="6.09462">
        <ele>1089.31</ele>
        <time>2016-06-12T12:29:38Z</time>
      </trkpt>
      <trkpt lat="46.6088" lon="6.09466">
        <ele>1087.87</ele>
        <time>2016-06-12T12:29:47Z</time>
      </trkpt>
      <trkpt lat="46.60871" lon="6.09481">
        <ele>1083.54</ele>
        <time>2016-06-12T12:29:58Z</time>
      </trkpt>
      <trkpt lat="46.60861" lon="6.09493">
        <ele>1082.1</ele>
        <time>2016-06-12T12:30:11Z</time>
      </trkpt>
      <trkpt lat="46.60856" lon="6.09501">
        <ele>1080.66</ele>
        <time>2016-06-12T12:30:20Z</time>
      </trkpt>
      <trkpt lat="46.60844" lon="6.0951">
        <ele>1080.18</ele>
        <time>2016-06-12T12:30:33Z</time>
      </trkpt>
      <trkpt lat="46.60839" lon="6.09517">
        <ele>1083.06</ele>
        <time>2016-06-12T12:30:44Z</time>
      </trkpt>
      <trkpt lat="46.60838" lon="6.09519">
        <ele>1084.99</ele>
        <time>2016-06-12T12:30:52Z</time>
      </trkpt>
      <trkpt lat="46.60839" lon="6.0952">
        <ele>1085.47</ele>
        <time>2016-06-12T12:30:54Z</time>
      </trkpt>
      <trkpt lat="46.60823" lon="6.09532">
        <ele>1086.43</ele>
        <time>2016-06-12T12:31:07Z</time>
      </trkpt>
      <trkpt lat="46.60823" lon="6.09535">
        <ele>1085.95</ele>
        <time>2016-06-12T12:31:09Z</time>
      </trkpt>
      <trkpt lat="46.6082" lon="6.09545">
        <ele>1088.83</ele>
        <time>2016-06-12T12:31:20Z</time>
      </trkpt>
      <trkpt lat="46.60814" lon="6.09553">
        <ele>1086.91</ele>
        <time>2016-06-12T12:31:30Z</time>
      </trkpt>
      <trkpt lat="46.6081" lon="6.09558">
        <ele>1088.35</ele>
        <time>2016-06-12T12:31:41Z</time>
      </trkpt>
      <trkpt lat="46.60805" lon="6.09568">
        <ele>1089.31</ele>
        <time>2016-06-12T12:31:51Z</time>
      </trkpt>
      <trkpt lat="46.60799" lon="6.09581">
        <ele>1090.75</ele>
        <time>2016-06-12T12:32:01Z</time>
      </trkpt>
      <trkpt lat="46.60795" lon="6.09586">
        <ele>1091.71</ele>
        <time>2016-06-12T12:32:10Z</time>
      </trkpt>
      <trkpt lat="46.60788" lon="6.09592">
        <ele>1091.23</ele>
        <time>2016-06-12T12:32:21Z</time>
      </trkpt>
      <trkpt lat="46.60785" lon="6.09596">
        <ele>1091.23</ele>
        <time>2016-06-12T12:32:24Z</time>
      </trkpt>
      <trkpt lat="46.6078" lon="6.09601">
        <ele>1089.79</ele>
        <time>2016-06-12T12:32:36Z</time>
      </trkpt>
      <trkpt lat="46.60778" lon="6.096">
        <ele>1089.79</ele>
        <time>2016-06-12T12:32:41Z</time>
      </trkpt>
      <trkpt lat="46.60764" lon="6.09604">
        <ele>1089.31</ele>
        <time>2016-06-12T12:32:56Z</time>
      </trkpt>
      <trkpt lat="46.60761" lon="6.09601">
        <ele>1089.31</ele>
        <time>2016-06-12T12:33:07Z</time>
      </trkpt>
      <trkpt lat="46.60752" lon="6.09597">
        <ele>1088.83</ele>
        <time>2016-06-12T12:33:20Z</time>
      </trkpt>
      <trkpt lat="46.60751" lon="6.09597">
        <ele>1088.35</ele>
        <time>2016-06-12T12:33:26Z</time>
      </trkpt>
      <trkpt lat="46.60749" lon="6.09601">
        <ele>1088.35</ele>
        <time>2016-06-12T12:33:29Z</time>
      </trkpt>
      <trkpt lat="46.60748" lon="6.09603">
        <ele>1088.35</ele>
        <time>2016-06-12T12:33:31Z</time>
      </trkpt>
      <trkpt lat="46.60738" lon="6.09608">
        <ele>1089.31</ele>
        <time>2016-06-12T12:33:41Z</time>
      </trkpt>
      <trkpt lat="46.60734" lon="6.09609">
        <ele>1089.31</ele>
        <time>2016-06-12T12:33:45Z</time>
      </trkpt>
      <trkpt lat="46.60727" lon="6.09621">
        <ele>1088.83</ele>
        <time>2016-06-12T12:33:57Z</time>
      </trkpt>
      <trkpt lat="46.6072" lon="6.09633">
        <ele>1089.31</ele>
        <time>2016-06-12T12:34:09Z</time>
      </trkpt>
      <trkpt lat="46.60715" lon="6.09643">
        <ele>1089.79</ele>
        <time>2016-06-12T12:34:21Z</time>
      </trkpt>
      <trkpt lat="46.6071" lon="6.09647">
        <ele>1089.31</ele>
        <time>2016-06-12T12:34:34Z</time>
      </trkpt>
      <trkpt lat="46.60709" lon="6.09647">
        <ele>1088.83</ele>
        <time>2016-06-12T12:34:52Z</time>
      </trkpt>
      <trkpt lat="46.60708" lon="6.09649">
        <ele>1088.35</ele>
        <time>2016-06-12T12:35:12Z</time>
      </trkpt>
      <trkpt lat="46.60709" lon="6.09649">
        <ele>1088.35</ele>
        <time>2016-06-12T12:35:30Z</time>
      </trkpt>
      <trkpt lat="46.6071" lon="6.09648">
        <ele>1088.35</ele>
        <time>2016-06-12T12:35:48Z</time>
      </trkpt>
      <trkpt lat="46.60711" lon="6.09648">
        <ele>1088.35</ele>
        <time>2016-06-12T12:36:08Z</time>
      </trkpt>
      <trkpt lat="46.60713" lon="6.0965">
        <ele>1088.83</ele>
        <time>2016-06-12T12:36:24Z</time>
      </trkpt>
      <trkpt lat="46.60713" lon="6.0965">
        <ele>1088.83</ele>
        <time>2016-06-12T12:36:44Z</time>
      </trkpt>
      <trkpt lat="46.60711" lon="6.09649">
        <ele>1089.31</ele>
        <time>2016-06-12T12:37:12Z</time>
      </trkpt>
      <trkpt lat="46.60714" lon="6.09651">
        <ele>1089.79</ele>
        <time>2016-06-12T12:37:43Z</time>
      </trkpt>
      <trkpt lat="46.60715" lon="6.09651">
        <ele>1089.31</ele>
        <time>2016-06-12T12:38:08Z</time>
      </trkpt>
      <trkpt lat="46.60715" lon="6.0965">
        <ele>1089.31</ele>
        <time>2016-06-12T12:38:35Z</time>
      </trkpt>
      <trkpt lat="46.60713" lon="6.0965">
        <ele>1089.79</ele>
        <time>2016-06-12T12:38:54Z</time>
      </trkpt>
      <trkpt lat="46.60716" lon="6.09652">
        <ele>1089.31</ele>
        <time>2016-06-12T12:39:26Z</time>
      </trkpt>
      <trkpt lat="46.60715" lon="6.09652">
        <ele>1090.27</ele>
        <time>2016-06-12T12:39:55Z</time>
      </trkpt>
      <trkpt lat="46.60715" lon="6.09654">
        <ele>1090.27</ele>
        <time>2016-06-12T12:40:26Z</time>
      </trkpt>
      <trkpt lat="46.60715" lon="6.09656">
        <ele>1091.23</ele>
        <time>2016-06-12T12:40:57Z</time>
      </trkpt>
      <trkpt lat="46.60715" lon="6.09657">
        <ele>1091.71</ele>
        <time>2016-06-12T12:41:25Z</time>
      </trkpt>
      <trkpt lat="46.60715" lon="6.09657">
        <ele>1092.2</ele>
        <time>2016-06-12T12:41:53Z</time>
      </trkpt>
      <trkpt lat="46.60714" lon="6.09657">
        <ele>1093.16</ele>
        <time>2016-06-12T12:42:19Z</time>
      </trkpt>
      <trkpt lat="46.60713" lon="6.09658">
        <ele>1093.16</ele>
        <time>2016-06-12T12:42:48Z</time>
      </trkpt>
      <trkpt lat="46.60712" lon="6.09658">
        <ele>1093.16</ele>
        <time>2016-06-12T12:43:21Z</time>
      </trkpt>
      <trkpt lat="46.60711" lon="6.09658">
        <ele>1093.16</ele>
        <time>2016-06-12T12:43:51Z</time>
      </trkpt>
      <trkpt lat="46.60711" lon="6.09659">
        <ele>1093.64</ele>
        <time>2016-06-12T12:44:23Z</time>
      </trkpt>
      <trkpt lat="46.60711" lon="6.09659">
        <ele>1093.64</ele>
        <time>2016-06-12T12:44:54Z</time>
      </trkpt>
      <trkpt lat="46.60711" lon="6.09659">
        <ele>1094.12</ele>
        <time>2016-06-12T12:45:21Z</time>
      </trkpt>
      <trkpt lat="46.6071" lon="6.09659">
        <ele>1094.6</ele>
        <time>2016-06-12T12:45:45Z</time>
      </trkpt>
      <trkpt lat="46.6071" lon="6.09659">
        <ele>1094.12</ele>
        <time>2016-06-12T12:46:13Z</time>
      </trkpt>
      <trkpt lat="46.6071" lon="6.09659">
        <ele>1093.64</ele>
        <time>2016-06-12T12:46:37Z</time>
      </trkpt>
      <trkpt lat="46.6071" lon="6.0966">
        <ele>1094.12</ele>
        <time>2016-06-12T12:47:03Z</time>
      </trkpt>
      <trkpt lat="46.60715" lon="6.09663">
        <ele>1095.08</ele>
        <time>2016-06-12T12:47:25Z</time>
      </trkpt>
      <trkpt lat="46.60716" lon="6.09663">
        <ele>1096.04</ele>
        <time>2016-06-12T12:47:54Z</time>
      </trkpt>
      <trkpt lat="46.60715" lon="6.09665">
        <ele>1096.52</ele>
        <time>2016-06-12T12:48:22Z</time>
      </trkpt>
      <trkpt lat="46.60714" lon="6.09666">
        <ele>1097</ele>
        <time>2016-06-12T12:48:55Z</time>
      </trkpt>
      <trkpt lat="46.60713" lon="6.09664">
        <ele>1097</ele>
        <time>2016-06-12T12:49:22Z</time>
      </trkpt>
      <trkpt lat="46.60715" lon="6.09664">
        <ele>1097.48</ele>
        <time>2016-06-12T12:49:46Z</time>
      </trkpt>
      <trkpt lat="46.60714" lon="6.09663">
        <ele>1097.96</ele>
        <time>2016-06-12T12:50:19Z</time>
      </trkpt>
      <trkpt lat="46.60714" lon="6.09663">
        <ele>1099.4</ele>
        <time>2016-06-12T12:50:52Z</time>
      </trkpt>
      <trkpt lat="46.60713" lon="6.09663">
        <ele>1099.89</ele>
        <time>2016-06-12T12:51:24Z</time>
      </trkpt>
      <trkpt lat="46.60713" lon="6.09662">
        <ele>1100.37</ele>
        <time>2016-06-12T12:51:55Z</time>
      </trkpt>
      <trkpt lat="46.60714" lon="6.09661">
        <ele>1100.37</ele>
        <time>2016-06-12T12:52:24Z</time>
      </trkpt>
      <trkpt lat="46.60713" lon="6.09661">
        <ele>1100.37</ele>
        <time>2016-06-12T12:52:56Z</time>
      </trkpt>
      <trkpt lat="46.60714" lon="6.09662">
        <ele>1101.33</ele>
        <time>2016-06-12T12:53:32Z</time>
      </trkpt>
      <trkpt lat="46.60714" lon="6.09662">
        <ele>1101.81</ele>
        <time>2016-06-12T12:54:06Z</time>
      </trkpt>
      <trkpt lat="46.60715" lon="6.09663">
        <ele>1102.29</ele>
        <time>2016-06-12T12:54:37Z</time>
      </trkpt>
      <trkpt lat="46.60714" lon="6.09663">
        <ele>1102.29</ele>
        <time>2016-06-12T12:54:54Z</time>
      </trkpt>
      <trkpt lat="46.60713" lon="6.09663">
        <ele>1102.29</ele>
        <time>2016-06-12T12:55:07Z</time>
      </trkpt>
      <trkpt lat="46.60712" lon="6.09661">
        <ele>1100.85</ele>
        <time>2016-06-12T12:55:23Z</time>
      </trkpt>
      <trkpt lat="46.60707" lon="6.09676">
        <ele>1094.6</ele>
        <time>2016-06-12T12:55:37Z</time>
      </trkpt>
      <trkpt lat="46.60704" lon="6.09686">
        <ele>1087.39</ele>
        <time>2016-06-12T12:55:48Z</time>
      </trkpt>
      <trkpt lat="46.60701" lon="6.09692">
        <ele>1085.95</ele>
        <time>2016-06-12T12:55:55Z</time>
      </trkpt>
      <trkpt lat="46.60694" lon="6.09704">
        <ele>1084.99</ele>
        <time>2016-06-12T12:56:04Z</time>
      </trkpt>
      <trkpt lat="46.6069" lon="6.09723">
        <ele>1083.54</ele>
        <time>2016-06-12T12:56:17Z</time>
      </trkpt>
      <trkpt lat="46.60685" lon="6.09735">
        <ele>1084.02</ele>
        <time>2016-06-12T12:56:29Z</time>
      </trkpt>
      <trkpt lat="46.60679" lon="6.09743">
        <ele>1085.95</ele>
        <time>2016-06-12T12:56:40Z</time>
      </trkpt>
      <trkpt lat="46.6067" lon="6.09752">
        <ele>1085.47</ele>
        <time>2016-06-12T12:56:53Z</time>
      </trkpt>
      <trkpt lat="46.60663" lon="6.09761">
        <ele>1082.58</ele>
        <time>2016-06-12T12:57:03Z</time>
      </trkpt>
      <trkpt lat="46.60652" lon="6.09768">
        <ele>1080.66</ele>
        <time>2016-06-12T12:57:15Z</time>
      </trkpt>
      <trkpt lat="46.60644" lon="6.09775">
        <ele>1079.7</ele>
        <time>2016-06-12T12:57:28Z</time>
      </trkpt>
      <trkpt lat="46.60635" lon="6.0978">
        <ele>1080.18</ele>
        <time>2016-06-12T12:57:39Z</time>
      </trkpt>
      <trkpt lat="46.60632" lon="6.09784">
        <ele>1079.22</ele>
        <time>2016-06-12T12:57:45Z</time>
      </trkpt>
      <trkpt lat="46.60621" lon="6.098">
        <ele>1079.22</ele>
        <time>2016-06-12T12:57:57Z</time>
      </trkpt>
      <trkpt lat="46.60614" lon="6.09807">
        <ele>1076.81</ele>
        <time>2016-06-12T12:58:09Z</time>
      </trkpt>
      <trkpt lat="46.60606" lon="6.09823">
        <ele>1073.93</ele>
        <time>2016-06-12T12:58:22Z</time>
      </trkpt>
      <trkpt lat="46.60605" lon="6.09824">
        <ele>1073.45</ele>
        <time>2016-06-12T12:58:23Z</time>
      </trkpt>
      <trkpt lat="46.60596" lon="6.09833">
        <ele>1070.08</ele>
        <time>2016-06-12T12:58:35Z</time>
      </trkpt>
      <trkpt lat="46.60584" lon="6.09842">
        <ele>1070.57</ele>
        <time>2016-06-12T12:58:47Z</time>
      </trkpt>
      <trkpt lat="46.60571" lon="6.09854">
        <ele>1072.49</ele>
        <time>2016-06-12T12:58:59Z</time>
      </trkpt>
      <trkpt lat="46.60564" lon="6.09861">
        <ele>1072.01</ele>
        <time>2016-06-12T12:59:09Z</time>
      </trkpt>
      <trkpt lat="46.60559" lon="6.09862">
        <ele>1070.57</ele>
        <time>2016-06-12T12:59:20Z</time>
      </trkpt>
      <trkpt lat="46.60546" lon="6.09865">
        <ele>1067.68</ele>
        <time>2016-06-12T12:59:33Z</time>
      </trkpt>
      <trkpt lat="46.60529" lon="6.09874">
        <ele>1066.72</ele>
        <time>2016-06-12T12:59:46Z</time>
      </trkpt>
      <trkpt lat="46.60519" lon="6.09881">
        <ele>1066.72</ele>
        <time>2016-06-12T12:59:59Z</time>
      </trkpt>
      <trkpt lat="46.60517" lon="6.09883">
        <ele>1066.24</ele>
        <time>2016-06-12T13:00:11Z</time>
      </trkpt>
      <trkpt lat="46.60516" lon="6.09881">
        <ele>1063.84</ele>
        <time>2016-06-12T13:00:21Z</time>
      </trkpt>
      <trkpt lat="46.60512" lon="6.0988">
        <ele>1061.91</ele>
        <time>2016-06-12T13:00:28Z</time>
      </trkpt>
      <trkpt lat="46.60485" lon="6.09895">
        <ele>1064.8</ele>
        <time>2016-06-12T13:00:44Z</time>
      </trkpt>
      <trkpt lat="46.60475" lon="6.099">
        <ele>1063.84</ele>
        <time>2016-06-12T13:00:55Z</time>
      </trkpt>
      <trkpt lat="46.60466" lon="6.09902">
        <ele>1065.76</ele>
        <time>2016-06-12T13:01:08Z</time>
      </trkpt>
      <trkpt lat="46.60456" lon="6.09908">
        <ele>1064.32</ele>
        <time>2016-06-12T13:01:21Z</time>
      </trkpt>
      <trkpt lat="46.60452" lon="6.09909">
        <ele>1060.47</ele>
        <time>2016-06-12T13:01:33Z</time>
      </trkpt>
      <trkpt lat="46.60453" lon="6.09908">
        <ele>1058.55</ele>
        <time>2016-06-12T13:01:47Z</time>
      </trkpt>
      <trkpt lat="46.60453" lon="6.09908">
        <ele>1058.07</ele>
        <time>2016-06-12T13:01:48Z</time>
      </trkpt>
      <trkpt lat="46.60451" lon="6.09908">
        <ele>1056.15</ele>
        <time>2016-06-12T13:01:53Z</time>
      </trkpt>
      <trkpt lat="46.60451" lon="6.09914">
        <ele>1053.74</ele>
        <time>2016-06-12T13:01:58Z</time>
      </trkpt>
      <trkpt lat="46.60418" lon="6.09929">
        <ele>1065.28</ele>
        <time>2016-06-12T13:02:03Z</time>
      </trkpt>
      <trkpt lat="46.60413" lon="6.09946">
        <ele>1070.08</ele>
        <time>2016-06-12T13:02:16Z</time>
      </trkpt>
      <trkpt lat="46.6041" lon="6.09957">
        <ele>1072.49</ele>
        <time>2016-06-12T13:02:26Z</time>
      </trkpt>
      <trkpt lat="46.604" lon="6.09972">
        <ele>1071.05</ele>
        <time>2016-06-12T13:02:38Z</time>
      </trkpt>
      <trkpt lat="46.60392" lon="6.09991">
        <ele>1071.05</ele>
        <time>2016-06-12T13:02:50Z</time>
      </trkpt>
      <trkpt lat="46.60387" lon="6.10006">
        <ele>1069.6</ele>
        <time>2016-06-12T13:03:01Z</time>
      </trkpt>
      <trkpt lat="46.6038" lon="6.10018">
        <ele>1068.64</ele>
        <time>2016-06-12T13:03:13Z</time>
      </trkpt>
      <trkpt lat="46.60372" lon="6.10029">
        <ele>1068.16</ele>
        <time>2016-06-12T13:03:23Z</time>
      </trkpt>
      <trkpt lat="46.60363" lon="6.10046">
        <ele>1068.64</ele>
        <time>2016-06-12T13:03:39Z</time>
      </trkpt>
      <trkpt lat="46.60356" lon="6.1006">
        <ele>1068.16</ele>
        <time>2016-06-12T13:03:50Z</time>
      </trkpt>
      <trkpt lat="46.6035" lon="6.10073">
        <ele>1066.72</ele>
        <time>2016-06-12T13:04:01Z</time>
      </trkpt>
      <trkpt lat="46.60342" lon="6.10085">
        <ele>1065.76</ele>
        <time>2016-06-12T13:04:12Z</time>
      </trkpt>
      <trkpt lat="46.60333" lon="6.10101">
        <ele>1064.8</ele>
        <time>2016-06-12T13:04:26Z</time>
      </trkpt>
      <trkpt lat="46.60329" lon="6.10104">
        <ele>1064.8</ele>
        <time>2016-06-12T13:04:32Z</time>
      </trkpt>
      <trkpt lat="46.60319" lon="6.10121">
        <ele>1066.24</ele>
        <time>2016-06-12T13:04:46Z</time>
      </trkpt>
      <trkpt lat="46.60312" lon="6.10135">
        <ele>1066.24</ele>
        <time>2016-06-12T13:04:57Z</time>
      </trkpt>
      <trkpt lat="46.60309" lon="6.10141">
        <ele>1066.72</ele>
        <time>2016-06-12T13:05:02Z</time>
      </trkpt>
      <trkpt lat="46.60308" lon="6.10148">
        <ele>1065.76</ele>
        <time>2016-06-12T13:05:07Z</time>
      </trkpt>
      <trkpt lat="46.60301" lon="6.1016">
        <ele>1067.68</ele>
        <time>2016-06-12T13:05:19Z</time>
      </trkpt>
      <trkpt lat="46.60296" lon="6.10167">
        <ele>1069.6</ele>
        <time>2016-06-12T13:05:30Z</time>
      </trkpt>
      <trkpt lat="46.60294" lon="6.10174">
        <ele>1070.08</ele>
        <time>2016-06-12T13:05:34Z</time>
      </trkpt>
      <trkpt lat="46.60288" lon="6.10191">
        <ele>1070.08</ele>
        <time>2016-06-12T13:05:47Z</time>
      </trkpt>
      <trkpt lat="46.6028" lon="6.10209">
        <ele>1071.53</ele>
        <time>2016-06-12T13:06:00Z</time>
      </trkpt>
      <trkpt lat="46.60277" lon="6.10227">
        <ele>1072.01</ele>
        <time>2016-06-12T13:06:14Z</time>
      </trkpt>
      <trkpt lat="46.60274" lon="6.10251">
        <ele>1071.05</ele>
        <time>2016-06-12T13:06:31Z</time>
      </trkpt>
      <trkpt lat="46.6027" lon="6.10266">
        <ele>1071.05</ele>
        <time>2016-06-12T13:06:43Z</time>
      </trkpt>
      <trkpt lat="46.60269" lon="6.10269">
        <ele>1071.53</ele>
        <time>2016-06-12T13:06:46Z</time>
      </trkpt>
      <trkpt lat="46.60263" lon="6.10281">
        <ele>1072.01</ele>
        <time>2016-06-12T13:07:01Z</time>
      </trkpt>
      <trkpt lat="46.60255" lon="6.10292">
        <ele>1074.89</ele>
        <time>2016-06-12T13:07:14Z</time>
      </trkpt>
      <trkpt lat="46.60253" lon="6.10295">
        <ele>1075.37</ele>
        <time>2016-06-12T13:07:18Z</time>
      </trkpt>
      <trkpt lat="46.60241" lon="6.103">
        <ele>1077.29</ele>
        <time>2016-06-12T13:07:32Z</time>
      </trkpt>
      <trkpt lat="46.6024" lon="6.103">
        <ele>1077.29</ele>
        <time>2016-06-12T13:07:33Z</time>
      </trkpt>
      <trkpt lat="46.6023" lon="6.10311">
        <ele>1080.18</ele>
        <time>2016-06-12T13:07:44Z</time>
      </trkpt>
      <trkpt lat="46.60222" lon="6.10325">
        <ele>1080.18</ele>
        <time>2016-06-12T13:07:59Z</time>
      </trkpt>
      <trkpt lat="46.60215" lon="6.10336">
        <ele>1077.78</ele>
        <time>2016-06-12T13:08:12Z</time>
      </trkpt>
      <trkpt lat="46.6021" lon="6.1034">
        <ele>1076.33</ele>
        <time>2016-06-12T13:08:26Z</time>
      </trkpt>
      <trkpt lat="46.60207" lon="6.10346">
        <ele>1075.85</ele>
        <time>2016-06-12T13:08:37Z</time>
      </trkpt>
      <trkpt lat="46.60198" lon="6.10352">
        <ele>1076.81</ele>
        <time>2016-06-12T13:08:51Z</time>
      </trkpt>
      <trkpt lat="46.6019" lon="6.10357">
        <ele>1075.37</ele>
        <time>2016-06-12T13:09:00Z</time>
      </trkpt>
      <trkpt lat="46.60178" lon="6.10367">
        <ele>1073.93</ele>
        <time>2016-06-12T13:09:14Z</time>
      </trkpt>
      <trkpt lat="46.60169" lon="6.10376">
        <ele>1072.01</ele>
        <time>2016-06-12T13:09:25Z</time>
      </trkpt>
      <trkpt lat="46.60159" lon="6.10382">
        <ele>1071.53</ele>
        <time>2016-06-12T13:09:37Z</time>
      </trkpt>
      <trkpt lat="46.60152" lon="6.10388">
        <ele>1071.53</ele>
        <time>2016-06-12T13:09:46Z</time>
      </trkpt>
      <trkpt lat="46.60148" lon="6.10391">
        <ele>1072.49</ele>
        <time>2016-06-12T13:09:58Z</time>
      </trkpt>
      <trkpt lat="46.60147" lon="6.10392">
        <ele>1072.97</ele>
        <time>2016-06-12T13:10:19Z</time>
      </trkpt>
      <trkpt lat="46.60147" lon="6.10392">
        <ele>1072.97</ele>
        <time>2016-06-12T13:10:39Z</time>
      </trkpt>
      <trkpt lat="46.60147" lon="6.10392">
        <ele>1072.97</ele>
        <time>2016-06-12T13:10:55Z</time>
      </trkpt>
      <trkpt lat="46.60147" lon="6.10393">
        <ele>1073.93</ele>
        <time>2016-06-12T13:11:11Z</time>
      </trkpt>
      <trkpt lat="46.60147" lon="6.10393">
        <ele>1074.41</ele>
        <time>2016-06-12T13:11:30Z</time>
      </trkpt>
      <trkpt lat="46.60146" lon="6.10393">
        <ele>1074.89</ele>
        <time>2016-06-12T13:11:57Z</time>
      </trkpt>
      <trkpt lat="46.60147" lon="6.10393">
        <ele>1074.89</ele>
        <time>2016-06-12T13:12:13Z</time>
      </trkpt>
      <trkpt lat="46.60147" lon="6.10393">
        <ele>1074.41</ele>
        <time>2016-06-12T13:12:20Z</time>
      </trkpt>
      <trkpt lat="46.60142" lon="6.10394">
        <ele>1073.93</ele>
        <time>2016-06-12T13:12:25Z</time>
      </trkpt>
      <trkpt lat="46.60131" lon="6.10401">
        <ele>1074.41</ele>
        <time>2016-06-12T13:12:39Z</time>
      </trkpt>
      <trkpt lat="46.60121" lon="6.10409">
        <ele>1075.37</ele>
        <time>2016-06-12T13:12:53Z</time>
      </trkpt>
      <trkpt lat="46.60114" lon="6.10419">
        <ele>1075.37</ele>
        <time>2016-06-12T13:13:01Z</time>
      </trkpt>
      <trkpt lat="46.60105" lon="6.10436">
        <ele>1072.01</ele>
        <time>2016-06-12T13:13:15Z</time>
      </trkpt>
      <trkpt lat="46.60105" lon="6.10436">
        <ele>1071.53</ele>
        <time>2016-06-12T13:13:28Z</time>
      </trkpt>
      <trkpt lat="46.60105" lon="6.10438">
        <ele>1069.6</ele>
        <time>2016-06-12T13:13:44Z</time>
      </trkpt>
      <trkpt lat="46.60101" lon="6.10449">
        <ele>1071.53</ele>
        <time>2016-06-12T13:13:52Z</time>
      </trkpt>
      <trkpt lat="46.60095" lon="6.10462">
        <ele>1073.45</ele>
        <time>2016-06-12T13:14:05Z</time>
      </trkpt>
      <trkpt lat="46.60085" lon="6.10477">
        <ele>1073.93</ele>
        <time>2016-06-12T13:14:17Z</time>
      </trkpt>
      <trkpt lat="46.6008" lon="6.10486">
        <ele>1074.41</ele>
        <time>2016-06-12T13:14:29Z</time>
      </trkpt>
      <trkpt lat="46.6008" lon="6.10486">
        <ele>1073.93</ele>
        <time>2016-06-12T13:14:48Z</time>
      </trkpt>
      <trkpt lat="46.60075" lon="6.10493">
        <ele>1072.97</ele>
        <time>2016-06-12T13:14:59Z</time>
      </trkpt>
      <trkpt lat="46.60064" lon="6.10508">
        <ele>1072.97</ele>
        <time>2016-06-12T13:15:15Z</time>
      </trkpt>
      <trkpt lat="46.60061" lon="6.10516">
        <ele>1071.53</ele>
        <time>2016-06-12T13:15:29Z</time>
      </trkpt>
      <trkpt lat="46.60051" lon="6.1053">
        <ele>1071.53</ele>
        <time>2016-06-12T13:15:42Z</time>
      </trkpt>
      <trkpt lat="46.60045" lon="6.10541">
        <ele>1071.53</ele>
        <time>2016-06-12T13:15:52Z</time>
      </trkpt>
      <trkpt lat="46.60042" lon="6.1055">
        <ele>1072.01</ele>
        <time>2016-06-12T13:15:59Z</time>
      </trkpt>
      <trkpt lat="46.60037" lon="6.10573">
        <ele>1075.85</ele>
        <time>2016-06-12T13:16:14Z</time>
      </trkpt>
      <trkpt lat="46.60034" lon="6.10578">
        <ele>1076.33</ele>
        <time>2016-06-12T13:16:27Z</time>
      </trkpt>
      <trkpt lat="46.60034" lon="6.10576">
        <ele>1076.33</ele>
        <time>2016-06-12T13:16:42Z</time>
      </trkpt>
      <trkpt lat="46.60035" lon="6.10576">
        <ele>1076.81</ele>
        <time>2016-06-12T13:17:02Z</time>
      </trkpt>
      <trkpt lat="46.60033" lon="6.10577">
        <ele>1077.29</ele>
        <time>2016-06-12T13:17:24Z</time>
      </trkpt>
      <trkpt lat="46.60034" lon="6.10577">
        <ele>1076.81</ele>
        <time>2016-06-12T13:17:45Z</time>
      </trkpt>
      <trkpt lat="46.60034" lon="6.10577">
        <ele>1076.81</ele>
        <time>2016-06-12T13:18:10Z</time>
      </trkpt>
      <trkpt lat="46.60034" lon="6.10577">
        <ele>1076.33</ele>
        <time>2016-06-12T13:18:35Z</time>
      </trkpt>
      <trkpt lat="46.60034" lon="6.10576">
        <ele>1076.33</ele>
        <time>2016-06-12T13:18:55Z</time>
      </trkpt>
      <trkpt lat="46.60036" lon="6.10589">
        <ele>1076.33</ele>
        <time>2016-06-12T13:19:07Z</time>
      </trkpt>
      <trkpt lat="46.60043" lon="6.10604">
        <ele>1075.85</ele>
        <time>2016-06-12T13:19:19Z</time>
      </trkpt>
      <trkpt lat="46.60052" lon="6.1062">
        <ele>1075.85</ele>
        <time>2016-06-12T13:19:35Z</time>
      </trkpt>
      <trkpt lat="46.60054" lon="6.10625">
        <ele>1074.89</ele>
        <time>2016-06-12T13:19:39Z</time>
      </trkpt>
      <trkpt lat="46.60052" lon="6.10637">
        <ele>1072.97</ele>
        <time>2016-06-12T13:19:54Z</time>
      </trkpt>
      <trkpt lat="46.60053" lon="6.10641">
        <ele>1072.49</ele>
        <time>2016-06-12T13:20:04Z</time>
      </trkpt>
      <trkpt lat="46.60058" lon="6.10672">
        <ele>1071.05</ele>
        <time>2016-06-12T13:20:23Z</time>
      </trkpt>
      <trkpt lat="46.60065" lon="6.10693">
        <ele>1071.05</ele>
        <time>2016-06-12T13:20:38Z</time>
      </trkpt>
      <trkpt lat="46.60073" lon="6.10711">
        <ele>1070.57</ele>
        <time>2016-06-12T13:20:52Z</time>
      </trkpt>
      <trkpt lat="46.60076" lon="6.10717">
        <ele>1070.57</ele>
        <time>2016-06-12T13:20:58Z</time>
      </trkpt>
      <trkpt lat="46.60074" lon="6.10743">
        <ele>1069.12</ele>
        <time>2016-06-12T13:21:15Z</time>
      </trkpt>
      <trkpt lat="46.60074" lon="6.10752">
        <ele>1068.64</ele>
        <time>2016-06-12T13:21:21Z</time>
      </trkpt>
      <trkpt lat="46.60073" lon="6.10758">
        <ele>1068.64</ele>
        <time>2016-06-12T13:21:24Z</time>
      </trkpt>
      <trkpt lat="46.60072" lon="6.10778">
        <ele>1066.72</ele>
        <time>2016-06-12T13:21:36Z</time>
      </trkpt>
      <trkpt lat="46.60069" lon="6.10809">
        <ele>1068.16</ele>
        <time>2016-06-12T13:21:54Z</time>
      </trkpt>
      <trkpt lat="46.60067" lon="6.10818">
        <ele>1068.64</ele>
        <time>2016-06-12T13:22:09Z</time>
      </trkpt>
      <trkpt lat="46.60067" lon="6.10826">
        <ele>1068.64</ele>
        <time>2016-06-12T13:22:23Z</time>
      </trkpt>
      <trkpt lat="46.60063" lon="6.10854">
        <ele>1070.08</ele>
        <time>2016-06-12T13:22:39Z</time>
      </trkpt>
      <trkpt lat="46.60056" lon="6.10878">
        <ele>1070.57</ele>
        <time>2016-06-12T13:22:54Z</time>
      </trkpt>
      <trkpt lat="46.60047" lon="6.10899">
        <ele>1071.05</ele>
        <time>2016-06-12T13:23:09Z</time>
      </trkpt>
      <trkpt lat="46.60044" lon="6.10908">
        <ele>1071.53</ele>
        <time>2016-06-12T13:23:17Z</time>
      </trkpt>
      <trkpt lat="46.60036" lon="6.1093">
        <ele>1072.01</ele>
        <time>2016-06-12T13:23:32Z</time>
      </trkpt>
      <trkpt lat="46.60036" lon="6.10931">
        <ele>1072.01</ele>
        <time>2016-06-12T13:23:33Z</time>
      </trkpt>
      <trkpt lat="46.6003" lon="6.10955">
        <ele>1071.05</ele>
        <time>2016-06-12T13:23:47Z</time>
      </trkpt>
      <trkpt lat="46.60026" lon="6.10975">
        <ele>1069.6</ele>
        <time>2016-06-12T13:24:00Z</time>
      </trkpt>
      <trkpt lat="46.60019" lon="6.10999">
        <ele>1070.08</ele>
        <time>2016-06-12T13:24:16Z</time>
      </trkpt>
      <trkpt lat="46.60016" lon="6.11012">
        <ele>1071.53</ele>
        <time>2016-06-12T13:24:25Z</time>
      </trkpt>
      <trkpt lat="46.60014" lon="6.11018">
        <ele>1072.01</ele>
        <time>2016-06-12T13:24:29Z</time>
      </trkpt>
      <trkpt lat="46.60007" lon="6.11044">
        <ele>1073.45</ele>
        <time>2016-06-12T13:24:46Z</time>
      </trkpt>
      <trkpt lat="46.60006" lon="6.11047">
        <ele>1073.45</ele>
        <time>2016-06-12T13:24:48Z</time>
      </trkpt>
      <trkpt lat="46.59999" lon="6.1107">
        <ele>1073.93</ele>
        <time>2016-06-12T13:25:05Z</time>
      </trkpt>
      <trkpt lat="46.59996" lon="6.11086">
        <ele>1074.41</ele>
        <time>2016-06-12T13:25:17Z</time>
      </trkpt>
      <trkpt lat="46.59995" lon="6.11089">
        <ele>1074.41</ele>
        <time>2016-06-12T13:25:19Z</time>
      </trkpt>
      <trkpt lat="46.59994" lon="6.11097">
        <ele>1075.37</ele>
        <time>2016-06-12T13:25:24Z</time>
      </trkpt>
      <trkpt lat="46.59993" lon="6.11101">
        <ele>1075.37</ele>
        <time>2016-06-12T13:25:27Z</time>
      </trkpt>
      <trkpt lat="46.5999" lon="6.11119">
        <ele>1076.33</ele>
        <time>2016-06-12T13:25:41Z</time>
      </trkpt>
      <trkpt lat="46.59988" lon="6.11128">
        <ele>1076.81</ele>
        <time>2016-06-12T13:25:47Z</time>
      </trkpt>
      <trkpt lat="46.59984" lon="6.11143">
        <ele>1078.74</ele>
        <time>2016-06-12T13:25:59Z</time>
      </trkpt>
      <trkpt lat="46.59981" lon="6.11157">
        <ele>1080.66</ele>
        <time>2016-06-12T13:26:09Z</time>
      </trkpt>
      <trkpt lat="46.59977" lon="6.11176">
        <ele>1081.14</ele>
        <time>2016-06-12T13:26:23Z</time>
      </trkpt>
      <trkpt lat="46.59974" lon="6.11191">
        <ele>1081.62</ele>
        <time>2016-06-12T13:26:36Z</time>
      </trkpt>
      <trkpt lat="46.59973" lon="6.11204">
        <ele>1082.1</ele>
        <time>2016-06-12T13:26:47Z</time>
      </trkpt>
      <trkpt lat="46.59969" lon="6.11222">
        <ele>1084.02</ele>
        <time>2016-06-12T13:27:00Z</time>
      </trkpt>
      <trkpt lat="46.59967" lon="6.1124">
        <ele>1084.5</ele>
        <time>2016-06-12T13:27:14Z</time>
      </trkpt>
      <trkpt lat="46.59964" lon="6.11259">
        <ele>1085.95</ele>
        <time>2016-06-12T13:27:28Z</time>
      </trkpt>
      <trkpt lat="46.59959" lon="6.11275">
        <ele>1086.43</ele>
        <time>2016-06-12T13:27:40Z</time>
      </trkpt>
      <trkpt lat="46.59953" lon="6.11294">
        <ele>1086.91</ele>
        <time>2016-06-12T13:27:54Z</time>
      </trkpt>
      <trkpt lat="46.59947" lon="6.11312">
        <ele>1087.39</ele>
        <time>2016-06-12T13:28:08Z</time>
      </trkpt>
      <trkpt lat="46.59941" lon="6.1133">
        <ele>1087.87</ele>
        <time>2016-06-12T13:28:22Z</time>
      </trkpt>
      <trkpt lat="46.59932" lon="6.11347">
        <ele>1086.43</ele>
        <time>2016-06-12T13:28:37Z</time>
      </trkpt>
      <trkpt lat="46.59925" lon="6.1136">
        <ele>1084.99</ele>
        <time>2016-06-12T13:28:48Z</time>
      </trkpt>
      <trkpt lat="46.59915" lon="6.11371">
        <ele>1081.62</ele>
        <time>2016-06-12T13:29:02Z</time>
      </trkpt>
      <trkpt lat="46.59905" lon="6.11383">
        <ele>1081.14</ele>
        <time>2016-06-12T13:29:16Z</time>
      </trkpt>
      <trkpt lat="46.59906" lon="6.11386">
        <ele>1082.58</ele>
        <time>2016-06-12T13:29:31Z</time>
      </trkpt>
      <trkpt lat="46.59904" lon="6.11385">
        <ele>1082.58</ele>
        <time>2016-06-12T13:29:33Z</time>
      </trkpt>
      <trkpt lat="46.59895" lon="6.11389">
        <ele>1081.62</ele>
        <time>2016-06-12T13:29:43Z</time>
      </trkpt>
      <trkpt lat="46.5988" lon="6.11394">
        <ele>1081.14</ele>
        <time>2016-06-12T13:29:58Z</time>
      </trkpt>
      <trkpt lat="46.59864" lon="6.11394">
        <ele>1082.58</ele>
        <time>2016-06-12T13:30:13Z</time>
      </trkpt>
      <trkpt lat="46.59852" lon="6.11396">
        <ele>1083.06</ele>
        <time>2016-06-12T13:30:25Z</time>
      </trkpt>
      <trkpt lat="46.59838" lon="6.11396">
        <ele>1084.02</ele>
        <time>2016-06-12T13:30:39Z</time>
      </trkpt>
      <trkpt lat="46.59834" lon="6.11397">
        <ele>1084.02</ele>
        <time>2016-06-12T13:30:46Z</time>
      </trkpt>
      <trkpt lat="46.59826" lon="6.114">
        <ele>1079.7</ele>
        <time>2016-06-12T13:30:58Z</time>
      </trkpt>
      <trkpt lat="46.59818" lon="6.11405">
        <ele>1072.97</ele>
        <time>2016-06-12T13:31:10Z</time>
      </trkpt>
      <trkpt lat="46.59812" lon="6.11414">
        <ele>1079.7</ele>
        <time>2016-06-12T13:31:22Z</time>
      </trkpt>
      <trkpt lat="46.59812" lon="6.1141">
        <ele>1076.81</ele>
        <time>2016-06-12T13:31:36Z</time>
      </trkpt>
      <trkpt lat="46.59812" lon="6.11409">
        <ele>1075.37</ele>
        <time>2016-06-12T13:31:38Z</time>
      </trkpt>
      <trkpt lat="46.59808" lon="6.11401">
        <ele>1073.93</ele>
        <time>2016-06-12T13:31:48Z</time>
      </trkpt>
      <trkpt lat="46.59799" lon="6.11393">
        <ele>1072.49</ele>
        <time>2016-06-12T13:32:01Z</time>
      </trkpt>
      <trkpt lat="46.5979" lon="6.11382">
        <ele>1068.16</ele>
        <time>2016-06-12T13:32:14Z</time>
      </trkpt>
      <trkpt lat="46.59782" lon="6.11374">
        <ele>1064.8</ele>
        <time>2016-06-12T13:32:27Z</time>
      </trkpt>
      <trkpt lat="46.59773" lon="6.1136">
        <ele>1063.36</ele>
        <time>2016-06-12T13:32:42Z</time>
      </trkpt>
      <trkpt lat="46.59771" lon="6.11352">
        <ele>1062.39</ele>
        <time>2016-06-12T13:32:49Z</time>
      </trkpt>
      <trkpt lat="46.59765" lon="6.11345">
        <ele>1061.91</ele>
        <time>2016-06-12T13:32:57Z</time>
      </trkpt>
      <trkpt lat="46.59757" lon="6.1133">
        <ele>1063.84</ele>
        <time>2016-06-12T13:33:10Z</time>
      </trkpt>
      <trkpt lat="46.59755" lon="6.11326">
        <ele>1067.2</ele>
        <time>2016-06-12T13:33:24Z</time>
      </trkpt>
      <trkpt lat="46.59752" lon="6.11326">
        <ele>1070.08</ele>
        <time>2016-06-12T13:33:44Z</time>
      </trkpt>
      <trkpt lat="46.59747" lon="6.11327">
        <ele>1072.49</ele>
        <time>2016-06-12T13:34:04Z</time>
      </trkpt>
      <trkpt lat="46.59745" lon="6.11328">
        <ele>1078.26</ele>
        <time>2016-06-12T13:34:16Z</time>
      </trkpt>
      <trkpt lat="46.59747" lon="6.11338">
        <ele>1075.85</ele>
        <time>2016-06-12T13:34:26Z</time>
      </trkpt>
      <trkpt lat="46.59761" lon="6.11353">
        <ele>1076.33</ele>
        <time>2016-06-12T13:34:41Z</time>
      </trkpt>
      <trkpt lat="46.59766" lon="6.11361">
        <ele>1079.7</ele>
        <time>2016-06-12T13:34:47Z</time>
      </trkpt>
      <trkpt lat="46.59768" lon="6.11364">
        <ele>1080.18</ele>
        <time>2016-06-12T13:34:49Z</time>
      </trkpt>
      <trkpt lat="46.59769" lon="6.11367">
        <ele>1081.14</ele>
        <time>2016-06-12T13:34:51Z</time>
      </trkpt>
      <trkpt lat="46.59779" lon="6.11381">
        <ele>1084.5</ele>
        <time>2016-06-12T13:35:04Z</time>
      </trkpt>
      <trkpt lat="46.59781" lon="6.11384">
        <ele>1085.47</ele>
        <time>2016-06-12T13:35:12Z</time>
      </trkpt>
      <trkpt lat="46.59778" lon="6.11396">
        <ele>1086.91</ele>
        <time>2016-06-12T13:35:30Z</time>
      </trkpt>
      <trkpt lat="46.59778" lon="6.11397">
        <ele>1088.35</ele>
        <time>2016-06-12T13:36:01Z</time>
      </trkpt>
      <trkpt lat="46.59778" lon="6.11399">
        <ele>1089.31</ele>
        <time>2016-06-12T13:36:18Z</time>
      </trkpt>
      <trkpt lat="46.59776" lon="6.11401">
        <ele>1089.79</ele>
        <time>2016-06-12T13:36:35Z</time>
      </trkpt>
      <trkpt lat="46.59756" lon="6.11359">
        <ele>1089.31</ele>
        <time>2016-06-12T13:38:55Z</time>
      </trkpt>
      <trkpt lat="46.59773" lon="6.11423">
        <ele>1089.31</ele>
        <time>2016-06-12T13:39:41Z</time>
      </trkpt>
      <trkpt lat="46.59789" lon="6.11397">
        <ele>1091.71</ele>
        <time>2016-06-12T13:40:30Z</time>
      </trkpt>
      <trkpt lat="46.59785" lon="6.11393">
        <ele>1098.92</ele>
        <time>2016-06-12T13:40:51Z</time>
      </trkpt>
      <trkpt lat="46.5978" lon="6.11384">
        <ele>1099.4</ele>
        <time>2016-06-12T13:41:12Z</time>
      </trkpt>
      <trkpt lat="46.59779" lon="6.1138">
        <ele>1099.89</ele>
        <time>2016-06-12T13:41:40Z</time>
      </trkpt>
      <trkpt lat="46.59779" lon="6.11386">
        <ele>1097.48</ele>
        <time>2016-06-12T13:41:52Z</time>
      </trkpt>
      <trkpt lat="46.59793" lon="6.11398">
        <ele>1090.75</ele>
        <time>2016-06-12T13:42:07Z</time>
      </trkpt>
      <trkpt lat="46.59805" lon="6.11407">
        <ele>1086.91</ele>
        <time>2016-06-12T13:42:21Z</time>
      </trkpt>
      <trkpt lat="46.59813" lon="6.11407">
        <ele>1084.02</ele>
        <time>2016-06-12T13:42:37Z</time>
      </trkpt>
      <trkpt lat="46.59817" lon="6.11406">
        <ele>1083.06</ele>
        <time>2016-06-12T13:43:03Z</time>
      </trkpt>
      <trkpt lat="46.59816" lon="6.11408">
        <ele>1085.47</ele>
        <time>2016-06-12T13:43:26Z</time>
      </trkpt>
      <trkpt lat="46.59818" lon="6.11407">
        <ele>1084.99</ele>
        <time>2016-06-12T13:43:31Z</time>
      </trkpt>
      <trkpt lat="46.5983" lon="6.11402">
        <ele>1081.62</ele>
        <time>2016-06-12T13:43:47Z</time>
      </trkpt>
      <trkpt lat="46.59839" lon="6.11402">
        <ele>1080.66</ele>
        <time>2016-06-12T13:43:56Z</time>
      </trkpt>
      <trkpt lat="46.59854" lon="6.11399">
        <ele>1083.06</ele>
        <time>2016-06-12T13:44:10Z</time>
      </trkpt>
      <trkpt lat="46.59861" lon="6.11393">
        <ele>1083.54</ele>
        <time>2016-06-12T13:44:22Z</time>
      </trkpt>
      <trkpt lat="46.59865" lon="6.11394">
        <ele>1083.54</ele>
        <time>2016-06-12T13:44:27Z</time>
      </trkpt>
      <trkpt lat="46.59881" lon="6.11397">
        <ele>1083.54</ele>
        <time>2016-06-12T13:44:41Z</time>
      </trkpt>
      <trkpt lat="46.59898" lon="6.114">
        <ele>1084.02</ele>
        <time>2016-06-12T13:44:55Z</time>
      </trkpt>
      <trkpt lat="46.59912" lon="6.11402">
        <ele>1082.58</ele>
        <time>2016-06-12T13:45:08Z</time>
      </trkpt>
      <trkpt lat="46.59925" lon="6.11409">
        <ele>1082.1</ele>
        <time>2016-06-12T13:45:22Z</time>
      </trkpt>
      <trkpt lat="46.59935" lon="6.11415">
        <ele>1082.58</ele>
        <time>2016-06-12T13:45:31Z</time>
      </trkpt>
      <trkpt lat="46.59948" lon="6.11426">
        <ele>1081.14</ele>
        <time>2016-06-12T13:45:45Z</time>
      </trkpt>
      <trkpt lat="46.59962" lon="6.11435">
        <ele>1082.1</ele>
        <time>2016-06-12T13:45:57Z</time>
      </trkpt>
      <trkpt lat="46.59975" lon="6.11444">
        <ele>1081.62</ele>
        <time>2016-06-12T13:46:10Z</time>
      </trkpt>
      <trkpt lat="46.59991" lon="6.11449">
        <ele>1082.1</ele>
        <time>2016-06-12T13:46:24Z</time>
      </trkpt>
      <trkpt lat="46.60006" lon="6.11451">
        <ele>1082.1</ele>
        <time>2016-06-12T13:46:36Z</time>
      </trkpt>
      <trkpt lat="46.60022" lon="6.11455">
        <ele>1080.66</ele>
        <time>2016-06-12T13:46:49Z</time>
      </trkpt>
      <trkpt lat="46.60031" lon="6.11458">
        <ele>1080.18</ele>
        <time>2016-06-12T13:46:57Z</time>
      </trkpt>
      <trkpt lat="46.60036" lon="6.11459">
        <ele>1079.7</ele>
        <time>2016-06-12T13:47:02Z</time>
      </trkpt>
      <trkpt lat="46.60044" lon="6.11461">
        <ele>1079.7</ele>
        <time>2016-06-12T13:47:09Z</time>
      </trkpt>
      <trkpt lat="46.60056" lon="6.11462">
        <ele>1079.22</ele>
        <time>2016-06-12T13:47:19Z</time>
      </trkpt>
      <trkpt lat="46.60072" lon="6.1146">
        <ele>1078.26</ele>
        <time>2016-06-12T13:47:35Z</time>
      </trkpt>
      <trkpt lat="46.60084" lon="6.11457">
        <ele>1077.29</ele>
        <time>2016-06-12T13:47:47Z</time>
      </trkpt>
      <trkpt lat="46.601" lon="6.11452">
        <ele>1076.81</ele>
        <time>2016-06-12T13:48:00Z</time>
      </trkpt>
      <trkpt lat="46.60113" lon="6.11444">
        <ele>1078.26</ele>
        <time>2016-06-12T13:48:12Z</time>
      </trkpt>
      <trkpt lat="46.60127" lon="6.11437">
        <ele>1081.14</ele>
        <time>2016-06-12T13:48:24Z</time>
      </trkpt>
      <trkpt lat="46.6013" lon="6.11436">
        <ele>1081.14</ele>
        <time>2016-06-12T13:48:27Z</time>
      </trkpt>
      <trkpt lat="46.60144" lon="6.11426">
        <ele>1082.1</ele>
        <time>2016-06-12T13:48:41Z</time>
      </trkpt>
      <trkpt lat="46.60156" lon="6.11419">
        <ele>1083.06</ele>
        <time>2016-06-12T13:48:52Z</time>
      </trkpt>
      <trkpt lat="46.60158" lon="6.11418">
        <ele>1083.54</ele>
        <time>2016-06-12T13:48:54Z</time>
      </trkpt>
      <trkpt lat="46.60171" lon="6.11406">
        <ele>1083.54</ele>
        <time>2016-06-12T13:49:08Z</time>
      </trkpt>
      <trkpt lat="46.60181" lon="6.1139">
        <ele>1082.58</ele>
        <time>2016-06-12T13:49:21Z</time>
      </trkpt>
      <trkpt lat="46.60186" lon="6.11378">
        <ele>1084.02</ele>
        <time>2016-06-12T13:49:29Z</time>
      </trkpt>
      <trkpt lat="46.60182" lon="6.11369">
        <ele>1085.47</ele>
        <time>2016-06-12T13:49:35Z</time>
      </trkpt>
      <trkpt lat="46.60172" lon="6.11362">
        <ele>1085.95</ele>
        <time>2016-06-12T13:49:47Z</time>
      </trkpt>
      <trkpt lat="46.60164" lon="6.11357">
        <ele>1084.99</ele>
        <time>2016-06-12T13:49:56Z</time>
      </trkpt>
      <trkpt lat="46.60159" lon="6.11354">
        <ele>1084.5</ele>
        <time>2016-06-12T13:50:11Z</time>
      </trkpt>
      <trkpt lat="46.60162" lon="6.11345">
        <ele>1083.54</ele>
        <time>2016-06-12T13:50:28Z</time>
      </trkpt>
      <trkpt lat="46.60163" lon="6.11336">
        <ele>1081.62</ele>
        <time>2016-06-12T13:50:39Z</time>
      </trkpt>
      <trkpt lat="46.60163" lon="6.11335">
        <ele>1081.62</ele>
        <time>2016-06-12T13:50:40Z</time>
      </trkpt>
      <trkpt lat="46.60162" lon="6.11334">
        <ele>1082.1</ele>
        <time>2016-06-12T13:50:42Z</time>
      </trkpt>
      <trkpt lat="46.60153" lon="6.11336">
        <ele>1083.06</ele>
        <time>2016-06-12T13:50:55Z</time>
      </trkpt>
      <trkpt lat="46.60157" lon="6.11347">
        <ele>1080.66</ele>
        <time>2016-06-12T13:51:09Z</time>
      </trkpt>
      <trkpt lat="46.60164" lon="6.11353">
        <ele>1078.74</ele>
        <time>2016-06-12T13:51:18Z</time>
      </trkpt>
    </trkseg>
  </trk>
</gpx>